[[{"header":{"parameterUnit":"m.s-1","parameterCategory":1,"la1":30.6,"la2":29.2853,"lo1":-89.7004,"lo2":-87.6739,"dy":0.0162,"dx":0.0183,"nx":112,"ny":82,"refTime":"2024-04-19T00:00:00:Z","depth":0,"parameterNumber":2,"parameterNumberName":"U-component_of_WINDS"},"data":[0.0,0.0,0.0,0.0,0.0,0.0,0.0,0.0,0.0,0.0,0.0,0.0,0.0,0.0,0.0,0.0,0.0,0.0,0.0,0.0,0.0,0.0,0.0,0.0,0.0,0.0,0.0,0.0,0.0,0.0,0.0,0.0,0.0,0.0,0.0,0.0,0.0,0.0,0.0,0.0,0.0,0.0,0.0,0.0,0.0,0.0,0.0,0.0,0.0,0.0,0.0,0.0,0.0,0.0,0.0,0.0,0.0,0.0,0.0,0.0,0.0,0.0,0.0,0.0,0.0,0.0,0.0,0.0,0.0,0.0,0.0,0.0,0.0,0.0,0.0,0.0,0.0,0.0,0.0,0.0,0.0,0.0,0.0,0.0,0.0,0.0,0.0,0.0,0.0,0.0,0.0,5.2434,5.5571,5.7317,5.7201,5.4068,4.9961,4.4997,0.0,0.0,0.0,0.0,0.0,0.0,0.0,0.0,0.0,0.0,0.0,0.0,0.0,0.0,0.0,0.0,0.0,0.0,0.0,0.0,0.0,0.0,0.0,0.0,0.0,0.0,0.0,0.0,0.0,0.0,0.0,0.0,0.0,0.0,0.0,0.0,0.0,0.0,0.0,0.0,0.0,0.0,0.0,0.0,0.0,0.0,0.0,0.0,0.0,0.0,0.0,0.0,0.0,0.0,0.0,0.0,0.0,0.0,0.0,0.0,0.0,0.0,0.0,0.0,0.0,0.0,0.0,0.0,0.0,0.0,0.0,0.0,0.0,0.0,0.0,0.0,0.0,0.0,0.0,0.0,0.0,0.0,0.0,0.0,0.0,0.0,0.0,0.0,0.0,0.0,0.0,0.0,0.0,0.0,0.0,0.0,0.0,0.0,0.0,0.0,0.0,0.0,0.0,0.0,4.6851,5.4597,5.6569,5.7033,5.6261,5.3088,4.9256,4.4883,0.0,0.0,0.0,0.0,0.0,0.0,0.0,0.0,0.0,0.0,0.0,0.0,0.0,0.0,0.0,0.0,0.0,0.0,0.0,0.0,0.0,0.0,0.0,0.0,0.0,0.0,0.0,0.0,0.0,0.0,0.0,0.0,0.0,0.0,0.0,0.0,0.0,0.0,0.0,0.0,0.0,0.0,0.0,0.0,0.0,0.0,0.0,0.0,0.0,0.0,0.0,0.0,0.0,0.0,0.0,0.0,0.0,0.0,0.0,0.0,0.0,0.0,0.0,0.0,0.0,0.0,0.0,0.0,0.0,0.0,0.0,0.0,0.0,0.0,0.0,0.0,0.0,0.0,0.0,0.0,0.0,0.0,0.0,0.0,0.0,0.0,0.0,0.0,0.0,0.0,0.0,0.0,0.0,0.0,0.0,0.0,0.0,0.0,0.0,0.0,0.0,0.0,0.0,4.7122,5.119,5.7443,5.8062,5.7634,5.6781,5.3143,4.9082,4.4866,4.0991,0.0,0.0,0.0,0.0,0.0,0.0,0.0,0.0,0.0,0.0,0.0,0.0,0.0,0.0,0.0,0.0,0.0,0.0,0.0,0.0,0.0,0.0,0.0,0.0,0.0,0.0,0.0,0.0,0.0,0.0,0.0,0.0,0.0,0.0,0.0,0.0,0.0,0.0,0.0,0.0,0.0,0.0,0.0,0.0,0.0,0.0,0.0,0.0,0.0,0.0,0.0,0.0,0.0,0.0,0.0,0.0,0.0,0.0,0.0,0.0,0.0,0.0,0.0,0.0,0.0,0.0,0.0,0.0,0.0,0.0,0.0,0.0,0.0,0.0,0.0,0.0,0.0,0.0,0.0,0.0,0.0,0.0,0.0,0.0,0.0,0.0,0.0,0.0,0.0,0.0,0.0,0.0,0.0,0.0,0.0,0.0,0.0,0.0,0.0,0.0,0.0,0.0,5.2821,5.5584,5.9441,5.9093,5.8162,5.7073,5.2856,4.8568,4.4557,3.9917,0.0,0.0,0.0,0.0,0.0,0.0,0.0,0.0,0.0,0.0,0.0,0.0,0.0,0.0,0.0,0.0,0.0,0.0,0.0,0.0,0.0,0.0,0.0,0.0,0.0,0.0,0.0,0.0,0.0,0.0,0.0,0.0,0.0,0.0,0.0,0.0,0.0,0.0,0.0,0.0,0.0,0.0,0.0,0.0,0.0,0.0,0.0,0.0,0.0,0.0,0.0,0.0,0.0,0.0,0.0,0.0,0.0,0.0,0.0,0.0,0.0,0.0,0.0,0.0,0.0,0.0,0.0,0.0,0.0,0.0,0.0,0.0,0.0,0.0,0.0,0.0,0.0,0.0,0.0,0.0,0.0,0.0,0.0,0.0,0.0,0.0,0.0,0.0,0.0,0.0,0.0,0.0,0.0,0.0,0.0,0.0,0.0,0.0,0.0,0.0,0.0,0.0,5.2376,5.6843,5.951,5.9044,5.7844,5.6214,5.1417,4.7028,4.3629,3.791,0.0,0.0,0.0,0.0,0.0,0.0,0.0,0.0,0.0,0.0,0.0,0.0,0.0,0.0,0.0,0.0,0.0,0.0,0.0,0.0,0.0,0.0,0.0,0.0,0.0,0.0,0.0,0.0,0.0,0.0,0.0,0.0,0.0,0.0,0.0,0.0,0.0,0.0,0.0,0.0,0.0,0.0,0.0,0.0,0.0,0.0,0.0,0.0,0.0,0.0,0.0,0.0,0.0,0.0,0.0,0.0,0.0,0.0,0.0,0.0,0.0,0.0,0.0,0.0,0.0,0.0,0.0,0.0,0.0,0.0,0.0,0.0,0.0,0.0,0.0,0.0,0.0,0.0,0.0,0.0,0.0,0.0,0.0,0.0,0.0,0.0,0.0,0.0,0.0,0.0,0.0,0.0,0.0,0.0,0.0,0.0,0.0,0.0,0.0,0.0,0.0,0.0,5.1955,5.572,0.0,5.8947,5.7745,5.6083,5.2187,4.7764,4.2783,0.0,0.0,0.0,0.0,0.0,0.0,0.0,0.0,0.0,0.0,0.0,0.0,0.0,0.0,0.0,0.0,0.0,0.0,0.0,0.0,0.0,0.0,0.0,0.0,0.0,0.0,0.0,0.0,0.0,0.0,0.0,0.0,0.0,0.0,0.0,0.0,0.0,0.0,0.0,0.0,0.0,0.0,0.0,0.0,0.0,0.0,0.0,0.0,0.0,0.0,0.0,0.0,0.0,0.0,0.0,0.0,0.0,0.0,0.0,0.0,0.0,0.0,0.0,0.0,0.0,0.0,0.0,0.0,0.0,0.0,0.0,0.0,0.0,0.0,0.0,0.0,0.0,0.0,0.0,0.0,0.0,0.0,0.0,0.0,0.0,0.0,0.0,0.0,0.0,0.0,0.0,0.0,0.0,0.0,0.0,0.0,0.0,0.0,0.0,0.0,0.0,0.0,4.7932,5.191,5.5545,0.0,5.8888,5.7688,5.6027,5.2251,4.7681,4.2321,0.0,0.0,0.0,0.0,0.0,0.0,0.0,0.0,0.0,0.0,0.0,0.0,0.0,0.0,0.0,0.0,0.0,0.0,0.0,0.0,0.0,0.0,0.0,0.0,0.0,0.0,0.0,0.0,0.0,0.0,0.0,0.0,0.0,0.0,0.0,0.0,0.0,0.0,0.0,0.0,0.0,0.0,0.0,0.0,0.0,0.0,0.0,0.0,0.0,0.0,0.0,0.0,0.0,0.0,0.0,0.0,0.0,0.0,0.0,0.0,0.0,0.0,0.0,0.0,0.0,0.0,0.0,0.0,0.0,0.0,0.0,0.0,0.0,0.0,0.0,0.0,0.0,0.0,0.0,0.0,0.0,0.0,0.0,0.0,0.0,0.0,0.0,0.0,0.0,0.0,0.0,0.0,0.0,0.0,0.0,0.0,0.0,0.0,0.0,0.0,0.0,0.0,4.6463,5.2216,5.6839,5.9331,5.8794,5.76,5.5969,5.1145,4.6427,0.0,0.0,0.0,0.0,0.0,0.0,0.0,0.0,0.0,0.0,0.0,0.0,0.0,0.0,0.0,0.0,0.0,0.0,0.0,0.0,0.0,0.0,0.0,0.0,0.0,0.0,0.0,0.0,0.0,0.0,0.0,0.0,0.0,0.0,0.0,0.0,0.0,0.0,0.0,0.0,0.0,0.0,0.0,0.0,0.0,0.0,0.0,0.0,0.0,0.0,0.0,0.0,0.0,0.0,0.0,0.0,0.0,0.0,0.0,0.0,0.0,0.0,0.0,0.0,0.0,0.0,0.0,0.0,0.0,0.0,0.0,0.0,0.0,0.0,0.0,0.0,0.0,0.0,0.0,0.0,0.0,0.0,0.0,0.0,0.0,0.0,0.0,0.0,0.0,0.0,0.0,0.0,0.0,0.0,0.0,0.0,0.0,0.0,0.0,0.0,0.0,0.0,0.0,4.7306,5.2469,5.6515,5.8459,5.7888,5.7195,5.6681,5.2528,4.7892,4.3042,0.0,0.0,0.0,0.0,0.0,0.0,0.0,0.0,0.0,0.0,0.0,0.0,0.0,0.0,0.0,0.0,0.0,0.0,0.0,0.0,0.0,0.0,0.0,0.0,0.0,0.0,0.0,0.0,0.0,0.0,0.0,0.0,0.0,0.0,0.0,0.0,0.0,0.0,0.0,0.0,0.0,0.0,0.0,0.0,0.0,0.0,0.0,0.0,0.0,0.0,0.0,0.0,0.0,0.0,0.0,0.0,0.0,0.0,0.0,0.0,0.0,0.0,0.0,0.0,0.0,0.0,0.0,0.0,0.0,0.0,0.0,0.0,0.0,0.0,0.0,0.0,0.0,0.0,0.0,0.0,0.0,0.0,0.0,0.0,0.0,0.0,0.0,0.0,0.0,0.0,0.0,0.0,0.0,0.0,0.0,0.0,0.0,0.0,0.0,0.0,0.0,0.0,4.7146,5.2073,5.5898,5.7588,5.7629,5.7245,5.6547,5.3549,4.9367,4.3922,0.0,0.0,0.0,0.0,0.0,0.0,0.0,0.0,0.0,0.0,0.0,0.0,0.0,0.0,0.0,0.0,0.0,0.0,0.0,0.0,0.0,0.0,0.0,0.0,0.0,0.0,0.0,0.0,0.0,0.0,0.0,0.0,0.0,0.0,0.0,0.0,0.0,0.0,0.0,0.0,0.0,0.0,0.0,0.0,0.0,0.0,0.0,0.0,0.0,0.0,0.0,0.0,0.0,0.0,0.0,0.0,0.0,0.0,0.0,0.0,0.0,0.0,0.0,0.0,0.0,0.0,0.0,0.0,0.0,0.0,0.0,0.0,0.0,0.0,0.0,0.0,0.0,0.0,0.0,0.0,0.0,0.0,0.0,0.0,0.0,0.0,0.0,0.0,0.0,0.0,0.0,0.0,0.0,0.0,0.0,0.0,0.0,0.0,0.0,0.0,0.0,0.0,4.6474,5.1373,5.5129,5.6827,5.7629,5.7431,5.5937,5.4203,5.0777,4.5126,0.0,0.0,0.0,0.0,0.0,0.0,0.0,0.0,0.0,0.0,0.0,0.0,0.0,0.0,0.0,0.0,0.0,0.0,0.0,0.0,0.0,0.0,0.0,0.0,0.0,0.0,0.0,0.0,0.0,0.0,0.0,0.0,0.0,0.0,0.0,0.0,0.0,0.0,0.0,0.0,0.0,0.0,0.0,0.0,0.0,0.0,0.0,0.0,0.0,0.0,0.0,0.0,0.0,0.0,0.0,0.0,0.0,0.0,0.0,0.0,3.961,0.0,0.0,0.0,0.0,0.0,0.0,0.0,0.0,0.0,0.0,0.0,0.0,0.0,0.0,0.0,0.0,0.0,0.0,0.0,0.0,0.0,0.0,0.0,0.0,0.0,0.0,0.0,0.0,0.0,0.0,0.0,0.0,0.0,0.0,0.0,0.0,0.0,0.0,0.0,0.0,0.0,4.729,5.1746,5.5129,5.6827,5.6555,5.636,5.6711,5.4549,5.1815,4.8512,4.3699,0.0,0.0,0.0,0.0,0.0,0.0,0.0,0.0,0.0,0.0,0.0,0.0,0.0,0.0,0.0,0.0,0.0,0.0,0.0,0.0,0.0,0.0,0.0,0.0,0.0,0.0,0.0,0.0,0.0,0.0,0.0,0.0,0.0,0.0,0.0,0.0,0.0,0.0,0.0,0.0,0.0,0.0,0.0,0.0,0.0,0.0,0.0,0.0,0.0,0.0,0.0,0.0,0.0,0.0,0.0,0.0,0.0,0.0,0.0,0.0,4.2304,0.0,0.0,0.0,0.0,0.0,0.0,0.0,0.0,0.0,0.0,0.0,0.0,0.0,0.0,0.0,0.0,0.0,0.0,0.0,0.0,0.0,0.0,0.0,0.0,0.0,0.0,0.0,0.0,0.0,0.0,0.0,0.0,0.0,0.0,0.0,0.0,0.0,0.0,0.0,0.0,4.7518,5.1396,5.443,5.6085,5.6238,5.6238,5.6277,5.508,5.3039,5.0118,4.5891,0.0,0.0,0.0,0.0,0.0,0.0,0.0,0.0,0.0,0.0,0.0,0.0,0.0,0.0,0.0,0.0,0.0,0.0,0.0,0.0,0.0,0.0,0.0,0.0,0.0,0.0,0.0,0.0,0.0,0.0,0.0,0.0,0.0,0.0,0.0,0.0,0.0,0.0,0.0,0.0,0.0,0.0,0.0,0.0,0.0,0.0,0.0,0.0,0.0,0.0,0.0,0.0,0.0,5.2649,5.3145,5.3184,5.4406,5.4753,5.4072,4.9482,4.7889,4.8193,4.3601,0.0,0.0,0.0,0.0,0.0,0.0,0.0,0.0,0.0,0.0,0.0,0.0,0.0,0.0,0.0,0.0,0.0,0.0,0.0,0.0,0.0,0.0,0.0,0.0,4.705,4.6432,0.0,0.0,0.0,0.0,0.0,0.0,0.0,0.0,0.0,0.0,0.0,0.0,4.767,5.1001,5.3644,5.5331,5.614,5.6293,5.5559,5.5482,5.4175,5.1141,4.7995,4.4116,0.0,0.0,0.0,0.0,0.0,0.0,0.0,0.0,0.0,0.0,0.0,0.0,0.0,0.0,0.0,0.0,0.0,0.0,0.0,0.0,0.0,0.0,0.0,0.0,0.0,0.0,0.0,0.0,0.0,0.0,0.0,0.0,3.3933,3.6417,0.0,0.0,0.0,0.0,0.0,0.0,0.0,0.0,0.0,0.0,0.0,0.0,0.0,5.1197,5.3072,5.5288,5.6587,5.6934,5.8501,5.923,5.923,5.8685,5.9182,6.0293,5.7473,0.0,5.0894,4.7999,0.0,0.0,0.0,0.0,0.0,0.0,0.0,0.0,0.0,0.0,0.0,0.0,0.0,0.0,0.0,0.0,0.0,0.0,0.0,0.0,0.0,0.0,4.9752,4.9978,5.0132,5.0195,0.0,4.6174,4.2002,4.004,3.7878,0.0,0.0,0.0,0.0,0.0,0.0,0.0,4.8501,5.1341,5.3644,5.5331,5.5597,5.5635,5.552,5.5482,5.4677,5.2798,5.0873,4.8184,4.454,4.0628,0.0,0.0,0.0,0.0,0.0,0.0,0.0,0.0,0.0,0.0,0.0,0.0,0.0,0.0,0.0,0.0,0.0,0.0,0.0,0.0,0.0,0.0,0.0,0.0,0.0,0.0,0.0,0.0,0.0,3.4066,3.7928,3.8963,3.9332,3.8894,0.0,0.0,0.0,0.0,0.0,0.0,0.0,0.0,0.0,5.1996,5.4518,5.6619,5.8307,5.9911,6.0693,6.065,6.1871,6.215,6.1648,6.1755,6.1945,6.2105,6.1086,5.9348,5.6819,5.2439,4.9183,4.6754,0.0,0.0,0.0,0.0,4.4477,4.5411,4.7356,4.7956,0.0,4.6361,0.0,0.0,0.0,0.0,0.0,0.0,0.0,0.0,0.0,0.0,5.1492,5.2488,5.2719,5.2828,5.3146,5.1197,4.8326,0.0,4.3077,4.1265,3.7981,0.0,0.0,0.0,0.0,4.6705,4.9442,5.2044,5.4075,5.5297,5.545,5.5258,5.4764,5.4726,5.3999,5.2315,5.1046,4.9283,4.6867,4.3225,3.9889,0.0,0.0,0.0,0.0,0.0,0.0,0.0,0.0,0.0,0.0,0.0,0.0,0.0,0.0,0.0,0.0,0.0,0.0,0.0,0.0,0.0,0.0,0.0,0.0,0.0,0.0,0.0,0.0,3.8135,4.1394,4.1772,4.3512,4.3606,0.0,0.0,0.0,0.0,0.0,0.0,5.0215,5.3086,5.5379,5.6906,5.9154,6.1028,6.2482,6.3356,6.386,6.4034,6.4411,6.4261,6.3588,6.3817,6.3668,6.3258,6.2906,6.2506,6.1705,5.6544,5.3416,5.1697,4.9363,4.7952,4.7387,4.8914,4.9614,5.0193,5.2956,5.351,5.2791,5.1795,0.0,4.7793,4.5024,0.0,0.0,0.0,0.0,4.8792,5.0906,5.2212,5.3326,5.4633,5.4939,5.4933,5.4922,5.4727,5.3265,0.0,4.7813,4.6314,4.2046,0.0,0.0,0.0,0.0,4.8865,5.0706,5.2805,5.4444,5.5323,5.5396,5.5056,5.418,5.4104,5.3375,5.1729,5.1006,4.9898,4.8214,4.5357,4.2765,4.0434,0.0,0.0,0.0,0.0,0.0,0.0,0.0,0.0,0.0,0.0,0.0,0.0,0.0,0.0,0.0,0.0,0.0,0.0,0.0,0.0,0.0,0.0,0.0,0.0,0.0,0.0,0.0,0.0,0.0,4.5995,4.8345,0.0,0.0,0.0,0.0,4.9613,5.1969,5.448,5.6963,5.879,6.0163,6.1058,6.2767,6.4057,6.4928,6.5804,6.6603,6.7356,6.6637,6.6256,6.6176,6.4616,6.4324,6.4979,6.3334,6.3064,6.3532,6.0143,5.781,5.6097,5.4374,5.3187,5.2543,5.3457,5.4295,5.5174,5.61,5.6445,5.6566,5.7302,5.5349,5.2515,5.1483,5.0098,0.0,0.0,5.1401,5.2899,5.3863,5.532,5.6588,5.6661,5.6664,5.6649,5.6597,5.5931,5.4585,0.0,5.0795,4.9625,4.7693,0.0,4.65,4.7297,4.8337,4.9909,5.2349,5.3492,5.4444,5.5323,5.5396,5.5056,5.418,5.4104,5.3375,5.1729,5.1576,5.0777,4.9104,4.7359,4.5645,4.3999,3.9021,0.0,0.0,0.0,0.0,0.0,0.0,0.0,0.0,0.0,0.0,0.0,0.0,0.0,0.0,0.0,0.0,0.0,0.0,0.0,0.0,0.0,0.0,0.0,0.0,0.0,0.0,0.0,0.0,4.947,5.2303,0.0,5.0964,5.2495,5.4006,5.486,5.6759,5.8512,5.9973,6.1644,6.2937,6.3741,6.4882,6.591,6.6705,6.7005,6.7283,6.754,6.6704,6.6294,6.6195,6.5587,6.5478,6.5752,6.52,6.515,6.5272,6.3095,6.1202,5.9529,5.7842,5.7003,5.6706,5.6497,5.6972,5.7742,5.8095,5.8202,5.8108,5.7353,5.6298,5.5163,5.4319,5.3662,5.3353,5.4204,5.4857,5.5508,5.6387,5.7076,5.75,5.75,5.75,5.7341,5.6751,5.64,5.5744,5.4364,5.337,5.2061,4.9786,5.0054,5.0283,4.9516,5.1085,5.2655,5.3531,5.4409,5.5056,5.5361,5.4903,5.4218,5.3343,5.2802,5.177,5.0095,4.998,4.948,4.8293,4.7201,4.5822,4.4152,4.0856,3.7333,0.0,0.0,0.0,0.0,0.0,0.0,0.0,0.0,0.0,0.0,0.0,0.0,0.0,0.0,0.0,0.0,0.0,0.0,0.0,0.0,0.0,0.0,0.0,0.0,0.0,0.0,5.198,5.251,5.5837,5.7255,5.5229,5.7066,5.8612,5.9193,6.0755,6.2085,6.2933,6.4301,6.5327,6.5855,6.6429,6.7109,6.7945,6.7945,6.807,6.8287,6.749,6.7036,6.6931,6.6665,6.6362,6.6101,6.6206,6.6085,6.5748,6.4698,6.3579,6.2409,6.0783,6.0156,6.0049,5.9237,5.9297,5.9765,5.9574,5.9502,5.9297,5.7886,5.7431,5.7275,5.6508,5.624,5.6355,5.6896,5.724,5.7584,5.815,5.8539,5.873,5.873,5.8539,5.8154,5.7581,5.724,5.6782,5.5976,5.5135,5.3909,5.1926,5.2766,5.319,5.1773,5.3492,5.4947,5.4947,5.5708,5.6125,5.5823,5.5288,5.4489,5.3343,5.2499,5.1429,5.0018,4.941,4.8837,4.8255,4.6917,4.5646,4.4553,4.1892,3.8944,3.5824,0.0,0.0,0.0,0.0,0.0,0.0,0.0,0.0,0.0,0.0,0.0,0.0,0.0,0.0,0.0,0.0,0.0,0.0,0.0,0.0,0.0,0.0,0.0,4.7732,5.2036,5.5219,5.5295,5.8889,6.0407,5.7936,6.06,6.253,6.253,6.405,6.5339,6.6092,6.6931,6.7385,6.7419,6.7419,6.7836,6.8631,6.8636,6.9053,6.9891,6.902,6.8603,6.8565,6.7807,6.6973,6.6173,6.6173,6.5756,6.4998,6.496,6.4922,6.4788,6.3249,6.2633,6.2515,6.1686,6.1385,6.1244,6.0524,6.0341,6.0255,5.9408,5.9137,5.8984,5.823,5.7963,5.7963,5.7963,5.8529,5.9137,5.9137,5.9755,6.0412,6.0415,5.9759,5.914,5.9102,5.8494,5.7657,5.6785,5.5976,5.5209,5.4333,5.4865,5.517,5.4333,5.5597,0.0,5.6591,5.7313,5.7504,5.6664,5.6511,5.5861,5.4215,5.3263,5.2426,5.1576,4.998,4.9069,4.903,4.6658,4.5347,4.5403,4.2238,4.0135,3.9286,0.0,0.0,0.0,0.0,0.0,0.0,0.0,0.0,0.0,0.0,0.0,0.0,0.0,0.0,0.0,0.0,0.0,0.0,0.0,0.0,0.0,4.9845,5.3563,5.2936,5.5647,5.8125,5.9301,6.1515,6.2678,6.1991,6.3831,6.5073,6.5073,6.6101,6.6789,6.6905,6.7127,6.751,6.8043,6.8038,6.8458,6.9332,6.9368,6.9521,6.9748,6.8987,6.8603,6.8603,6.8375,6.8148,6.7921,6.7921,6.7807,6.7504,6.6286,6.5756,6.5609,6.3988,6.3323,6.3179,6.1807,6.0958,6.0441,6.0236,6.0182,6.0173,6.0034,5.9976,5.9948,5.9783,5.9727,5.9713,5.965,5.9785,5.9976,5.9976,6.0167,6.0341,6.0401,6.0224,5.9873,5.9255,5.8911,5.8341,5.6896,5.6934,5.6931,5.6056,5.6094,5.6399,5.6816,5.724,0.0,5.6639,5.6743,5.6532,5.5604,5.5031,5.4523,5.4065,5.2732,5.1314,4.9865,4.8754,4.7873,4.7226,4.6538,4.5913,4.5429,4.3309,4.1822,0.0,0.0,0.0,0.0,0.0,0.0,0.0,0.0,0.0,0.0,0.0,0.0,0.0,0.0,0.0,0.0,0.0,0.0,0.0,0.0,0.0,0.0,5.4178,5.746,5.829,5.9727,6.1048,6.1995,6.3278,6.4234,6.461,6.5488,6.6185,6.653,6.7326,6.7728,6.767,6.8005,6.8396,6.8832,6.8827,6.9096,6.9587,6.9647,6.9659,6.9704,6.9275,6.9096,6.9133,6.9133,6.8949,6.8603,6.8603,6.8413,6.7996,6.6665,6.6097,0.0,0.0,0.0,0.0,0.0,6.1263,6.054,6.0197,6.0064,6.0099,6.0186,6.0239,6.0208,6.0263,6.0277,6.0267,6.0215,6.0239,6.0239,6.0239,6.0239,6.0215,6.0263,6.0303,6.021,5.9706,5.962,5.9262,5.7925,5.8012,0.0,5.7727,5.7657,5.7695,5.7886,5.847,5.8436,5.7215,5.7596,5.7408,5.5808,5.5566,5.5223,5.457,5.3347,0.0,0.0,0.0,4.8138,4.6574,4.6497,0.0,0.0,0.0,4.477,4.5395,0.0,0.0,0.0,4.2623,4.24,0.0,0.0,0.0,0.0,0.0,0.0,0.0,0.0,0.0,0.0,0.0,0.0,0.0,0.0,0.0,0.0,5.7674,5.9916,6.2884,6.3482,6.3625,6.3635,6.4315,6.5141,6.598,6.6172,6.6574,6.7255,6.8004,6.844,6.843,0.0,0.0,0.0,0.0,6.9546,6.9546,6.9567,6.9617,6.9669,6.9684,6.9738,6.9863,6.9863,6.9446,6.8722,6.8722,6.8305,6.7585,6.6723,6.6277,6.6021,6.5225,6.4846,6.4581,6.3098,6.2054,6.1293,6.0419,0.0,0.0,6.0114,6.008,6.0084,6.0091,6.0095,6.0091,6.0084,6.008,6.008,6.008,6.008,6.0084,6.0091,6.0186,6.0272,6.0272,6.0334,6.012,5.9231,5.9102,5.9115,5.9064,5.9078,5.8852,5.8255,5.9372,5.97,5.8137,5.9097,5.9052,5.6766,0.0,0.0,5.5465,5.4525,5.3604,5.2716,5.1082,4.9175,4.7032,4.7032,4.7032,4.6918,4.7165,4.841,5.0659,5.0128,5.0681,5.2041,4.6615,4.5742,0.0,0.0,0.0,0.0,0.0,0.0,0.0,0.0,0.0,0.0,0.0,0.0,0.0,0.0,0.0,5.6375,5.9444,6.1833,6.3041,6.3799,6.4266,6.4355,6.511,6.5677,6.5847,6.7083,6.7908,6.8097,6.888,6.9287,6.9195,6.934,6.9406,6.9262,6.93,6.93,6.93,6.9368,6.9469,6.9452,0.0,0.0,6.9652,6.9652,6.9572,6.9421,6.9421,6.9307,6.9124,6.8337,6.7278,6.6021,6.5225,6.4467,6.3818,6.3477,6.288,6.2067,6.1203,6.0912,6.0823,6.0207,6.0037,6.001,6.0076,6.0095,0.0,6.0018,6.0037,6.0037,6.0037,6.0037,6.0014,6.008,6.0106,6.0156,6.0156,6.0167,5.9915,5.9115,5.9443,5.9702,5.9036,5.8925,5.9134,5.9767,6.0014,5.9752,5.8741,5.8874,5.857,5.7328,5.6808,5.6438,5.611,5.4808,5.3356,5.1849,5.0221,4.9407,4.9557,5.0242,5.0277,4.9592,5.0949,5.163,5.1546,5.2785,5.3606,5.3933,5.1397,5.0584,0.0,0.0,0.0,0.0,0.0,0.0,0.0,0.0,0.0,0.0,0.0,4.8544,5.1054,0.0,5.6853,5.9678,6.1567,6.2895,6.366,6.4096,6.4403,6.4506,6.5231,6.5929,6.6388,6.7522,6.8364,6.8821,6.9179,6.9385,6.9289,6.9289,6.9257,6.9192,6.9187,6.9187,6.9187,6.9252,6.9321,6.9384,6.9479,6.9536,6.9587,6.9587,6.9587,6.9587,6.9587,6.9587,6.9554,6.8731,6.742,6.5908,6.5525,6.4908,6.4197,6.3743,6.3364,6.2871,6.2042,6.1481,6.1035,6.0659,6.0295,5.9962,6.0002,6.0013,6.0005,5.9966,5.9954,5.9954,5.9954,5.9954,5.9966,6.0005,6.0045,6.0034,6.0034,6.0064,5.9981,5.9562,5.9794,5.9931,5.9555,5.9422,5.9562,6.0136,6.0122,5.9756,5.8923,5.9109,5.8838,5.7543,5.7081,5.6706,5.6329,5.4905,5.3655,5.2819,5.1625,5.1126,5.1544,5.1964,5.2002,5.1547,5.2417,5.2886,5.2994,5.4313,5.5217,5.5701,5.5302,5.4921,0.0,0.0,0.0,0.0,0.0,0.0,0.0,0.0,4.5843,4.7665,5.0551,5.3598,5.6424,5.8241,6.0221,6.2941,6.3421,6.3622,6.4229,6.4294,6.4324,6.4361,6.5279,6.6254,6.7201,6.7921,6.8584,6.931,6.9402,6.9455,6.9455,6.96,6.9675,6.9675,6.9675,6.9605,6.9455,6.9455,6.9434,6.9347,6.9347,6.9432,6.952,6.952,6.952,6.952,6.952,6.9536,6.9481,6.8603,6.7477,6.6242,6.594,6.5512,6.4978,6.4107,6.3804,6.369,6.2853,6.2104,6.1469,6.1183,6.0623,6.0096,5.9923,5.9893,5.9893,5.9893,5.9893,5.9893,5.9893,5.9893,5.9893,5.9893,5.9946,5.999,5.999,6.0003,6.0049,6.0049,6.0037,6.0013,6.0038,5.9982,5.9946,6.0049,6.0003,5.9762,5.9082,5.9517,5.9397,5.8032,5.7577,5.7039,5.6135,5.4777,5.4058,5.4227,5.3343,5.2884,5.3037,5.3037,5.3037,5.3037,5.3228,5.3682,5.4435,5.5325,5.6122,5.693,5.7664,5.7791,3.8282,3.861,3.9737,4.3584,4.4147,4.5494,0.0,0.0,5.3559,5.5935,5.7978,5.966,6.0737,6.1795,6.2877,6.4009,6.4197,6.4192,6.4294,6.4294,6.4299,6.4309,6.5704,6.6982,6.7813,6.8618,6.9133,6.9209,6.9922,7.0367,7.0367,7.1038,7.1407,7.1407,7.1407,7.1075,7.0367,7.0367,6.996,6.9209,6.9209,6.9219,6.923,6.923,6.923,6.923,6.923,6.9294,6.9367,6.8491,6.809,6.7874,6.6393,6.5761,6.5596,6.4775,6.4478,6.4365,6.3492,6.3148,6.2822,6.1475,6.0934,6.0762,6.0096,5.9893,5.9893,5.9893,5.9893,5.9893,5.9893,5.9893,5.9893,5.9893,5.9902,5.991,5.991,5.9914,5.9922,5.9922,5.9914,5.991,5.9922,5.9906,5.9926,6.0013,5.9958,5.9868,5.9796,5.9864,5.9818,5.9628,5.8297,5.6774,5.5262,5.4386,5.4233,5.5031,5.3652,5.3152,5.3913,5.3951,5.3951,5.3951,5.4712,5.5164,5.5268,5.6125,5.6697,5.6891,5.7012,5.7466,4.4172,4.5187,0.0,0.0,5.0427,5.2079,5.5216,5.6414,5.7468,5.9547,6.0915,6.1992,6.2772,6.3679,6.4394,0.0,6.5223,6.5368,6.4886,6.4812,6.4812,6.4812,6.5453,6.6256,6.7208,6.8447,6.9418,6.9911,7.0292,7.0705,7.115,7.152,7.1708,7.1708,7.1708,7.152,7.1188,7.1188,7.1038,7.0657,7.0657,7.0657,7.0657,7.0174,6.9686,6.9187,6.9187,6.9219,6.9273,6.8892,6.8505,6.8068,6.7343,6.6478,6.5552,6.485,6.4601,6.4558,6.4181,6.3724,6.32,6.2557,6.2004,6.1594,6.126,6.09,6.0526,6.0526,6.0227,5.9893,5.9893,5.9893,5.9893,5.9893,5.9893,5.9893,5.9893,5.9893,5.9893,5.9893,5.9893,5.9893,5.9893,5.9893,5.9906,5.9942,5.9914,5.9893,5.9893,5.9893,5.9704,5.9249,5.8567,5.7479,5.5841,5.5455,5.523,5.5157,5.4545,5.4409,5.4826,5.4865,5.5097,5.5559,5.5438,5.5642,5.6094,5.6483,5.6746,5.6875,5.787,5.8608,4.8291,0.0,0.0,5.3158,5.5312,5.7041,5.7302,5.8662,6.0204,6.1507,6.2417,6.3265,6.4043,6.4934,6.5527,6.5527,6.6194,6.6456,6.5639,6.534,6.5196,6.5196,6.5196,6.5523,6.6293,6.7793,6.9212,7.0305,7.0605,7.1055,7.1868,7.2131,7.2298,7.2338,7.2338,7.2243,7.2014,7.2014,7.1939,7.1708,7.1708,7.1708,7.167,7.1113,7.0362,6.9568,6.9568,6.9418,6.9187,6.9187,6.8854,6.8297,6.8077,6.7138,6.5769,6.5097,6.4704,6.4515,6.4515,6.4096,6.3531,6.3328,6.288,6.2357,6.2159,6.1727,6.1298,6.1328,6.0934,6.0505,6.0264,6.042,6.0534,6.0273,6.042,6.0572,6.0572,6.0572,6.0572,6.0572,6.0386,6.031,6.0534,6.0386,6.031,6.0534,6.0572,6.042,5.9969,5.9893,5.959,5.8794,5.8718,5.8036,5.6326,5.625,5.594,5.5119,5.5157,5.5228,5.5332,5.5336,5.5651,5.6247,5.5705,5.5705,5.6285,5.6336,5.6358,5.6461,5.7984,5.885,0.0,0.0,5.3121,5.5577,5.743,5.8841,5.9621,6.107,6.2301,6.2376,6.3107,6.4014,6.4828,6.5743,6.6343,6.6343,6.7048,6.7272,6.6493,6.5677,6.5196,6.5196,6.5196,6.5196,0.0,6.6691,6.8323,6.9998,7.0832,7.1617,7.2432,7.3292,7.3807,7.394,7.3946,7.3587,7.2883,7.2845,7.247,7.1708,7.1708,7.1708,7.1708,7.167,7.1225,7.0448,7.0448,6.9986,6.9187,6.9187,6.9187,6.908,6.8297,6.7481,6.6665,6.5791,6.497,6.4304,6.4304,6.4304,6.4169,6.3425,6.3186,6.3017,6.2324,6.2092,6.2077,6.2142,6.2135,6.1968,6.1233,6.1705,6.2117,6.1254,6.1705,6.2303,6.2303,6.2303,6.2303,6.2303,6.1629,6.133,6.2193,6.1629,6.1368,6.2189,6.2303,6.1738,6.0121,5.9893,5.959,5.8794,5.8718,5.8036,5.6326,5.625,5.5915,5.5041,5.5078,5.5116,5.519,5.5193,5.53,5.5435,5.54,5.54,5.5435,5.5438,5.5435,5.5465,5.6419,5.7367,0.0,0.0,5.7244,5.9733,6.0736,6.1362,6.2179,6.2773,6.3182,6.3182,6.3035,6.2951,6.3212,6.3989,6.4538,6.4538,6.5692,6.6319,6.5463,6.5096,6.4724,6.4203,6.4128,0.0,0.0,0.0,0.0,6.9226,7.0527,7.1685,7.2501,7.336,7.3565,7.3097,7.31,7.2747,7.1969,7.2049,7.1971,7.1708,7.1708,7.1413,7.0893,7.0893,7.0743,7.0485,7.0485,7.063,7.0844,7.0844,7.0844,7.0769,6.9954,6.8796,6.7519,6.6655,6.5496,6.4294,6.4294,6.4294,6.4262,6.4029,6.3926,6.3893,6.3627,6.3224,6.2824,6.2862,6.2557,6.214,6.191,6.2108,6.234,6.2042,6.2193,6.2416,6.2416,6.2416,6.2416,6.2416,6.2151,6.2042,6.234,6.2151,6.1852,6.1591,6.2042,6.2004,6.0841,6.0689,6.0386,5.959,5.9514,5.9059,5.796,5.787,5.7302,5.5949,5.5864,5.5708,5.5225,5.519,5.5529,5.6167,5.5667,5.5934,5.7046,5.6473,5.6508,5.7149,5.7982,5.8629,0.0,5.926,6.042,6.2621,6.3188,6.3274,6.3542,6.3368,6.3182,6.3182,6.203,6.1182,6.1436,6.1696,6.203,6.2667,6.3893,6.4779,6.4816,6.4556,6.4296,6.4073,6.3776,6.3813,0.0,0.0,0.0,6.8682,6.9981,7.1093,7.195,7.2466,7.2534,7.2067,7.2102,7.1906,7.143,7.1505,7.1545,7.1545,7.1545,7.1306,7.0863,7.0863,7.0741,7.0485,7.0485,7.063,7.0807,7.0807,7.0807,7.0769,7.0249,6.9015,6.7519,6.6998,6.5726,6.4294,6.4294,6.4294,6.4294,6.4294,6.4294,6.4257,6.3956,6.3728,6.3556,6.3257,6.3125,6.2998,6.2732,6.2996,6.3212,6.2909,6.306,6.3288,6.3288,6.3288,6.3288,6.3288,6.3023,6.2947,6.325,6.3288,6.3103,6.2543,6.2686,6.2307,6.0875,6.0652,6.0462,5.9969,5.9893,5.9552,5.8756,5.8718,5.8131,5.6782,5.6706,5.6347,5.5639,5.5632,5.5794,5.6096,5.5657,5.5934,5.7008,5.6434,5.6613,5.7538,5.8368,5.8975,6.0297,6.1608,6.2629,6.4311,6.468,6.4456,6.3731,6.2948,6.2322,6.2173,6.0285,5.8799,0.0,0.0,5.9027,6.0587,6.159,6.2779,6.4333,6.3962,6.3813,0.0,0.0,0.0,0.0,0.0,0.0,6.8271,0.0,7.001,7.079,7.0864,7.0927,7.1032,7.1044,7.1068,7.1188,7.1156,7.1162,7.1162,7.1162,7.1221,7.1375,7.1375,7.1026,7.0469,7.0474,7.0056,6.9332,6.9337,6.9337,6.93,6.9262,6.8259,6.6853,6.6816,6.5726,6.4294,6.4294,6.4294,6.4294,6.4294,6.4294,6.4144,6.3383,6.3688,6.4164,6.3435,6.3917,6.4431,6.3734,6.4207,6.4694,6.3856,6.4311,6.496,6.4922,6.4922,6.496,6.4922,6.4235,6.3932,6.477,6.4884,6.4884,6.477,6.4084,6.2686,6.0344,6.0007,5.9931,5.9893,5.9893,5.959,5.8832,5.8756,5.8377,5.7539,5.7463,5.7119,5.6329,5.6371,5.6027,5.5228,5.5329,5.5435,5.5511,5.5511,5.5976,5.6823,5.773,5.8563,6.2832,6.4531,6.5681,6.6186,6.5823,6.4979,6.3604,6.2766,6.1575,5.9085,5.819,5.6947,0.0,0.0,0.0,5.5721,5.7913,0.0,6.1028,6.203,0.0,6.2996,0.0,6.359,6.359,6.4519,0.0,0.0,6.8568,6.9787,7.001,7.0567,7.0623,7.0066,7.0164,6.9933,6.9372,6.9466,6.9513,6.9513,6.9513,6.953,6.9559,6.9559,6.9806,7.0221,7.0312,7.0571,7.0903,7.103,7.107,7.0994,7.0399,6.9166,6.7631,6.7036,6.5726,6.4294,6.4294,6.4294,6.4294,6.4294,6.4294,6.4257,6.4069,6.4144,6.4262,6.4066,6.4311,6.4568,6.4365,6.4612,6.4846,6.4614,6.5187,6.5642,6.5036,6.5377,6.5604,6.5036,6.4732,6.4657,6.4846,6.4884,6.4467,6.3212,6.2833,6.2492,6.1852,6.1216,6.0576,5.9969,5.9893,5.9818,5.9628,5.959,5.9249,5.8415,5.8377,5.7768,5.6367,5.6371,5.6027,5.5228,5.5329,5.6011,5.7275,5.7275,5.8004,5.9422,5.9668,5.9972,6.5721,6.7274,6.8103,6.7475,6.6726,6.5373,6.2739,6.1328,5.9641,5.6381,5.4941,0.0,5.0785,5.1115,0.0,0.0,0.0,0.0,5.8581,5.995,6.1182,0.0,6.2816,0.0,6.3553,6.4668,6.5559,0.0,6.7676,6.8791,6.9162,6.9602,6.9639,6.9199,6.9266,6.908,6.8602,6.8674,6.8709,6.8709,6.8709,6.8776,6.8791,6.8791,6.9087,6.9599,0.0,6.995,7.0407,7.0475,7.0531,7.0544,7.0099,6.9123,6.7889,6.7111,6.5947,6.4777,6.4407,6.4294,6.4294,6.4294,6.4294,6.4219,6.3876,6.4026,6.4219,6.3876,6.414,6.4539,6.4587,6.4713,6.484,6.4875,6.549,6.5869,6.5073,6.5528,6.5869,6.5073,6.4884,6.4884,6.4884,6.4884,6.4581,6.3629,6.2871,6.2416,6.2416,6.1326,6.0386,5.9931,5.9893,5.9893,5.9893,5.9893,5.9704,5.9249,5.9211,5.8473,5.6846,5.6882,5.6546,5.5749,5.585,5.6396,5.7317,5.7695,5.8386,5.9307,5.9647,6.0105,6.8598,6.9743,6.988,6.8416,6.7351,6.5629,6.1665,5.9346,5.7064,5.3723,0.0,4.9294,4.8291,4.7701,4.7887,4.9369,0.0,5.3566,5.6724,5.813,5.969,6.1962,6.2445,6.2816,6.3516,6.5008,6.5974,6.6085,6.6865,6.7639,6.8456,6.8493,6.8493,6.8493,6.8493,6.8493,6.8493,6.8493,6.8493,6.8493,6.8493,6.8554,6.8662,6.8662,6.8758,6.8863,6.8881,6.8918,6.8988,6.9005,6.9083,6.9187,6.9187,6.8635,6.7739,6.7073,6.6167,6.5223,6.4552,6.4294,6.4294,6.4294,6.4294,6.4182,6.3463,6.3764,6.4144,6.3458,6.3795,6.442,6.4572,6.4638,6.4777,6.5013,6.568,6.6097,6.5377,6.5794,6.6021,6.5225,6.5073,6.5036,6.4922,6.4884,6.4846,6.4732,6.3402,6.2378,6.2227,6.0871,5.9893,5.9893,5.9893,5.9893,5.9893,5.9893,5.9893,5.9893,5.9893,5.9211,5.7653,5.7685,5.7385,5.6563,5.666,5.681,5.6934,5.7699,5.8116,5.8234,5.8953,5.975,7.0426,7.0977,7.069,6.9102,6.761,6.5513,6.1536,5.7905,0.0,0.0,4.8297,4.6475,4.4246,4.4882,4.6034,4.6958,4.9633,5.2489,5.5085,5.787,6.0104,0.0,0.0,0.0,0.0,0.0,0.0,0.0,6.6865,6.7639,6.8456,6.8493,6.8493,6.8493,6.8493,6.8493,6.8493,6.8493,6.8493,6.8493,6.8493,6.8506,6.8524,6.8524,6.8536,6.8566,6.8674,0.0,6.8912,6.8971,6.9083,6.9187,6.9187,6.8297,6.6998,6.6848,6.5834,6.4482,6.4369,6.4294,6.4294,6.4294,6.4294,6.4257,6.4144,6.4182,6.4257,6.4144,6.4246,6.442,6.4572,6.4638,6.489,6.5695,6.6556,6.7125,6.7011,6.7087,6.6935,6.6059,6.5907,6.568,6.4998,6.4884,6.4657,6.3932,6.3023,6.2155,6.1406,6.05,5.9893,5.9893,5.9893,5.9893,5.9893,5.9893,5.9893,5.9893,5.9893,5.9476,5.8529,5.8543,5.8205,5.7396,5.7485,5.7902,5.8682,5.8835,5.9262,5.9957,6.0109,6.0304,7.1497,7.1938,7.1534,6.9926,6.7687,6.4623,5.9766,0.0,0.0,0.0,4.537,4.3953,4.191,4.2876,0.0,4.5064,4.7961,5.1119,5.3975,5.683,0.0,6.0996,6.2259,6.3293,0.0,0.0,0.0,6.6673,6.7453,6.8085,6.8493,6.8493,6.8493,6.8493,6.8493,6.8493,6.8493,6.8493,6.8493,6.8493,6.8493,6.8493,6.8493,6.8493,6.8493,6.85,6.8632,0.0,6.8921,6.896,6.9083,6.9187,6.9187,6.8484,6.7369,6.6961,6.5984,6.4923,6.4923,6.4665,6.4444,6.5313,6.5008,6.4294,6.4294,6.4294,6.4407,6.4815,6.4662,6.4459,6.5019,6.52,6.5417,6.5921,6.6742,6.7504,6.7921,6.7693,6.7125,6.6286,6.6097,6.5831,6.5036,6.4884,6.477,6.4349,6.3553,6.2871,6.2458,6.1292,6.0348,5.9931,5.9893,5.9893,5.9893,5.9893,5.9893,5.9893,5.9893,5.9552,5.8718,5.8759,5.8646,5.8272,5.8344,5.8609,5.9102,5.9564,5.9759,5.972,6.0182,6.0453,7.2275,7.2642,7.2121,7.0513,6.7554,6.3633,5.8176,5.3458,0.0,0.0,4.2789,4.1687,4.0613,4.143,4.2727,0.0,4.6735,4.9852,5.3306,5.6092,5.8618,0.0,6.2222,0.0,6.4668,6.5745,0.0,6.7237,6.8048,6.8493,6.8493,6.8493,6.8493,6.8493,6.8493,6.8493,6.8493,6.8493,6.8493,6.8493,6.8493,6.8493,6.8493,6.8493,6.8493,6.85,6.8602,0.0,0.0,6.8975,6.9061,6.9187,6.9187,6.8704,6.7926,6.7299,6.6505,6.5786,6.5786,6.5378,6.5045,6.6365,6.5689,6.4332,6.4515,6.4552,6.4702,6.533,6.5191,6.4996,6.5773,6.6013,6.6105,6.6451,6.724,6.8115,6.8754,6.8375,6.7617,6.6589,6.6362,6.6059,6.5073,6.4884,6.4884,6.4884,6.4159,6.3591,6.3591,6.2311,6.114,6.0496,6.0121,5.9969,6.0159,6.0159,6.0159,6.0159,6.0159,5.978,5.8984,5.9009,5.9087,5.9143,5.9203,5.9282,5.9373,6.0068,6.0068,5.9411,6.0068,6.0446,7.2943,7.3046,7.2121,7.0513,6.7186,6.3021,5.8172,0.0,0.0,4.358,4.1048,3.9643,4.0278,4.0501,0.0,0.0,0.0,4.922,5.3232,5.6575,5.925,6.0996,0.0,0.0,6.4779,6.6265,6.7237,6.7305,6.8048,6.8493,6.8493,6.8493,6.8493,6.8493,6.8493,6.8493,6.8493,6.8493,6.8493,6.8493,6.8493,6.8493,6.8493,6.8493,6.8493,6.8493,6.8506,0.0,0.0,6.8921,6.9026,6.9187,6.9187,6.8704,6.8002,6.7926,6.7369,6.6665,6.6665,6.6623,6.659,6.6741,6.5689,6.4439,6.5185,6.5406,6.5406,6.5481,6.6017,6.6611,6.6741,6.6771,6.7063,6.8029,6.8991,6.9707,6.9745,6.9707,6.9214,6.7579,6.7276,6.6783,6.5187,6.4884,6.4884,6.4884,6.4159,6.3591,6.3591,6.2833,6.2265,6.2189,6.0799,6.0197,6.0917,6.0993,6.0993,6.0993,6.0993,6.0614,5.9818,5.9788,5.9864,5.9977,5.9988,6.0108,6.0262,6.0377,6.0377,6.0262,6.0377,6.038,7.0734,7.1644,7.1519,7.0478,6.7185,6.2836,5.7665,0.0,4.6453,4.2816,4.0494,3.9197,3.9569,4.0055,4.1319,0.0,0.0,0.0,5.3864,5.6942,5.9505,6.1664,6.3628,0.0,0.0,0.0,6.7491,6.7973,6.8308,6.8493,6.8493,6.8493,6.8493,6.8493,6.8493,6.8493,6.8493,6.8493,6.8493,6.8493,6.8493,6.8493,6.8493,6.8493,6.8493,6.8493,6.8578,0.0,0.0,6.8918,6.8999,6.9088,6.916,6.8704,6.8002,6.8002,6.7481,6.6853,6.7336,6.7224,6.6966,6.7926,6.7143,6.5872,6.621,6.5936,6.5593,6.6129,6.6548,6.6821,6.682,6.7257,6.7924,6.8974,6.9511,6.9787,6.9887,6.9896,6.9555,6.8337,6.811,6.7579,6.5907,6.5604,6.5452,6.496,6.4619,6.4387,6.4387,6.3629,6.3136,6.3136,6.2075,6.1515,6.1856,6.189,6.189,6.189,6.1406,6.0955,6.0652,6.0207,5.9979,6.0091,6.0178,6.0297,6.0415,6.0415,6.0415,6.0415,6.0415,6.0415,6.7797,6.9626,7.0351,6.9442,6.6366,6.2153,0.0,0.0,4.6116,4.2343,4.0239,3.9081,3.9081,3.9571,4.0877,4.3574,0.0,4.915,5.4272,5.7132,5.9616,6.211,0.0,6.5411,0.0,6.7051,6.7899,6.8456,6.8493,6.8493,6.8493,6.8493,6.8493,6.8493,6.8493,6.8493,6.8493,6.8493,6.8493,6.8493,6.8493,6.8493,6.8493,6.8493,6.8493,6.85,6.859,0.0,0.0,6.8835,6.8926,6.8966,6.905,6.8751,6.8269,6.8269,6.79,6.7498,6.8087,6.7911,6.7659,6.8806,6.8259,6.7186,6.7444,6.6913,6.6387,6.6993,6.7331,6.7519,6.7519,6.8016,6.8743,6.9423,6.964,6.9689,6.9834,6.9853,6.9598,6.875,6.8603,6.8148,6.6741,6.6476,6.6277,6.5677,6.5397,6.5254,6.5223,6.4483,6.397,6.397,6.3477,6.3023,6.2795,6.2757,6.2757,6.2757,6.1966,6.1477,6.1477,6.0539,6.0166,6.0472,6.036,6.033,6.0415,6.0415,6.0415,6.0415,6.0415,6.0415,6.445,6.7093,6.8558,6.7094,6.4365,6.0771,0.0,0.0,4.5559,4.2171,4.0185,3.8993,3.8993,3.8993,4.01,4.3451,4.5398,4.8519,5.4193,5.7132,5.9616,0.0,0.0,6.6085,6.6085,6.7565,6.8493,6.8493,6.8493,0.0,6.8493,6.8493,6.8493,6.8493,6.8493,6.8493,6.8493,6.8493,6.8493,6.8493,6.8493,6.8493,6.8493,6.8493,6.8493,6.8493,6.8493,0.0,0.0,6.8691,6.8762,6.8915,6.8915,6.8915,6.8878,6.8878,6.8878,6.8895,6.8971,6.8973,6.8995,6.9149,6.8667,6.8146,6.893,6.8597,6.7964,6.7964,6.8554,6.9187,6.9187,6.9284,6.9384,6.9389,6.951,6.9622,6.9684,6.9709,6.9468,6.8736,6.8603,6.8337,6.7542,6.739,6.7358,6.7217,6.6563,6.6061,6.5997,6.5352,6.4884,6.4884,6.4884,6.4505,6.3667,6.3591,6.3591,6.3591,6.2833,6.2378,6.2378,6.0835,6.0432,6.1385,6.0665,6.033,6.0415,6.0415,6.0415,6.0415,6.0415,6.0415,5.7929,6.0063,6.1305,6.0314,5.8926,5.672,5.2412,4.8789,4.5378,4.2144,4.0145,3.8953,3.906,3.9032,4.01,4.3451,4.5398,4.8481,0.0,0.0,0.0,6.211,6.4599,6.6531,0.0,0.0,6.8493,6.8493,6.8493,6.8493,6.8493,6.8493,6.8493,6.8493,6.8493,6.8493,6.8493,6.8493,6.8493,6.8493,6.8493,6.8493,6.8493,6.8493,6.8493,6.8493,6.8493,6.8518,0.0,6.865,6.8709,6.8756,6.8875,6.891,6.891,6.891,6.891,6.8915,6.8918,6.8943,6.9016,6.9055,6.8934,6.8854,6.9117,6.8635,6.8114,6.8672,6.8597,6.8522,6.908,6.9219,6.9273,6.9363,6.9416,6.9505,6.9612,6.9659,6.9638,6.9407,6.9432,6.9214,6.8375,6.8224,6.8025,6.7424,6.6647,6.6083,6.6056,6.5397,6.4884,6.4884,6.4884,6.477,6.4505,6.4501,6.4235,6.3629,6.3364,6.2985,6.2412,6.1939,6.1611,6.1385,6.1233,6.0899,6.0415,6.0415,6.0415,6.0415,6.0415,6.0683,5.2333,5.4742,5.6156,5.5759,5.4817,5.3135,4.9769,0.0,4.4128,4.151,3.9904,3.8957,3.9057,3.9028,4.01,4.3451,0.0,0.0,0.0,0.0,0.0,6.3373,0.0,0.0,0.0,6.8493,6.8493,6.8493,6.8493,6.8493,6.8493,6.8493,6.8493,6.8493,6.8493,6.8493,6.8493,6.8493,6.8493,6.8493,6.8493,6.8493,6.8493,6.8493,6.8493,6.8493,6.8493,6.8493,0.0,6.8578,6.8614,6.862,6.8703,6.8733,6.8733,6.8733,6.8733,6.8776,6.8823,6.8884,6.8954,6.8994,6.9088,6.9187,6.9187,6.8854,6.8554,6.908,6.8854,6.8559,6.9074,6.9187,6.9209,6.9294,6.9579,6.9761,6.9575,6.9803,6.9972,6.9715,6.9733,6.964,6.9067,6.9048,6.8883,6.8314,6.7566,6.7035,6.6998,6.627,6.5664,6.5356,6.5323,6.5171,6.4835,6.4866,6.4657,6.4122,6.3781,6.3515,6.3364,6.2812,6.2447,6.2336,6.2113,6.1776,6.1325,6.1325,6.1314,6.1328,6.1314,6.1593,0.0,5.0602,5.2464,5.2518,5.1391,4.9716,4.7543,0.0,0.0,4.0425,3.9497,3.9063,3.9296,3.9256,4.0318,0.0,0.0,0.0,0.0,5.7318,0.0,0.0,6.6085,0.0,6.8345,6.8493,6.8493,6.8493,6.8493,6.8493,6.8493,6.8493,6.8493,6.8493,6.8493,6.8493,6.8493,6.8493,6.8493,6.8493,6.8493,6.8493,6.8493,6.8493,6.8493,0.0,6.8493,6.8493,0.0,6.8493,6.8493,6.8493,6.8493,6.8493,6.8493,6.8493,6.8493,6.8512,6.8632,6.8756,6.8884,6.8971,6.9088,6.9187,6.9187,6.9187,6.9187,6.9187,6.9187,6.9187,6.9187,6.9187,6.9224,6.9262,6.9911,7.033,6.9686,7.0159,7.0492,6.9815,6.9733,6.974,6.9607,6.9794,6.99,6.9627,6.9085,6.8646,6.8518,6.7742,6.6943,6.6186,6.6111,6.5737,6.4876,6.4873,6.4884,6.4808,6.4122,6.4046,6.477,6.3415,6.3047,6.3893,6.3192,6.2856,6.2884,6.2881,6.2848,6.2826,6.2886,6.2919,4.1803,0.0,4.499,4.432,4.4308,4.4152,0.0,0.0,0.0,0.0,0.0,3.973,4.2336,4.1786,4.2624,0.0,0.0,0.0,5.5349,0.0,0.0,6.5751,6.6085,6.6716,6.8345,6.8493,6.8493,6.8493,6.8493,6.8493,6.8493,6.8493,6.8493,6.8493,6.8493,6.8493,6.8493,6.8493,6.8493,6.8493,6.8493,6.8493,6.8493,6.8493,6.8493,0.0,0.0,0.0,6.8493,6.8493,6.8493,6.8493,6.8493,6.8493,6.8493,6.8493,6.8493,6.8493,6.853,6.862,6.8768,6.8943,6.9088,6.9187,6.9187,6.9187,6.9187,6.9187,6.9187,6.9187,6.9187,6.9187,6.938,7.0029,7.0367,7.0604,7.1076,7.1411,7.1363,7.0535,7.0441,7.0324,6.9705,7.0226,7.0485,6.9788,6.9625,6.9356,6.8646,6.7846,6.7282,6.7088,6.705,6.6714,6.5838,6.5254,6.4619,6.3932,6.4349,6.4391,6.3932,6.4181,6.4196,6.3893,6.3242,6.287,6.2884,6.2867,6.2822,6.2897,6.2822,6.3218,3.902,4.1358,4.3639,4.3049,4.3254,4.3352,4.2451,0.0,0.0,0.0,0.0,0.0,4.2411,4.2466,0.0,0.0,5.0228,0.0,0.0,0.0,6.3739,6.5862,6.6419,6.7156,0.0,6.8493,6.8493,6.8493,6.8493,6.8493,6.8493,6.8493,6.8493,6.8493,6.8493,6.8493,6.8493,6.8493,6.8493,6.8493,6.8493,6.8493,6.8493,6.8493,6.8493,0.0,0.0,0.0,6.8493,6.8493,6.8493,6.8493,6.8493,6.8493,6.8493,6.8493,6.8493,6.8493,6.8493,6.8614,6.8803,6.8954,6.9088,6.9187,6.9187,6.9493,6.9718,6.93,6.975,7.0168,6.9412,6.975,7.0356,7.048,7.1049,7.1606,7.167,7.2064,7.2109,7.1282,7.1224,7.1137,7.0637,7.081,7.0932,7.0768,7.0254,6.9858,6.9745,6.8982,6.8305,6.7931,6.7548,6.698,6.6142,6.535,6.4694,6.424,6.4657,6.4694,6.4235,6.4657,6.4782,6.451,6.418,6.4016,6.4012,6.3974,6.3978,6.4012,6.3974,6.423,3.8755,4.2092,4.5389,4.4482,4.4567,4.4632,4.3728,0.0,0.0,0.0,0.0,0.0,0.0,0.0,0.0,0.0,0.0,0.0,5.9579,6.229,6.4376,6.5936,6.6822,0.0,6.8419,6.8493,6.8493,6.8493,6.8493,6.8493,6.8493,6.8493,6.8493,6.8493,6.8493,6.8493,6.8493,6.8493,6.8493,6.8493,6.8493,6.8493,6.8493,6.8493,6.8493,6.8493,0.0,0.0,6.8493,6.8493,6.8493,6.8493,6.8493,6.8493,6.8493,6.8493,6.8493,6.8493,6.8493,6.8662,6.8889,6.8954,6.9152,6.9418,6.9418,7.0099,7.0705,6.9831,7.0619,7.137,6.9938,7.0657,7.1563,7.1006,7.1907,7.2733,7.2201,7.2502,7.2658,7.1858,7.1791,7.1787,7.1574,7.1406,7.146,7.19,7.1078,7.0611,7.1199,7.0477,6.9633,6.8967,6.8021,6.7071,6.6276,6.5517,6.5036,6.4922,6.4884,6.4884,6.4884,6.4897,6.4984,6.5187,6.5268,6.5266,6.5266,6.5254,6.5338,6.5476,6.5464,6.5588,4.2147,4.563,4.7249,4.2922,4.3344,4.4615,4.3788,0.0,0.0,0.0,0.0,0.0,0.0,0.0,0.0,0.0,0.0,5.9393,0.0,0.0,6.5002,6.5974,0.0,6.7602,6.8419,6.8493,6.8493,6.8493,6.8493,6.8493,6.8493,6.8493,6.8493,6.8493,6.8493,6.8493,6.8493,6.8493,6.8493,6.8493,6.8493,6.8493,6.8493,6.8493,6.8493,6.8493,0.0,6.8493,6.8493,6.8493,6.8493,6.8493,6.8493,6.8493,6.8493,6.8493,6.8493,6.8493,6.8493,6.8662,6.8915,6.8895,6.9546,7.0292,7.0292,7.1343,7.2357,7.1558,7.1482,7.1633,7.137,7.152,7.1826,7.2395,7.2733,7.3071,7.3666,7.3328,7.2658,7.1858,7.1725,7.1505,7.0823,7.1847,7.2574,7.1987,7.2402,7.2593,7.2087,7.1292,7.075,7.0696,6.9304,6.8049,6.7253,6.6391,6.5642,6.4922,6.4884,6.4884,6.4884,6.4963,6.4985,6.501,6.5144,6.5228,6.5228,6.5107,6.5491,6.6323,6.625,6.6685,4.0017,4.3059,4.5284,4.4235,4.6769,4.9154,4.7803,0.0,0.0,0.0,0.0,0.0,0.0,0.0,5.0847,0.0,0.0,6.1182,6.281,6.4445,6.5819,0.0,0.0,6.8085,6.8456,6.8493,6.8493,6.8493,6.8493,6.8493,6.8493,6.8493,6.8493,6.8493,6.8493,6.8493,6.8493,6.8493,6.8493,6.8493,6.8493,6.8493,6.8493,6.8493,6.8493,6.8493,0.0,6.8493,6.8493,6.8493,6.8493,6.8493,6.8493,6.8493,6.8493,6.8493,6.8493,6.8506,6.8572,6.9025,6.9568,6.9631,7.0335,7.115,7.115,7.1982,7.2808,7.2464,7.269,7.2834,7.1933,7.2384,7.3027,7.2921,7.3258,7.3703,7.4116,7.3891,7.3478,7.3134,7.3059,7.2915,7.2539,7.2829,7.3132,7.3251,7.2892,7.2644,7.2767,7.2059,7.1426,7.1082,6.9952,6.8878,6.8105,6.7276,6.6253,6.4998,6.4884,6.4884,6.4884,6.4928,6.4976,6.4989,6.5074,6.512,6.5211,6.5534,6.5969,6.6475,6.6895,6.7364,3.8967,4.1215,4.3594,4.6116,0.0,5.2023,0.0,0.0,0.0,0.0,0.0,0.0,0.0,5.1805,0.0,5.8598,6.0699,6.2259,6.3665,6.5336,6.6605,6.7231,6.8011,6.8493,6.8493,6.8493,6.8493,6.8493,6.8493,6.8493,6.8493,6.8493,6.8493,6.8493,6.8493,6.8493,6.8493,6.8493,6.8493,6.8493,6.8493,6.8493,6.8493,6.8493,6.8493,6.8493,6.8493,6.8493,6.8493,6.8493,6.8493,6.8493,6.8493,6.8493,6.8493,6.8493,6.8512,6.8554,6.865,6.9357,7.0149,7.0048,7.0905,7.1939,7.1745,7.2389,7.3146,7.2958,7.3521,7.3891,7.2609,7.3103,7.3778,7.3296,7.3703,7.4191,7.4191,7.4041,7.3891,7.3891,7.3891,7.3891,7.3891,7.3596,7.3577,7.4265,7.3284,7.2784,7.3484,7.2623,7.1808,7.1343,7.0143,6.9128,6.8366,6.7731,6.6859,6.5566,6.549,6.5377,6.5187,6.5187,6.5109,6.4993,6.5145,6.5297,6.5411,6.6171,6.6711,6.6983,6.766,6.8138,4.3158,4.4201,4.4576,4.7639,0.0,0.0,0.0,0.0,0.0,0.0,0.0,0.0,0.0,5.6889,5.8635,6.0682,6.237,6.3739,6.4593,0.0,6.7231,6.7305,6.8011,6.8493,6.8493,6.8493,6.8493,6.8493,6.8493,6.8493,6.8493,6.8493,6.8493,6.8493,6.8493,6.8493,6.8493,6.8493,6.8493,6.8493,6.8493,6.8493,6.8493,6.8493,6.8493,6.8493,6.8493,6.8493,6.8493,6.8493,6.8493,6.8493,6.8493,6.8493,6.8493,6.8493,6.8572,6.8674,6.8685,6.9415,7.0145,6.9353,7.0792,7.2658,7.1933,7.284,7.3929,7.3146,7.3521,7.4154,7.4041,7.3516,7.3183,7.3929,7.4154,7.4191,7.4191,7.3559,7.2996,7.2996,7.2996,7.2996,7.2996,7.3634,7.4128,7.4203,7.4134,7.411,7.431,7.2918,7.1944,7.2089,7.0001,6.8305,6.7537,6.7428,6.7352,6.7238,6.7238,6.6859,6.6059,6.6021,6.5646,6.4931,6.5651,6.6034,6.6043,6.6911,6.7757,6.8611,6.8776,6.9281,3.976,4.2273,4.4488,4.6755,0.0,0.0,0.0,0.0,0.0,0.0,0.0,0.0,0.0,0.0,6.1209,6.2497,6.3628,6.4816,6.6153,6.6896,6.7491,6.7973,6.8308,6.8493,6.8493,6.8493,6.8493,6.8493,6.8493,6.8493,6.8493,6.8493,6.8493,6.8493,6.8493,6.8493,6.8493,6.8493,6.8493,6.8493,6.8493,6.8493,6.8493,6.8493,6.8493,6.8493,6.8493,6.8493,6.8493,6.8493,6.8493,6.8493,6.8493,6.8493,6.8506,6.8584,6.8644,6.8784,6.947,7.0301,7.1099,7.1323,7.2468,7.3559,7.269,7.2883,7.3334,7.2996,7.277,7.2765,7.3253,7.3559,7.3778,7.4116,7.4191,7.4191,7.4191,7.3929,7.3703,7.3703,7.3703,7.3703,7.3703,7.3966,7.4191,7.4191,7.4191,7.4021,7.3515,7.2975,7.2327,7.1429,7.0135,6.9247,6.8982,6.8949,6.8949,6.8949,6.7996,6.7238,6.6935,6.6897,6.6783,6.6442,6.6746,6.6897,6.6897,6.7731,6.8318,6.8701,6.929,7.0073,3.8683,4.1271,4.4088,0.0,0.0,0.0,0.0,0.0,0.0,0.0,0.0,0.0,0.0,0.0,0.0,0.0,6.5076,6.6005,6.7156,6.7528,6.7862,6.8419,6.8493,6.8493,6.8493,6.8493,6.8493,6.8493,6.8493,6.8493,6.8493,6.8493,6.8493,6.8493,6.8493,6.8493,6.8493,6.8493,6.8493,6.8493,6.8493,6.8493,6.8493,6.8493,6.8493,6.8493,6.8493,6.8493,6.8493,6.8493,6.8493,6.8493,6.8493,6.8518,6.8566,6.8656,6.8733,6.8906,6.9639,7.0473,7.1231,7.1616,7.2502,7.3253,7.2395,7.2507,7.2845,7.2583,7.2502,7.2539,7.2845,7.3334,7.3853,7.4116,7.4191,7.4191,7.4191,7.4191,7.4191,7.4191,7.4191,7.4191,7.4191,7.4191,7.4191,7.4191,7.3966,7.3553,7.2996,7.2763,7.2191,7.0909,7.0455,7.0161,6.9934,6.9896,6.9896,6.9896,6.8835,6.8077,6.7807,6.7769,6.7655,6.739,6.7655,6.7769,6.7769,6.8603,6.9024,6.9024,6.9696,7.0514,4.1286,4.2078,4.3503,0.0,0.0,0.0,0.0,0.0,0.0,0.0,0.0,0.0,0.0,0.0,0.0,6.5807,6.6791,6.7311,6.7305,6.8011,6.8493,6.8531,6.8531,6.8531,6.8493,6.8493,6.8493,6.8493,6.8493,6.8493,6.8493,6.8493,6.8493,6.8493,6.8493,6.8493,6.8493,6.8493,6.8493,6.8493,6.8493,6.8493,6.8493,6.8493,6.8493,6.8493,6.8493,6.8493,6.8493,6.8493,6.8493,6.8493,6.8493,6.8572,6.8685,6.8691,6.8843,6.9011,6.9011,6.9662,7.0367,6.9493,7.0356,7.1558,7.0743,7.1606,7.2733,7.1933,7.2909,7.4004,7.3146,7.2921,7.3146,7.4004,7.4191,7.4191,7.4191,7.4191,7.4191,7.4191,7.4191,7.4191,7.4191,7.4191,7.4191,7.4191,7.3446,7.2883,7.2889,7.2201,7.1464,7.0866,7.0914,7.0717,6.9962,6.9896,6.9896,6.9901,6.9896,6.9517,6.8641,6.8603,6.8224,6.7428,6.8224,6.8603,6.8603,6.9479,6.9901,6.9901,6.9999,7.0509,3.9244,4.2091,0.0,0.0,0.0,0.0,0.0,0.0,0.0,0.0,0.0,0.0,0.0,0.0,0.0,0.0,6.7602,6.8345,6.8902,6.9199,6.9571,7.0122,7.0196,6.9973,6.9385,6.9348,6.9125,6.8531,6.8493,6.8493,6.8493,6.8493,6.8493,6.8493,6.8493,6.8493,6.8493,6.8493,6.8493,6.8493,6.8493,6.8493,6.8493,6.8493,6.8493,6.8493,6.8493,6.8493,6.8493,6.8493,6.8493,6.8506,6.859,6.865,6.8709,6.8846,6.8954,6.9097,6.9791,7.0265,7.0555,7.085,7.1295,7.167,7.1413,7.1676,7.2126,7.2464,7.2883,7.3371,7.3703,7.3816,7.3891,7.4154,7.4191,7.4191,7.4191,7.4191,7.4191,7.4191,7.4191,7.4191,7.4191,7.4191,7.4004,7.3371,7.3071,7.2724,7.2276,7.198,7.1584,7.0877,7.0842,7.0801,7.0694,7.0093,7.0047,7.0687,7.0199,6.9782,6.9517,6.9517,6.9403,6.9176,6.9403,6.9517,6.9517,7.0351,7.073,7.0773,7.1442,7.2262,4.1315,4.4512,0.0,0.0,0.0,0.0,0.0,0.0,0.0,0.0,0.0,0.0,0.0,0.0,0.0,6.8816,6.9125,6.9608,7.0122,7.0196,7.0344,7.0827,7.0902,7.0567,6.9787,6.9713,6.9385,6.8568,6.8493,6.8493,6.8493,6.8445,6.8414,6.8414,6.8371,6.8371,6.8414,6.8414,6.8439,6.8493,6.8493,6.8493,6.8493,6.8493,6.8493,6.8493,6.8493,6.8493,6.8493,6.8493,6.8524,6.8578,6.8656,6.875,6.8812,6.896,6.9039,6.9169,6.9771,6.9986,7.0061,7.0544,7.0694,7.0694,7.0694,7.1182,7.1783,7.2277,7.2915,7.3553,7.4079,7.4191,7.4191,7.4191,7.4191,7.4191,7.4191,7.4191,7.4191,7.4191,7.4191,7.4191,7.4191,7.3891,7.3516,7.2996,7.2357,7.1929,7.184,7.155,7.1336,7.1223,7.0937,7.0817,7.0975,7.0195,6.9975,7.0574,7.0162,6.9896,6.9896,6.9896,6.9896,6.9896,6.9896,7.0048,7.0389,7.0844,7.1285,7.1665,7.2253,7.2856,4.5513,0.0,0.0,5.6164,5.8264,0.0,0.0,0.0,0.0,0.0,0.0,0.0,7.1572,7.0613,6.9971,7.0771,7.0902,7.0939,7.1019,7.1013,7.105,7.1131,7.1131,7.0796,7.0016,6.9868,6.949,6.8679,6.8531,6.8487,6.8475,6.8365,6.829,6.8278,6.8177,6.8177,6.8296,6.8296,6.8365,6.8493,6.8493,6.8493,6.8493,6.8493,6.8493,6.8493,6.8493,6.8493,6.8493,6.8493,6.8566,6.8668,6.8685,6.8832,6.8994,6.9011,6.9083,6.9187,6.9187,6.9187,6.9187,6.9187,6.9187,6.9224,6.93,7.0431,7.1708,7.1783,7.2952,7.4191,7.4191,7.4191,7.4191,7.4191,7.4191,7.4191,7.4191,7.4191,7.4191,7.4191,7.4191,7.4191,7.4191,7.3553,7.2958,7.2808,7.1494,7.0743,7.1488,7.1081,7.1007,7.182,7.1154,7.0836,7.1171,7.0289,6.9819,7.0119,6.9972,6.9896,6.9896,6.9896,6.9896,6.9896,6.9896,7.0275,7.0995,7.1071,7.1541,7.2396,7.2557,7.2746,4.3098,4.6306,0.0,0.0,6.1828,6.6118,6.963,7.0383,7.0813,7.2629,7.2693,7.2324,7.18,7.1537,7.1268,7.0957,7.0902,7.1131,7.1818,7.193,7.2159,7.2784,7.2859,7.2568,7.1744,7.1026,7.0307,6.9496,6.8865,6.8445,6.8346,6.8309,6.8252,6.8164,6.8139,6.8177,6.8296,6.8296,6.8365,6.8493,6.8493,6.8493,6.8493,6.8493,6.8493,6.8493,6.8493,6.8493,6.8493,6.8493,6.8512,6.8542,6.865,6.8779,6.8924,6.8977,6.9083,6.9187,6.9187,6.9187,6.9187,6.9187,6.9187,6.9343,7.0024,7.0925,7.182,7.2464,7.3403,7.4191,7.4191,7.4191,7.4191,7.4191,7.4191,7.4191,7.4191,7.4191,7.4191,7.4191,7.4191,7.4191,7.4191,7.4041,7.3478,7.2164,7.1118,7.056,7.0743,7.1719,7.2213,7.1785,7.1597,7.1809,7.273,7.0863,7.0274,7.1787,7.0621,6.9896,6.9896,6.9896,6.9896,6.9896,6.9896,6.9977,7.0166,7.0806,7.1276,7.1603,7.2941,7.369,4.3049,0.0,0.0,5.9053,0.0,6.7561,6.9667,6.9903,7.0203,7.195,7.2528,7.2648,7.2261,7.2226,7.223,7.2042,7.2,7.2174,7.271,7.2754,7.3051,7.3868,7.3645,7.3237,7.2828,7.162,7.0542,6.9675,6.8847,6.8346,6.8221,6.8151,6.8088,6.8023,6.7921,6.7984,6.8113,6.8177,6.8278,6.8402,6.8463,6.8493,6.8493,6.8493,6.8493,6.8493,6.8493,6.8493,6.8493,6.8493,6.853,6.859,6.8662,6.8762,6.8884,6.8947,6.9005,6.9105,6.9105,6.9143,6.9187,6.9187,6.9187,6.9375,7.0255,7.078,7.1375,7.2583,7.3221,7.3666,7.4079,7.4191,7.4191,7.4191,7.4191,7.4191,7.4191,7.4191,7.4191,7.4191,7.4191,7.4191,7.4191,7.3853,7.329,7.2427,7.1268,7.063,7.1006,7.1456,7.1757,7.1708,7.1708,7.1936,7.2574,7.147,7.1017,7.1675,7.0933,7.0465,7.0465,7.0086,6.9896,6.9896,6.9896,7.0086,7.047,7.0968,7.1655,7.2556,7.3529,7.4043,4.2567,0.0,5.3276,6.0964,6.4807,0.0,6.8826,6.9176,6.9506,7.0965,7.181,7.2392,7.2644,7.2709,7.2807,7.3152,7.3199,7.3252,7.3366,7.3254,7.3464,7.4275,7.3624,7.3165,7.3314,7.181,7.0497,6.9734,6.879,6.8215,6.8057,6.7978,6.7906,6.788,6.7761,6.7767,6.7913,6.7993,6.8158,6.8296,6.8432,6.8493,6.8493,6.8493,6.8493,6.8493,6.8493,6.8493,6.8493,6.8493,6.856,6.8656,6.8656,6.877,6.8881,6.8904,6.8947,6.9011,6.9033,6.9105,6.9187,6.9187,6.9187,6.9343,7.0061,7.048,7.0968,7.232,7.2883,7.3296,7.4004,7.4191,7.4191,7.4191,7.4191,7.4191,7.4191,7.4191,7.4191,7.4191,7.4191,7.4191,7.4191,7.3484,7.2883,7.2883,7.1644,7.0968,7.1595,7.1225,7.1156,7.1826,7.1901,7.2021,7.2325,7.2149,7.1855,7.1444,7.1359,7.1261,7.1109,7.0465,7.0048,6.9896,6.9896,7.0247,7.0911,7.1181,7.2043,7.3495,7.3915,7.4153,3.7736,0.0,5.4514,0.0,6.3514,6.6241,0.0,0.0,6.9325,0.0,7.0924,7.1724,7.2534,7.2709,7.2807,7.3152,7.3199,7.3252,7.3366,7.2694,7.251,7.3306,7.2526,7.223,7.2976,7.1521,7.051,7.0386,6.8989,6.8088,6.7945,6.7926,6.786,6.7734,6.7714,6.7767,6.7913,6.7932,6.8062,6.8296,6.8432,6.8493,6.8493,6.8493,6.8493,6.8493,6.8493,6.8493,6.8493,6.8493,6.8506,6.8518,6.8518,6.8602,6.8727,6.8869,6.8947,6.9027,6.9127,6.9176,6.9187,6.9187,6.9187,6.9224,6.9343,7.0394,7.1595,7.1788,7.2915,7.4041,7.4154,7.4191,7.4191,7.4191,7.4191,7.4191,7.4191,7.4191,7.4191,7.4191,7.4191,7.4191,7.4191,7.3484,7.2883,7.2883,7.2126,7.1595,7.1708,7.2201,7.262,7.2733,7.2733,7.3084,7.3998,7.2795,7.2341,7.314,7.2571,7.1872,7.1147,7.1,7.0616,6.9901,6.9896,6.9977,7.0136,7.091,7.1505,7.1942,7.3408,7.4153,4.0022,4.6213,5.241,0.0,6.2181,6.4169,6.6667,6.7436,6.7981,6.9162,6.9699,7.0374,7.1686,7.156,7.16,7.2729,7.261,7.2395,7.2431,7.2205,7.2266,7.298,7.2284,7.2206,7.355,7.1763,7.0468,7.0387,6.8882,6.7945,6.7807,6.7794,6.7767,6.77,6.77,6.7727,6.7794,6.7873,6.8043,6.8296,6.8432,6.8493,6.8493,6.8493,6.8493,6.8493,6.8493,6.8493,6.8493,6.8493,6.8493,6.8493,6.8493,6.853,6.859,6.8727,6.8849,6.8969,6.905,6.9132,6.9187,6.9187,6.9187,6.93,6.9798,7.0437,7.1231,7.2132,7.2915,7.3591,7.4079,7.4191,7.4191,7.4191,7.4191,7.4191,7.4191,7.4191,7.4191,7.4191,7.4191,7.4191,7.4191,7.3891,7.3634,7.3634,7.2915,7.2352,7.2352,7.2695,7.2883,7.2883,7.3334,7.3619,7.3564,7.3468,7.3409,7.3392,7.3174,7.2886,7.2502,7.2057,7.1417,7.0578,7.018,6.9961,7.0003,7.0986,7.1732,7.2273,7.3126,7.4014,0.0,0.0,4.796,5.5718,5.8949,6.1133,0.0,0.0,6.6329,0.0,6.8304,6.8781,7.0389,7.0367,7.0526,7.1878,7.1664,7.1354,7.1394,7.1326,7.1518,7.2209,7.1719,7.1765,7.3033,7.147,7.028,6.9988,6.8626,6.7814,6.7707,6.77,6.77,6.77,6.77,6.77,6.77,6.7659,6.7632,6.7667,6.8024,6.8196,6.8196,6.8419,6.8493,6.8493,6.8493,6.8493,6.8493,6.8493,6.8493,6.8493,6.8493,6.8493,6.8512,6.8638,6.8762,6.8889,6.8971,6.9088,6.9187,6.9187,6.9187,6.93,6.9986,7.048,7.1043,7.2245,7.2883,7.3371,7.4041,7.4191,7.4191,7.4191,7.4191,7.4191,7.4191,7.4191,7.4191,7.4191,7.4191,7.4191,7.4191,7.4191,7.4191,7.4191,7.3666,7.3221,7.3221,7.3221,7.3221,7.3221,7.3816,7.3946,7.3342,7.4022,7.4266,7.3705,7.384,7.3823,7.3596,7.3037,7.2213,7.1109,7.0602,7.0245,7.0039,7.1286,7.2103,7.2541,7.3064,7.3977,0.0,3.6794,0.0,4.7413,5.2521,5.6955,0.0,0.0,6.4684,6.6292,6.6623,6.7136,6.8745,6.9596,7.0158,7.0376,7.041,7.0434,7.0544,6.9794,6.956,7.0343,7.0294,7.0211,7.0284,7.0211,6.98,6.9015,6.8178,6.7707,6.77,6.77,6.77,6.77,6.77,6.77,6.77,6.7197,6.6612,6.5951,6.6905,6.7342,6.7379,6.8159,6.8493,6.8493,6.8493,6.8493,6.8493,6.8493,6.8493,6.8493,6.8493,6.8493,6.8512,6.8638,6.8762,6.8889,6.8971,6.9088,6.9187,6.9187,6.9187,6.9224,6.9262,7.0394,7.167,7.1745,7.2909,7.4154,7.4191,7.4191,7.4191,7.4191,7.4191,7.4191,7.4191,7.4191,7.4191,7.4191,7.4191,7.4191,7.4191,7.4191,7.4191,7.4191,7.4154,7.4116,7.4116,7.4116,7.4116,7.4116,7.4154,7.4243,7.4331,7.4443,7.4525,7.4605,7.4752,7.4467,7.3634,7.3558,7.2767,7.1147,7.1171,7.0889,7.0181,7.1822,7.2343,7.1794,7.3395,7.4197,0.0,0.0,0.0,4.4107,4.8665,5.2736,5.6239,5.9463,6.2181,6.379,6.4567,6.5308,6.6396,6.7687,6.8926,7.0002,6.9797,6.9513,6.9473,6.9249,6.9168,6.9391,6.9366,6.9522,7.0043,6.9633,6.9229,6.8928,6.8134,6.77,6.77,6.77,6.77,6.77,6.77,6.7484,6.7061,6.6437,6.6026,6.5803,6.6837,6.7305,6.7311,6.7602,6.8011,6.8456,6.7936,6.7713,6.7713,6.7713,6.7416,6.7014,6.7528,6.7713,6.7806,6.8458,6.8762,6.8889,6.8971,6.9088,6.9187,6.9187,6.9187,6.9187,6.9187,7.0356,7.1708,7.1708,7.2909,7.4191,7.4191,7.4191,7.4191,7.4191,7.4191,7.4191,7.4191,7.4191,7.4191,7.4191,7.4191,7.4191,7.4191,7.4191,7.4191,7.4191,7.4191,7.4191,7.4191,7.4191,7.4191,7.4191,7.4191,7.4243,7.438,7.4448,7.4563,7.4686,7.4833,7.4776,7.443,7.443,7.3904,7.2729,7.2764,7.1888,7.0096,7.1828,7.2613,7.2439,7.358,7.4455,3.205,0.0,0.0,0.0,4.4478,4.7486,5.3151,5.6084,5.8321,6.1031,6.2475,6.3582,6.4677,6.5999,6.7327,6.8685,6.8736,6.8579,6.8508,6.8325,6.8285,6.8471,6.8274,6.8421,6.9236,6.8568,6.8084,6.8084,6.7584,0.0,6.729,6.7554,6.759,6.729,6.7079,6.6613,6.5938,6.5515,6.5236,6.5053,6.6001,6.6599,6.6902,6.7193,6.7751,6.8456,6.7936,6.7565,6.7305,6.7305,6.6828,6.6159,6.6673,6.7045,6.7391,6.7995,6.848,6.8869,6.8952,6.9033,6.9138,6.9176,6.9187,6.9187,6.9187,7.0168,7.1338,7.1633,7.269,7.3816,7.4116,7.4191,7.4191,7.4191,7.4191,7.4191,7.4191,7.4191,7.4191,7.4191,7.4191,7.4191,7.4191,7.4191,7.4191,7.4191,7.4191,7.4191,7.4191,7.4191,7.4191,7.4191,7.4232,7.4312,7.443,7.4509,7.4611,7.4691,7.4833,7.4874,7.4838,7.4869,7.4505,7.3634,7.3596,7.2688,7.0792,7.203,7.2659,7.2796,7.3635,7.4528,0.0,0.0,0.0,0.0,3.9764,4.1328,5.1578,5.2789,5.312,5.7948,6.0193,6.1857,6.3619,6.464,6.5441,6.6256,6.707,6.7627,6.7627,6.696,6.6739,6.7554,6.696,6.6776,6.7554,6.696,6.6512,6.6512,6.6512,6.6512,6.6512,6.7217,6.7253,6.6476,6.5798,6.5127,6.4401,6.4521,6.4238,6.359,6.4408,6.5225,6.6085,6.6896,6.7676,6.8419,6.8419,6.7973,6.7231,6.7237,6.6785,6.6048,6.6048,6.6568,6.7268,6.7305,6.7909,6.8709,6.8869,6.8952,6.9033,6.9149,6.9187,6.9187,6.9187,6.9836,7.0705,7.1482,7.2314,7.3146,7.3966,7.4186,7.4186,7.4191,7.4191,7.4191,7.4191,7.4191,7.4191,7.4191,7.4191,7.4191,7.4191,7.4191,7.4191,7.4191,7.4191,7.4191,7.4191,7.4191,7.4191,7.4191,7.4312,7.443,7.4503,7.4622,7.4691,7.4696,7.4828,7.4838,7.4701,7.4833,7.4505,7.3634,7.3596,7.3222,7.2479,7.25,7.2595,7.2764,7.3563,7.4418,3.0508,0.0,0.0,0.0,0.0,0.0,4.1442,4.4133,4.7246,5.2118,5.3922,5.5873,5.9826,6.1704,6.2879,6.368,6.5038,6.5955,6.5955,6.5772,6.5698,6.5925,6.5772,6.5735,6.5925,6.6292,6.6512,0.0,6.7033,6.7106,6.6512,6.6145,6.5845,6.5625,6.4945,6.4525,6.4407,6.3941,6.3699,6.359,6.4408,6.4928,6.5188,6.6042,6.6568,6.6754,6.6754,6.6265,6.5559,6.6153,6.5602,6.4333,6.4928,6.5676,6.6494,6.7082,6.7968,6.8863,6.8898,6.9009,6.9143,6.9176,6.9187,6.9187,6.9187,7.0206,7.1413,7.1633,7.2727,7.3891,7.4154,7.4127,7.4086,7.4168,7.4191,7.4191,7.4191,7.4191,7.4191,7.4191,7.4191,7.4191,7.4191,7.4191,7.4191,7.4191,7.4191,7.4191,7.4191,7.4191,7.4191,7.4191,7.4312,7.443,7.4503,7.4541,7.4601,7.4691,7.4722,7.4728,7.4696,7.4833,7.4776,7.4543,7.3937,7.3785,7.4212,7.3593,7.3358,7.3502,7.441,7.5028,0.0,0.0,0.0,0.0,0.0,0.0,3.9342,4.1079,4.3392,4.8264,5.0435,5.2564,5.604,5.8284,5.9869,6.067,6.1912,6.3343,6.5074,6.5001,6.4928,6.5258,6.4664,6.4517,6.5215,6.5074,6.5258,6.5962,6.6115,6.6152,6.5999,6.5552,6.5167,6.4858,6.4137,6.3836,6.3968,6.3653,6.3528,6.359,6.4073,6.4482,6.4816,6.5336,6.5751,6.6085,6.6085,6.5596,6.4853,6.5336,6.4779,6.3665,6.411,6.5039,6.6159,6.6636,6.7623,6.8733,6.8875,6.8969,6.9098,6.9154,6.9187,6.9262,6.9643,7.0398,7.1254,7.1929,7.3056,7.4044,7.4104,7.4068,7.4044,7.4162,7.4191,7.4191,7.4191,7.4191,7.4191,7.4191,7.4191,7.4191,7.4191,7.4191,7.4191,7.4191,7.4191,7.4191,7.4191,7.4191,7.4191,7.4191,7.4352,7.4464,7.4443,7.453,7.4601,7.4617,7.4664,7.4696,7.4696,7.4833,7.4889,7.4889,7.4397,7.4392,7.4889,7.4013,7.382,7.4269,7.4909,7.5233,0.0,0.0,0.0,0.0,0.0,0.0,4.1266,4.1046,4.0965,4.5283,4.7929,5.0026,5.1893,5.4168,5.6009,5.6785,5.7917,6.0071,6.4187,6.4127,6.3943,6.4671,6.3453,6.316,6.4744,6.36,6.3453,6.5038,6.4494,6.4427,6.5148,6.5087,6.4741,6.4088,6.3535,6.3265,6.3388,6.3534,6.359,6.359,6.359,6.3962,6.4668,6.4779,6.5151,6.5825,6.5936,6.5491,6.4668,6.4668,6.4296,6.3739,6.3739,6.4748,6.6234,6.6234,6.7205,6.8548,6.8817,6.8898,6.8912,6.9137,6.916,6.9304,7.012,7.0294,7.0604,7.2225,7.3221,7.3783,7.3823,7.3934,7.4001,7.405,7.4116,7.4191,7.4191,7.4191,7.4191,7.4191,7.4191,7.4191,7.4191,7.4191,7.4191,7.4191,7.4191,7.4191,7.4191,7.4191,7.4191,7.4191,7.4359,7.4454,7.4397,7.4541,7.4617,7.4514,7.4617,7.468,7.4696,7.4833,7.4889,7.4889,7.4889,7.4889,7.4889,7.4126,7.4131,7.4915,7.5099,7.52,0.0,0.0,0.0,0.0,0.0,0.0,3.66,3.7367,3.9199,4.0149,4.0736,4.2135,4.5691,4.7815,4.9246,5.0063,5.3078,5.6743,6.078,6.1227,6.1184,6.1331,6.1074,6.1257,6.2224,6.2615,6.3239,6.4243,6.4206,6.417,6.4316,6.375,6.3383,6.326,6.3304,6.3359,6.3388,6.3534,6.359,6.359,6.359,6.3665,6.385,6.4519,6.4556,6.411,6.4779,6.4593,6.3813,6.3813,6.411,6.4556,6.4556,6.5596,6.7088,6.7088,6.7742,6.8656,6.8703,6.8828,6.8933,6.8999,6.8983,6.9001,6.9209,6.9682,7.0474,7.2164,7.3098,7.3516,7.3064,7.3405,7.3735,7.3256,7.3709,7.4191,7.4191,7.4191,7.4191,7.4191,7.4191,7.4191,7.4191,7.4191,7.4191,7.4191,7.4191,7.4191,7.4191,7.4191,7.4191,7.4191,7.4329,7.4414,7.4391,7.443,7.448,7.4509,7.4536,7.4595,7.4691,7.4833,7.4889,7.4889,7.4889,7.4889,7.4889,7.4738,7.4745,7.4987,7.5026,7.5133,0.0,0.0,0.0,4.3489,0.0,0.0,0.0,3.8652,3.9272,4.1287,4.041,4.0414,4.4039,4.5356,4.6053,4.6425,4.9953,5.3004,5.421,5.7152,5.9208,5.9208,5.9569,5.9973,6.0376,6.1147,6.1955,6.2775,6.3986,6.4379,6.3603,6.3591,6.3462,6.3194,6.3324,6.3388,6.3388,6.3482,6.3505,6.3505,6.3505,6.3539,6.359,6.4036,6.3999,6.3628,6.4036,6.4185,6.4185,6.3776,6.4333,6.5411,6.4965,6.5596,6.6748,6.7156,6.7867,6.8602,6.8662,6.8727,6.8803,6.8924,6.8924,6.8996,6.9438,7.0048,7.0768,7.1515,7.2001,7.2218,7.1969,7.2545,7.3139,7.2898,7.353,7.4191,7.4191,7.4191,7.4191,7.4191,7.4191,7.4191,7.4191,7.4191,7.4191,7.4191,7.4191,7.4191,7.4191,7.4191,7.4191,7.4191,7.4312,7.4363,7.4295,7.4352,7.4436,7.4503,7.4509,7.459,7.4802,7.4859,7.4889,7.4889,7.4889,7.4889,7.4889,7.4889,7.4945,7.4984,7.5085,7.5185,0.0,0.0,0.0,0.0,0.0,4.5309,0.0,0.0,0.0,4.3048,4.1479,4.0451,4.3085,4.342,4.3346,4.3525,4.6723,4.8705,4.7347,5.2192,5.6014,5.6314,5.7367,5.8126,5.8273,5.8872,5.9758,6.1043,6.2714,6.3437,6.2812,6.3591,6.3866,6.3413,6.3257,6.3263,6.3388,6.3263,6.3257,6.3388,6.3448,6.3505,6.359,6.359,6.359,6.359,6.359,6.3962,6.4519,6.3888,6.4408,6.5565,6.5188,6.5559,6.6419,6.7231,6.7936,6.8512,6.8614,6.865,6.8668,6.8834,6.8875,6.8987,6.9604,7.0273,7.0791,7.0698,7.0784,7.0883,7.0865,7.1597,7.2392,7.2534,7.327,7.4004,7.4154,7.4191,7.4191,7.4191,7.4191,7.4191,7.4191,7.4191,7.4191,7.4191,7.4191,7.4191,7.4191,7.4191,7.4191,7.4191,7.4289,7.4306,7.4197,7.4289,7.4397,7.4476,7.4498,7.4606,7.4848,7.4879,7.4889,7.4889,7.4889,7.4889,7.4889,7.491,7.498,7.5051,7.5195,7.5245,0.0,0.0,0.0,0.0,5.1206,0.0,0.0,0.0,4.3158,4.0006,0.0,3.8942,0.0,0.0,0.0,0.0,4.1585,4.3204,4.302,4.6058,4.8884,5.0288,5.2485,5.4168,5.4876,5.5023,5.6302,5.9269,5.851,5.9099,6.1787,6.2923,6.3464,6.3388,6.2817,6.2786,6.3388,6.2817,6.2817,6.3388,6.3522,6.3579,6.359,6.359,6.359,6.359,6.359,6.3665,6.3739,6.3628,6.3702,6.4036,6.5416,6.6456,6.7268,6.8085,6.8419,6.8493,6.8512,6.8518,6.8536,6.8668,6.8709,6.8723,6.869,6.9236,6.9862,6.9836,7.0357,7.076,7.0179,7.0755,7.1488,7.1612,7.2347,7.3258,7.4041,7.4191,7.4191,7.4191,7.4191,7.4191,7.4191,7.4191,7.4191,7.4191,7.4191,7.4191,7.4191,7.4191,7.4191,7.4191,7.4203,7.4209,7.4191,7.4203,7.4272,7.4397,7.4459,7.4574,7.4707,7.4838,7.4889,7.4889,7.4889,7.4889,7.4889,7.4952,7.5051,7.5185,7.5085,7.5114,0.0,0.0,0.0,0.0,0.0,0.0,0.0,0.0,4.3236,0.0,0.0,0.0,0.0,0.0,0.0,0.0,4.0744,4.1662,3.9761,4.2286,4.5108,4.7168,0.0,0.0,5.2155,5.2747,5.4148,5.6895,5.6614,5.7529,6.0381,6.1476,6.2268,6.2812,6.2565,6.2723,6.3388,6.3137,6.3137,6.3388,6.3471,6.3528,6.359,6.359,6.359,6.359,6.359,6.385,6.4259,6.3776,6.3888,6.4408,6.5639,6.6308,6.6754,6.8011,6.8493,6.8493,6.8493,6.8493,6.8506,6.856,6.8572,6.8566,6.8512,6.8753,6.8982,6.9013,6.9242,6.9434,6.9147,6.9853,7.0727,7.1239,7.2148,7.3132,7.3992,7.4191,7.4053,7.3556,7.3839,7.4041,7.3521,7.3853,7.4041,7.3521,7.3891,7.4004,7.3516,7.3891,7.4191,7.4191,7.4191,7.4191,7.4191,7.4191,7.4249,7.438,7.4454,7.4568,7.4691,7.4738,7.4828,7.4889,7.4889,7.4889,7.4889,7.4935,7.4977,7.508,7.5095,7.5147,5.7248,0.0,0.0,0.0,0.0,0.0,0.0,0.0,0.0,0.0,0.0,0.0,0.0,0.0,0.0,0.0,0.0,4.1258,0.0,3.9831,4.1952,4.3718,0.0,0.0,0.0,4.9701,5.0959,5.4038,5.3813,5.5117,5.8736,5.9835,6.0872,6.203,6.185,6.2055,6.2721,6.2786,6.2898,6.3054,6.3342,6.3511,6.359,6.359,6.359,6.359,6.359,6.3925,6.4445,6.385,6.3925,6.4593,6.5671,6.6085,6.6308,6.7899,6.8493,6.8493,6.8493,6.8493,6.8493,6.8493,6.8493,6.8493,6.8493,6.8493,6.8493,6.8493,6.8493,6.8568,6.8753,6.945,7.0337,7.1418,7.2259,7.3074,7.3986,7.4191,7.4015,7.3379,7.377,7.4004,7.3371,7.3778,7.4004,7.3334,7.3778,7.3966,7.3334,7.3816,7.4191,7.4191,7.4191,7.4191,7.4191,7.4191,7.4249,7.438,7.4454,7.4568,7.4691,7.4722,7.4812,7.4884,7.4889,7.4889,7.4889,7.4889,7.493,7.4977,7.5084,7.5133,0.0,0.0,0.0,5.2666,0.0,0.0,0.0,0.0,4.7237,0.0,0.0,0.0,0.0,0.0,0.0,0.0,0.0,0.0,0.0,0.0,3.8832,3.8905,0.0,0.0,0.0,4.5149,4.5778,0.0,4.8956,5.0564,5.6948,5.8243,5.9542,6.1182,6.0433,6.0342,6.1054,6.1201,6.1604,6.2239,6.3163,6.359,6.359,6.359,6.359,6.359,6.359,6.359,6.3628,6.359,6.3628,6.3813,6.5453,6.6085,6.6308,6.7899,6.8493,6.8493,6.8493,6.8493,6.8493,6.8493,6.8493,6.8493,6.8493,6.8493,6.8493,6.8493,6.8493,6.8679,6.9459,6.978,7.0361,7.2141,7.2635,7.2984,7.3975,7.4191,7.4191,7.4154,7.4191,7.4191,7.4154,7.4191,7.4191,7.4154,7.4191,7.4191,7.4154,7.4191,7.4191,7.4191,7.4191,7.4191,7.4191,7.4191,7.4249,7.438,7.4454,7.4568,7.4691,7.4828,7.4884,7.4889,7.4889,7.4889,7.4889,7.4889,7.4889,7.4895,7.49,7.496,0.0,0.0,6.1306,5.528,0.0,0.0,0.0,0.0,0.0,0.0,0.0,0.0,0.0,0.0,0.0,0.0,0.0,0.0,0.0,0.0,3.6476,3.7037,0.0,0.0,0.0,0.0,0.0,0.0,4.6948,0.0,5.4456,5.6185,5.7776,5.9505,5.977,6.0306,6.1127,6.1722,6.2125,6.2352,6.3202,6.359,6.359,6.359,6.359,6.359,6.359,6.359,6.359,6.359,6.3925,6.4519,6.5639,6.6419,6.7008,6.8085,6.8493,6.8493,6.8493,6.8493,6.8493,6.8493,6.8493,6.8493,6.8493,6.8493,6.8493,6.8493,6.8493,6.8679,6.9496,6.9811,7.0355,7.2178,7.2635,7.2984,7.3975,7.4191,7.4047,7.3458,7.3827,7.4004,7.344,7.3816,7.4004,7.3446,7.3816,7.4004,7.3409,7.3853,7.4191,7.4191,7.4191,7.4191,7.4191,7.4191,7.4209,7.4255,7.4295,7.4365,7.4568,7.4611,7.4739,7.4884,7.4889,7.4889,7.4889,7.4889,7.4889,7.4889,7.4889,7.491,6.1029,6.1566,0.0,5.6904,5.5257,0.0,4.7945,0.0,0.0,0.0,0.0,0.0,0.0,0.0,0.0,0.0,0.0,0.0,0.0,3.5892,0.0,0.0,0.0,0.0,0.0,0.0,0.0,0.0,0.0,0.0,0.0,5.3696,5.5727,5.7713,5.8895,5.9728,6.0327,6.1107,6.1664,6.1999,6.2779,6.333,6.359,6.359,6.359,6.359,6.359,6.359,6.359,6.359,6.3925,6.4482,6.5639,6.6419,6.7014,6.8085,6.8493,6.8493,6.8493,6.8493,6.8493,6.8493,6.8493,6.8493,6.8493,6.8493,6.8493,6.8493,6.8493,6.8753,6.9824,7.0184,7.0697,7.2516,7.2981,7.3233,7.3979,7.4127,7.3995,7.3452,7.3827,7.4004,7.3446,7.3816,7.4004,7.3446,7.3853,7.4004,7.3446,7.3853,7.4191,7.4191,7.4191,7.4191,7.4191,7.4191,7.4209,7.4261,7.4261,7.4352,7.4503,7.4552,7.4649,7.4833,7.4869,7.5041,7.5344,7.5344,7.5344,7.5344,7.5344,7.5155]},{"header":{"parameterUnit":"m.s-1","parameterCategory":1,"la1":30.6,"la2":29.2853,"lo1":-89.7004,"lo2":-87.6739,"dy":0.0162,"dx":0.0183,"nx":112,"ny":82,"refTime":"2024-04-19T00:00:00:Z","depth":0,"parameterNumber":3,"parameterNumberName":"V-component_of_WINDS"},"data":[0.0,0.0,0.0,0.0,0.0,0.0,0.0,0.0,0.0,0.0,0.0,0.0,0.0,0.0,0.0,0.0,0.0,0.0,0.0,0.0,0.0,0.0,0.0,0.0,0.0,0.0,0.0,0.0,0.0,0.0,0.0,0.0,0.0,0.0,0.0,0.0,0.0,0.0,0.0,0.0,0.0,0.0,0.0,0.0,0.0,0.0,0.0,0.0,0.0,0.0,0.0,0.0,0.0,0.0,0.0,0.0,0.0,0.0,0.0,0.0,0.0,0.0,0.0,0.0,0.0,0.0,0.0,0.0,0.0,0.0,0.0,0.0,0.0,0.0,0.0,0.0,0.0,0.0,0.0,0.0,0.0,0.0,0.0,0.0,0.0,0.0,0.0,0.0,0.0,0.0,0.0,0.6627,0.7039,0.7244,0.7229,0.6788,0.6259,0.5662,0.0,0.0,0.0,0.0,0.0,0.0,0.0,0.0,0.0,0.0,0.0,0.0,0.0,0.0,0.0,0.0,0.0,0.0,0.0,0.0,0.0,0.0,0.0,0.0,0.0,0.0,0.0,0.0,0.0,0.0,0.0,0.0,0.0,0.0,0.0,0.0,0.0,0.0,0.0,0.0,0.0,0.0,0.0,0.0,0.0,0.0,0.0,0.0,0.0,0.0,0.0,0.0,0.0,0.0,0.0,0.0,0.0,0.0,0.0,0.0,0.0,0.0,0.0,0.0,0.0,0.0,0.0,0.0,0.0,0.0,0.0,0.0,0.0,0.0,0.0,0.0,0.0,0.0,0.0,0.0,0.0,0.0,0.0,0.0,0.0,0.0,0.0,0.0,0.0,0.0,0.0,0.0,0.0,0.0,0.0,0.0,0.0,0.0,0.0,0.0,0.0,0.0,0.0,0.0,0.6246,0.7552,0.784,0.7904,0.7782,0.7343,0.6827,0.6221,0.0,0.0,0.0,0.0,0.0,0.0,0.0,0.0,0.0,0.0,0.0,0.0,0.0,0.0,0.0,0.0,0.0,0.0,0.0,0.0,0.0,0.0,0.0,0.0,0.0,0.0,0.0,0.0,0.0,0.0,0.0,0.0,0.0,0.0,0.0,0.0,0.0,0.0,0.0,0.0,0.0,0.0,0.0,0.0,0.0,0.0,0.0,0.0,0.0,0.0,0.0,0.0,0.0,0.0,0.0,0.0,0.0,0.0,0.0,0.0,0.0,0.0,0.0,0.0,0.0,0.0,0.0,0.0,0.0,0.0,0.0,0.0,0.0,0.0,0.0,0.0,0.0,0.0,0.0,0.0,0.0,0.0,0.0,0.0,0.0,0.0,0.0,0.0,0.0,0.0,0.0,0.0,0.0,0.0,0.0,0.0,0.0,0.0,0.0,0.0,0.0,0.0,0.0,0.6282,0.7095,0.8073,0.816,0.8116,0.8012,0.7513,0.6939,0.6343,0.5567,0.0,0.0,0.0,0.0,0.0,0.0,0.0,0.0,0.0,0.0,0.0,0.0,0.0,0.0,0.0,0.0,0.0,0.0,0.0,0.0,0.0,0.0,0.0,0.0,0.0,0.0,0.0,0.0,0.0,0.0,0.0,0.0,0.0,0.0,0.0,0.0,0.0,0.0,0.0,0.0,0.0,0.0,0.0,0.0,0.0,0.0,0.0,0.0,0.0,0.0,0.0,0.0,0.0,0.0,0.0,0.0,0.0,0.0,0.0,0.0,0.0,0.0,0.0,0.0,0.0,0.0,0.0,0.0,0.0,0.0,0.0,0.0,0.0,0.0,0.0,0.0,0.0,0.0,0.0,0.0,0.0,0.0,0.0,0.0,0.0,0.0,0.0,0.0,0.0,0.0,0.0,0.0,0.0,0.0,0.0,0.0,0.0,0.0,0.0,0.0,0.0,0.0,0.7277,0.7827,0.8453,0.8404,0.8287,0.818,0.759,0.6947,0.6299,0.5632,0.0,0.0,0.0,0.0,0.0,0.0,0.0,0.0,0.0,0.0,0.0,0.0,0.0,0.0,0.0,0.0,0.0,0.0,0.0,0.0,0.0,0.0,0.0,0.0,0.0,0.0,0.0,0.0,0.0,0.0,0.0,0.0,0.0,0.0,0.0,0.0,0.0,0.0,0.0,0.0,0.0,0.0,0.0,0.0,0.0,0.0,0.0,0.0,0.0,0.0,0.0,0.0,0.0,0.0,0.0,0.0,0.0,0.0,0.0,0.0,0.0,0.0,0.0,0.0,0.0,0.0,0.0,0.0,0.0,0.0,0.0,0.0,0.0,0.0,0.0,0.0,0.0,0.0,0.0,0.0,0.0,0.0,0.0,0.0,0.0,0.0,0.0,0.0,0.0,0.0,0.0,0.0,0.0,0.0,0.0,0.0,0.0,0.0,0.0,0.0,0.0,0.0,0.7361,0.8131,0.8794,0.8742,0.858,0.8386,0.7713,0.695,0.6168,0.5317,0.0,0.0,0.0,0.0,0.0,0.0,0.0,0.0,0.0,0.0,0.0,0.0,0.0,0.0,0.0,0.0,0.0,0.0,0.0,0.0,0.0,0.0,0.0,0.0,0.0,0.0,0.0,0.0,0.0,0.0,0.0,0.0,0.0,0.0,0.0,0.0,0.0,0.0,0.0,0.0,0.0,0.0,0.0,0.0,0.0,0.0,0.0,0.0,0.0,0.0,0.0,0.0,0.0,0.0,0.0,0.0,0.0,0.0,0.0,0.0,0.0,0.0,0.0,0.0,0.0,0.0,0.0,0.0,0.0,0.0,0.0,0.0,0.0,0.0,0.0,0.0,0.0,0.0,0.0,0.0,0.0,0.0,0.0,0.0,0.0,0.0,0.0,0.0,0.0,0.0,0.0,0.0,0.0,0.0,0.0,0.0,0.0,0.0,0.0,0.0,0.0,0.0,0.7808,0.8514,0.0,0.9122,0.8968,0.8726,0.8105,0.7312,0.6287,0.0,0.0,0.0,0.0,0.0,0.0,0.0,0.0,0.0,0.0,0.0,0.0,0.0,0.0,0.0,0.0,0.0,0.0,0.0,0.0,0.0,0.0,0.0,0.0,0.0,0.0,0.0,0.0,0.0,0.0,0.0,0.0,0.0,0.0,0.0,0.0,0.0,0.0,0.0,0.0,0.0,0.0,0.0,0.0,0.0,0.0,0.0,0.0,0.0,0.0,0.0,0.0,0.0,0.0,0.0,0.0,0.0,0.0,0.0,0.0,0.0,0.0,0.0,0.0,0.0,0.0,0.0,0.0,0.0,0.0,0.0,0.0,0.0,0.0,0.0,0.0,0.0,0.0,0.0,0.0,0.0,0.0,0.0,0.0,0.0,0.0,0.0,0.0,0.0,0.0,0.0,0.0,0.0,0.0,0.0,0.0,0.0,0.0,0.0,0.0,0.0,0.0,0.7244,0.8106,0.8875,0.0,0.9492,0.933,0.9078,0.8451,0.7592,0.6467,0.0,0.0,0.0,0.0,0.0,0.0,0.0,0.0,0.0,0.0,0.0,0.0,0.0,0.0,0.0,0.0,0.0,0.0,0.0,0.0,0.0,0.0,0.0,0.0,0.0,0.0,0.0,0.0,0.0,0.0,0.0,0.0,0.0,0.0,0.0,0.0,0.0,0.0,0.0,0.0,0.0,0.0,0.0,0.0,0.0,0.0,0.0,0.0,0.0,0.0,0.0,0.0,0.0,0.0,0.0,0.0,0.0,0.0,0.0,0.0,0.0,0.0,0.0,0.0,0.0,0.0,0.0,0.0,0.0,0.0,0.0,0.0,0.0,0.0,0.0,0.0,0.0,0.0,0.0,0.0,0.0,0.0,0.0,0.0,0.0,0.0,0.0,0.0,0.0,0.0,0.0,0.0,0.0,0.0,0.0,0.0,0.0,0.0,0.0,0.0,0.0,0.0,0.7035,0.8168,0.9193,0.9929,0.9822,0.9623,0.9429,0.8673,0.7756,0.0,0.0,0.0,0.0,0.0,0.0,0.0,0.0,0.0,0.0,0.0,0.0,0.0,0.0,0.0,0.0,0.0,0.0,0.0,0.0,0.0,0.0,0.0,0.0,0.0,0.0,0.0,0.0,0.0,0.0,0.0,0.0,0.0,0.0,0.0,0.0,0.0,0.0,0.0,0.0,0.0,0.0,0.0,0.0,0.0,0.0,0.0,0.0,0.0,0.0,0.0,0.0,0.0,0.0,0.0,0.0,0.0,0.0,0.0,0.0,0.0,0.0,0.0,0.0,0.0,0.0,0.0,0.0,0.0,0.0,0.0,0.0,0.0,0.0,0.0,0.0,0.0,0.0,0.0,0.0,0.0,0.0,0.0,0.0,0.0,0.0,0.0,0.0,0.0,0.0,0.0,0.0,0.0,0.0,0.0,0.0,0.0,0.0,0.0,0.0,0.0,0.0,0.0,0.7704,0.881,0.9711,1.016,1.0028,0.9908,0.9899,0.9159,0.8229,0.7155,0.0,0.0,0.0,0.0,0.0,0.0,0.0,0.0,0.0,0.0,0.0,0.0,0.0,0.0,0.0,0.0,0.0,0.0,0.0,0.0,0.0,0.0,0.0,0.0,0.0,0.0,0.0,0.0,0.0,0.0,0.0,0.0,0.0,0.0,0.0,0.0,0.0,0.0,0.0,0.0,0.0,0.0,0.0,0.0,0.0,0.0,0.0,0.0,0.0,0.0,0.0,0.0,0.0,0.0,0.0,0.0,0.0,0.0,0.0,0.0,0.0,0.0,0.0,0.0,0.0,0.0,0.0,0.0,0.0,0.0,0.0,0.0,0.0,0.0,0.0,0.0,0.0,0.0,0.0,0.0,0.0,0.0,0.0,0.0,0.0,0.0,0.0,0.0,0.0,0.0,0.0,0.0,0.0,0.0,0.0,0.0,0.0,0.0,0.0,0.0,0.0,0.0,0.7956,0.9036,0.9841,1.0154,1.0145,1.0078,0.9987,0.9442,0.8635,0.7572,0.0,0.0,0.0,0.0,0.0,0.0,0.0,0.0,0.0,0.0,0.0,0.0,0.0,0.0,0.0,0.0,0.0,0.0,0.0,0.0,0.0,0.0,0.0,0.0,0.0,0.0,0.0,0.0,0.0,0.0,0.0,0.0,0.0,0.0,0.0,0.0,0.0,0.0,0.0,0.0,0.0,0.0,0.0,0.0,0.0,0.0,0.0,0.0,0.0,0.0,0.0,0.0,0.0,0.0,0.0,0.0,0.0,0.0,0.0,0.0,0.0,0.0,0.0,0.0,0.0,0.0,0.0,0.0,0.0,0.0,0.0,0.0,0.0,0.0,0.0,0.0,0.0,0.0,0.0,0.0,0.0,0.0,0.0,0.0,0.0,0.0,0.0,0.0,0.0,0.0,0.0,0.0,0.0,0.0,0.0,0.0,0.0,0.0,0.0,0.0,0.0,0.0,0.7947,0.8957,0.9705,0.9972,1.0145,1.0143,0.9847,0.9557,0.8968,0.7944,0.0,0.0,0.0,0.0,0.0,0.0,0.0,0.0,0.0,0.0,0.0,0.0,0.0,0.0,0.0,0.0,0.0,0.0,0.0,0.0,0.0,0.0,0.0,0.0,0.0,0.0,0.0,0.0,0.0,0.0,0.0,0.0,0.0,0.0,0.0,0.0,0.0,0.0,0.0,0.0,0.0,0.0,0.0,0.0,0.0,0.0,0.0,0.0,0.0,0.0,0.0,0.0,0.0,0.0,0.0,0.0,0.0,0.0,0.0,0.0,0.7901,0.0,0.0,0.0,0.0,0.0,0.0,0.0,0.0,0.0,0.0,0.0,0.0,0.0,0.0,0.0,0.0,0.0,0.0,0.0,0.0,0.0,0.0,0.0,0.0,0.0,0.0,0.0,0.0,0.0,0.0,0.0,0.0,0.0,0.0,0.0,0.0,0.0,0.0,0.0,0.0,0.0,0.8272,0.9095,0.9705,0.9972,0.994,0.9922,0.9952,0.9618,0.9151,0.854,0.7718,0.0,0.0,0.0,0.0,0.0,0.0,0.0,0.0,0.0,0.0,0.0,0.0,0.0,0.0,0.0,0.0,0.0,0.0,0.0,0.0,0.0,0.0,0.0,0.0,0.0,0.0,0.0,0.0,0.0,0.0,0.0,0.0,0.0,0.0,0.0,0.0,0.0,0.0,0.0,0.0,0.0,0.0,0.0,0.0,0.0,0.0,0.0,0.0,0.0,0.0,0.0,0.0,0.0,0.0,0.0,0.0,0.0,0.0,0.0,0.0,0.8571,0.0,0.0,0.0,0.0,0.0,0.0,0.0,0.0,0.0,0.0,0.0,0.0,0.0,0.0,0.0,0.0,0.0,0.0,0.0,0.0,0.0,0.0,0.0,0.0,0.0,0.0,0.0,0.0,0.0,0.0,0.0,0.0,0.0,0.0,0.0,0.0,0.0,0.0,0.0,0.0,0.8767,0.9497,1.0057,1.0347,1.0376,1.0376,1.0383,1.0193,0.9845,0.9317,0.8544,0.0,0.0,0.0,0.0,0.0,0.0,0.0,0.0,0.0,0.0,0.0,0.0,0.0,0.0,0.0,0.0,0.0,0.0,0.0,0.0,0.0,0.0,0.0,0.0,0.0,0.0,0.0,0.0,0.0,0.0,0.0,0.0,0.0,0.0,0.0,0.0,0.0,0.0,0.0,0.0,0.0,0.0,0.0,0.0,0.0,0.0,0.0,0.0,0.0,0.0,0.0,0.0,0.0,1.1206,1.1312,1.132,1.158,1.1638,1.1462,1.032,0.992,0.9997,0.8858,0.0,0.0,0.0,0.0,0.0,0.0,0.0,0.0,0.0,0.0,0.0,0.0,0.0,0.0,0.0,0.0,0.0,0.0,0.0,0.0,0.0,0.0,0.0,0.0,0.8283,0.8187,0.0,0.0,0.0,0.0,0.0,0.0,0.0,0.0,0.0,0.0,0.0,0.0,0.9226,0.9899,1.0427,1.0755,1.0897,1.0926,1.0815,1.08,1.0561,0.9999,0.9397,0.8675,0.0,0.0,0.0,0.0,0.0,0.0,0.0,0.0,0.0,0.0,0.0,0.0,0.0,0.0,0.0,0.0,0.0,0.0,0.0,0.0,0.0,0.0,0.0,0.0,0.0,0.0,0.0,0.0,0.0,0.0,0.0,0.0,0.7193,0.772,0.0,0.0,0.0,0.0,0.0,0.0,0.0,0.0,0.0,0.0,0.0,0.0,0.0,1.0897,1.1281,1.1752,1.2028,1.2086,1.2418,1.2556,1.2556,1.2491,1.2596,1.2816,1.2183,0.0,1.0818,1.0161,0.0,0.0,0.0,0.0,0.0,0.0,0.0,0.0,0.0,0.0,0.0,0.0,0.0,0.0,0.0,0.0,0.0,0.0,0.0,0.0,0.0,0.0,0.8703,0.877,0.8797,0.8893,0.0,0.8298,0.7442,0.7319,0.6978,0.0,0.0,0.0,0.0,0.0,0.0,0.0,0.9455,0.9994,1.0427,1.0755,1.0823,1.083,1.0808,1.08,1.0644,1.0278,0.9946,0.9448,0.8746,0.7782,0.0,0.0,0.0,0.0,0.0,0.0,0.0,0.0,0.0,0.0,0.0,0.0,0.0,0.0,0.0,0.0,0.0,0.0,0.0,0.0,0.0,0.0,0.0,0.0,0.0,0.0,0.0,0.0,0.0,0.7319,0.8127,0.8515,0.8472,0.8278,0.0,0.0,0.0,0.0,0.0,0.0,0.0,0.0,0.0,1.1082,1.1619,1.2067,1.2393,1.2735,1.3004,1.3203,1.3469,1.3654,1.3755,1.3814,1.3857,1.3857,1.3403,1.2937,1.2434,1.1251,1.0412,0.9818,0.0,0.0,0.0,0.0,0.9062,0.9174,0.9406,0.939,0.0,0.8999,0.0,0.0,0.0,0.0,0.0,0.0,0.0,0.0,0.0,0.0,0.9616,0.9817,0.986,0.991,1.012,0.9706,0.912,0.0,0.8288,0.7986,0.748,0.0,0.0,0.0,0.0,0.9476,1.0129,1.0662,1.1063,1.1329,1.136,1.1321,1.1204,1.1196,1.1047,1.0703,1.0472,1.0125,0.9655,0.8549,0.7697,0.0,0.0,0.0,0.0,0.0,0.0,0.0,0.0,0.0,0.0,0.0,0.0,0.0,0.0,0.0,0.0,0.0,0.0,0.0,0.0,0.0,0.0,0.0,0.0,0.0,0.0,0.0,0.0,0.828,0.8917,0.9201,0.9472,0.9406,0.0,0.0,0.0,0.0,0.0,0.0,1.1003,1.1587,1.2071,1.2404,1.2911,1.3303,1.3602,1.381,1.4066,1.4361,1.4464,1.4596,1.4735,1.4788,1.4736,1.4604,1.4216,1.4036,1.3856,1.2229,1.1354,1.0988,1.0506,1.0193,1.0032,1.0174,1.0263,1.0355,1.0684,1.0704,1.0516,1.0317,0.0,0.9412,0.8917,0.0,0.0,0.0,0.0,0.9595,0.9982,1.0223,1.0426,1.0666,1.0726,1.0756,1.0816,1.0793,1.0535,0.0,0.9511,0.9239,0.8471,0.0,0.0,0.0,0.0,1.0219,1.0763,1.1224,1.1588,1.1775,1.1806,1.1718,1.1516,1.15,1.136,1.1025,1.0856,1.062,1.0276,0.9241,0.8458,0.7963,0.0,0.0,0.0,0.0,0.0,0.0,0.0,0.0,0.0,0.0,0.0,0.0,0.0,0.0,0.0,0.0,0.0,0.0,0.0,0.0,0.0,0.0,0.0,0.0,0.0,0.0,0.0,0.0,0.0,0.9816,1.0593,0.0,0.0,0.0,0.0,1.154,1.2102,1.2687,1.3216,1.364,1.3942,1.4061,1.4473,1.4789,1.5009,1.5211,1.5396,1.5608,1.5423,1.5335,1.5335,1.4973,1.485,1.4964,1.4622,1.4577,1.4631,1.3144,1.2288,1.1892,1.1542,1.1305,1.1138,1.1347,1.1541,1.1727,1.1877,1.1757,1.1557,1.1658,1.1072,1.0297,1.008,0.9837,0.0,0.0,1.0093,1.0372,1.0531,1.0816,1.1048,1.1078,1.1063,1.114,1.1402,1.1347,1.1105,0.0,1.0334,1.0209,1.0097,0.0,0.9884,1.008,1.0261,1.0566,1.1112,1.137,1.1588,1.1775,1.1806,1.1718,1.1516,1.15,1.136,1.1025,1.0992,1.0807,1.0409,0.9783,0.9196,0.8665,0.7453,0.0,0.0,0.0,0.0,0.0,0.0,0.0,0.0,0.0,0.0,0.0,0.0,0.0,0.0,0.0,0.0,0.0,0.0,0.0,0.0,0.0,0.0,0.0,0.0,0.0,0.0,0.0,0.0,1.1464,1.2045,0.0,1.1766,1.2255,1.2655,1.2776,1.3234,1.3626,1.3898,1.4302,1.4603,1.4771,1.5035,1.5273,1.5477,1.5566,1.5746,1.602,1.5822,1.5858,1.6102,1.5954,1.5909,1.5937,1.5559,1.5434,1.5426,1.444,1.3779,1.3385,1.3055,1.2866,1.2766,1.2444,1.2467,1.2603,1.2448,1.2321,1.2202,1.1995,1.1694,1.1396,1.1236,1.1131,1.1082,1.1213,1.1332,1.1467,1.1648,1.1791,1.1862,1.1862,1.1862,1.1862,1.182,1.1779,1.1674,1.1401,1.1192,1.0962,1.0582,1.0639,1.0688,1.0539,1.0858,1.1177,1.1378,1.1565,1.1718,1.1783,1.1686,1.1524,1.1323,1.1238,1.1019,1.0634,1.0609,1.0517,1.0279,0.9778,0.9309,0.8895,0.7838,0.6919,0.0,0.0,0.0,0.0,0.0,0.0,0.0,0.0,0.0,0.0,0.0,0.0,0.0,0.0,0.0,0.0,0.0,0.0,0.0,0.0,0.0,0.0,0.0,0.0,0.0,0.0,1.2225,1.2531,1.3228,1.3515,1.3084,1.3634,1.4055,1.4143,1.4498,1.4816,1.4964,1.5289,1.5533,1.5677,1.5795,1.5976,1.6175,1.6175,1.6323,1.6591,1.6398,1.6442,1.6707,1.6641,1.6565,1.6481,1.622,1.6056,1.5955,1.5477,1.5117,1.4803,1.4208,1.3974,1.3915,1.3438,1.335,1.3404,1.3003,1.2783,1.2621,1.2304,1.2191,1.2174,1.2027,1.197,1.1995,1.2077,1.215,1.2223,1.2377,1.2426,1.2467,1.2467,1.2426,1.2361,1.2239,1.215,1.2053,1.1898,1.1719,1.1474,1.1037,1.1216,1.1291,1.1005,1.137,1.1664,1.1664,1.1841,1.1946,1.1866,1.1752,1.1566,1.1323,1.1159,1.0932,1.0617,1.0474,1.0353,1.0271,0.9799,0.939,0.9077,0.8036,0.7229,0.67,0.0,0.0,0.0,0.0,0.0,0.0,0.0,0.0,0.0,0.0,0.0,0.0,0.0,0.0,0.0,0.0,0.0,0.0,0.0,0.0,0.0,0.0,0.0,1.1515,1.2328,1.2955,1.2973,1.407,1.4607,1.4026,1.4969,1.5627,1.5627,1.5988,1.631,1.6517,1.6707,1.6821,1.6848,1.6848,1.6953,1.7151,1.7133,1.7237,1.7426,1.7209,1.7105,1.7095,1.6906,1.6698,1.6518,1.6518,1.6414,1.6225,1.6215,1.6206,1.6097,1.4984,1.4532,1.4523,1.4294,1.4207,1.4122,1.3591,1.3153,1.2808,1.2661,1.2621,1.2588,1.2377,1.232,1.232,1.232,1.2474,1.2621,1.2621,1.2718,1.2824,1.2807,1.2702,1.2604,1.2596,1.245,1.2255,1.2038,1.1898,1.1751,1.1549,1.1677,1.1743,1.1549,1.1802,0.0,1.2013,1.2182,1.2223,1.2044,1.2012,1.1874,1.1539,1.1321,1.1128,1.0992,1.0609,1.0388,1.038,0.9891,0.9484,0.9212,0.8103,0.745,0.7314,0.0,0.0,0.0,0.0,0.0,0.0,0.0,0.0,0.0,0.0,0.0,0.0,0.0,0.0,0.0,0.0,0.0,0.0,0.0,0.0,0.0,1.2413,1.3324,1.3091,1.3681,1.424,1.4528,1.5177,1.5518,1.5366,1.5896,1.6243,1.6243,1.6481,1.6788,1.7128,1.7204,1.744,1.7874,1.7893,1.7984,1.8193,1.79,1.7777,1.7835,1.734,1.7105,1.7105,1.7048,1.6991,1.6934,1.6934,1.6906,1.6831,1.6546,1.6414,1.6358,1.575,1.5513,1.5442,1.4803,1.4319,1.3954,1.3803,1.3687,1.3547,1.3275,1.3176,1.3119,1.2775,1.2661,1.2727,1.3019,1.3134,1.3176,1.3176,1.3218,1.3153,1.2873,1.2767,1.2726,1.2629,1.2556,1.2417,1.2077,1.2086,1.2101,1.1899,1.1907,1.1972,1.2077,1.215,0.0,1.2346,1.2417,1.2468,1.2502,1.22,1.1963,1.1862,1.1374,1.0907,1.0585,1.0363,1.0189,1.0038,0.9892,0.9641,0.9281,0.8529,0.7987,0.0,0.0,0.0,0.0,0.0,0.0,0.0,0.0,0.0,0.0,0.0,0.0,0.0,0.0,0.0,0.0,0.0,0.0,0.0,0.0,0.0,0.0,1.376,1.4643,1.5024,1.5238,1.5433,1.5673,1.6015,1.622,1.6165,1.6518,1.679,1.6858,1.7216,1.7535,1.7757,1.7865,1.8067,1.8403,1.8422,1.8474,1.8605,1.8377,1.8177,1.8006,1.7634,1.7388,1.7237,1.7237,1.7171,1.7105,1.7105,1.7057,1.6953,1.6641,1.6499,0.0,0.0,0.0,0.0,0.0,1.4726,1.422,1.414,1.4022,1.3875,1.367,1.3613,1.3572,1.3325,1.326,1.3309,1.3539,1.3613,1.3613,1.3613,1.3613,1.3539,1.3325,1.3145,1.3021,1.2946,1.2792,1.2596,1.2312,1.2463,0.0,1.2303,1.2255,1.2264,1.2304,1.2562,1.2721,1.2635,1.2901,1.3023,1.2836,1.2669,1.2417,1.2113,1.1674,0.0,0.0,0.0,1.0259,0.9913,0.9897,0.0,0.0,0.0,0.8791,0.8644,0.0,0.0,0.0,0.7288,0.6965,0.0,0.0,0.0,0.0,0.0,0.0,0.0,0.0,0.0,0.0,0.0,0.0,0.0,0.0,0.0,0.0,1.5067,1.5757,1.6905,1.6787,1.6547,1.6513,1.6689,1.6771,1.6642,1.6998,1.7314,1.7491,1.8023,1.8358,1.8396,0.0,0.0,0.0,0.0,1.8757,1.8757,1.8681,1.8491,1.8139,1.8082,1.7873,1.754,1.754,1.7436,1.7274,1.7274,1.7169,1.6988,1.6733,1.6582,1.648,1.6281,1.6187,1.6121,1.5769,1.5274,1.4768,1.4558,0.0,0.0,1.3982,1.3957,1.394,1.3908,1.3891,1.3908,1.394,1.3957,1.3957,1.3957,1.3957,1.394,1.3908,1.367,1.3465,1.3465,1.3186,1.2882,1.2742,1.2967,1.3089,1.2773,1.2709,1.2644,1.2449,1.301,1.3338,1.2988,1.3525,1.3718,1.3203,0.0,0.0,1.2407,1.2135,1.1776,1.1265,1.0872,1.0452,1.001,1.001,1.001,0.9986,0.9757,0.9712,0.9818,0.9475,0.9279,0.922,0.8049,0.759,0.0,0.0,0.0,0.0,0.0,0.0,0.0,0.0,0.0,0.0,0.0,0.0,0.0,0.0,0.0,1.5089,1.5859,1.6604,1.7372,1.7562,1.7483,1.715,1.7351,1.7502,1.747,1.7838,1.8077,1.8127,1.8376,1.8667,1.9007,1.9067,1.9268,1.9636,1.9647,1.9647,1.9647,1.9258,1.9041,1.8955,0.0,0.0,1.8358,1.8358,1.8357,1.8317,1.8317,1.8288,1.8219,1.7673,1.7086,1.648,1.6281,1.6092,1.5949,1.5863,1.5678,1.5385,1.5136,1.5011,1.4883,1.4437,1.431,1.4252,1.3973,1.3891,0.0,1.4219,1.431,1.431,1.431,1.431,1.4235,1.3957,1.3842,1.3802,1.3802,1.3752,1.3626,1.3444,1.3587,1.3681,1.3443,1.3401,1.3364,1.3216,1.3545,1.3812,1.3849,1.3965,1.4061,1.4045,1.3704,1.3403,1.3261,1.248,1.1814,1.1391,1.0789,1.0488,1.0534,1.0694,1.0715,1.0555,1.0554,1.0343,0.9961,0.9932,0.9784,0.951,0.9048,0.8706,0.0,0.0,0.0,0.0,0.0,0.0,0.0,0.0,0.0,0.0,0.0,1.322,1.3964,0.0,1.5417,1.634,1.6839,1.7313,1.7916,1.8096,1.8012,1.7643,1.7803,1.7916,1.7866,1.831,1.8638,1.8743,1.9063,1.9344,1.9542,1.9542,1.9655,1.9881,1.99,1.99,1.99,1.9674,1.9428,1.9201,1.9003,1.8795,1.8605,1.8605,1.8605,1.8605,1.8605,1.8605,1.8576,1.8176,1.7632,1.7083,1.7003,1.6579,1.6043,1.593,1.5835,1.5712,1.5487,1.5311,1.5165,1.4896,1.4737,1.4621,1.4457,1.4408,1.4441,1.4604,1.4653,1.4653,1.4653,1.4653,1.4604,1.4441,1.4277,1.4153,1.4153,1.4022,1.3865,1.3768,1.3976,1.4077,1.3801,1.4026,1.4111,1.3711,1.3949,1.4139,1.4095,1.4327,1.4449,1.4314,1.4067,1.3794,1.3523,1.2581,1.191,1.171,1.1135,1.0853,1.0956,1.1045,1.1053,1.0942,1.0977,1.0835,1.0496,1.0465,1.0312,1.0057,0.9845,0.953,0.0,0.0,0.0,0.0,0.0,0.0,0.0,0.0,1.3443,1.3893,1.4316,1.488,1.5797,1.6117,1.6577,1.7585,1.7756,1.7906,1.8342,1.8398,1.8293,1.8019,1.8218,1.8355,1.8301,1.8776,1.9161,1.9323,1.9716,1.9957,1.9957,2.0019,2.0041,2.0041,2.0041,2.0,1.9957,1.9957,1.9746,1.9334,1.9334,1.9174,1.8852,1.8852,1.8852,1.8852,1.8852,1.8795,1.8699,1.8503,1.8179,1.7808,1.7726,1.721,1.6464,1.6244,1.6167,1.6138,1.5944,1.5718,1.5522,1.5379,1.5203,1.5053,1.4941,1.4898,1.4898,1.4898,1.4898,1.4898,1.4898,1.4898,1.4898,1.4898,1.4686,1.4506,1.4506,1.4284,1.4088,1.4088,1.431,1.4408,1.4137,1.4539,1.4686,1.4088,1.4284,1.4451,1.427,1.4632,1.4792,1.4452,1.4339,1.4073,1.3493,1.2615,1.2077,1.2037,1.1506,1.1226,1.1258,1.1258,1.1258,1.1258,1.1299,1.1227,1.1059,1.0989,1.0782,1.0503,1.0395,1.0125,1.2381,1.2382,1.2577,1.3494,1.3655,1.4058,0.0,0.0,1.6407,1.7051,1.7312,1.7548,1.7901,1.7902,1.7955,1.826,1.8313,1.8331,1.8398,1.8398,1.8381,1.8346,1.8724,1.9088,1.9305,1.9615,1.9803,1.9825,2.0029,2.0177,2.0177,2.0391,2.0518,2.0518,2.0518,2.0401,2.0177,2.0177,2.004,1.9825,1.9825,1.9787,1.9749,1.9749,1.9749,1.9749,1.9749,1.9523,1.9115,1.8914,1.8603,1.8207,1.7848,1.764,1.75,1.7243,1.7145,1.7115,1.6901,1.6828,1.6686,1.597,1.5723,1.5608,1.5053,1.4898,1.4898,1.4898,1.4898,1.4898,1.4898,1.4898,1.4898,1.4898,1.4866,1.4833,1.4833,1.4817,1.4784,1.4784,1.4817,1.4833,1.4784,1.4849,1.4768,1.4408,1.4637,1.484,1.4805,1.4856,1.488,1.4832,1.4518,1.4007,1.3283,1.2744,1.2365,1.22,1.1557,1.1283,1.1459,1.1468,1.1468,1.1468,1.1645,1.1584,1.1276,1.1371,1.1101,1.0496,1.0486,1.0392,1.4352,1.4641,0.0,0.0,1.6081,1.6561,1.7261,1.7618,1.7913,1.833,1.8533,1.875,1.9004,1.9108,1.917,0.0,1.9397,1.946,1.9297,1.9275,1.9275,1.9275,1.9446,1.9488,1.9291,1.9647,1.9946,2.0067,2.0156,2.0274,2.0423,2.055,2.0604,2.0604,2.0604,2.055,2.0434,2.0434,2.0391,2.0302,2.0302,2.0302,2.0302,2.0143,2.0003,1.99,1.99,1.9787,1.9598,1.9511,1.93,1.8977,1.8814,1.8573,1.8256,1.7566,1.7291,1.7298,1.7197,1.7093,1.6934,1.6616,1.6415,1.6288,1.6021,1.5697,1.5424,1.5424,1.5173,1.4898,1.4898,1.4898,1.4898,1.4898,1.4898,1.4898,1.4898,1.4898,1.4898,1.4898,1.4898,1.4898,1.4898,1.4898,1.4849,1.4702,1.4817,1.4898,1.4898,1.4898,1.4851,1.4738,1.4568,1.4248,1.3713,1.3314,1.291,1.2528,1.2046,1.1751,1.1669,1.1677,1.1711,1.1794,1.1799,1.1779,1.1715,1.1572,1.1255,1.0798,1.0791,1.0664,1.5705,0.0,0.0,1.7288,1.7989,1.8482,1.8308,1.8672,1.9109,1.9264,1.9362,1.9531,1.979,1.9949,2.0014,2.0014,2.0238,2.0318,2.0048,1.9957,1.9894,1.9894,1.9894,1.9759,1.9362,1.98,2.0235,2.0534,2.0621,2.0753,2.1033,2.111,2.1094,2.0956,2.0956,2.0865,2.0671,2.0671,2.0649,2.0604,2.0604,2.0604,2.0593,2.0412,2.0197,1.9989,1.9989,1.9946,1.99,1.99,1.9784,1.9604,1.9521,1.9252,1.8781,1.7996,1.7659,1.7608,1.7608,1.7512,1.7358,1.721,1.707,1.6909,1.6746,1.6395,1.6031,1.5914,1.5564,1.5191,1.5026,1.5047,1.5075,1.4993,1.5047,1.5085,1.5085,1.5085,1.5085,1.5085,1.5021,1.5002,1.5075,1.5021,1.5002,1.5075,1.5085,1.5047,1.4917,1.4898,1.4823,1.4625,1.4606,1.4436,1.4027,1.3683,1.3301,1.2868,1.2528,1.2212,1.1919,1.1904,1.1924,1.194,1.1856,1.1856,1.1948,1.1702,1.1402,1.1087,1.1025,1.0857,0.0,0.0,1.7276,1.8058,1.8677,1.9136,1.939,1.9861,2.0243,2.0267,2.0163,2.0145,2.0421,2.0374,2.0283,2.0283,2.0519,2.0587,2.0329,2.006,1.9894,1.9894,1.9894,1.9894,0.0,2.035,2.0889,2.1422,2.1634,2.1874,2.2145,2.2407,2.2323,2.188,2.186,2.1558,2.0899,2.0888,2.078,2.0604,2.0604,2.0604,2.0604,2.0593,2.0445,2.018,2.018,2.0089,1.99,1.99,1.99,1.9849,1.9604,1.933,1.9057,1.8846,1.8592,1.8363,1.8363,1.8363,1.8268,1.7739,1.7579,1.7458,1.6882,1.6692,1.6597,1.6198,1.6069,1.5936,1.5338,1.5385,1.5506,1.5255,1.5385,1.557,1.557,1.557,1.557,1.557,1.5366,1.5273,1.5524,1.5366,1.5283,1.5541,1.557,1.5411,1.4955,1.4898,1.4823,1.4625,1.4606,1.4436,1.4027,1.3683,1.3408,1.3198,1.2874,1.2535,1.2204,1.2189,1.207,1.1815,1.1791,1.1791,1.1815,1.1799,1.1625,1.1285,1.1095,1.0924,0.0,0.0,1.8617,1.9426,1.9753,1.9975,2.0241,2.0434,2.0567,2.0567,2.0386,2.0265,2.0348,2.0483,2.0562,2.0562,2.0929,2.1149,2.0876,2.074,2.0621,2.0455,2.0431,0.0,0.0,0.0,0.0,2.1144,2.1562,2.1916,2.2187,2.245,2.2447,2.2108,2.1827,2.1506,2.1105,2.083,2.068,2.0604,2.0604,2.0498,2.0328,2.0328,2.0285,2.0191,2.0191,2.0253,2.0356,2.0356,2.0356,2.0335,2.0059,1.9706,1.9341,1.9093,1.8742,1.8398,1.8398,1.8398,1.837,1.819,1.8123,1.8095,1.7888,1.7589,1.7275,1.7138,1.6616,1.6052,1.5849,1.5701,1.5579,1.5487,1.5524,1.5598,1.5598,1.5598,1.5598,1.5598,1.5532,1.5487,1.5579,1.5532,1.5439,1.5356,1.5487,1.5477,1.5134,1.5096,1.5021,1.4823,1.4804,1.4691,1.4418,1.4295,1.3988,1.3432,1.3283,1.2925,1.2227,1.2204,1.212,1.1939,1.1848,1.1905,1.2125,1.2004,1.1834,1.1627,1.1648,1.1396,0.0,1.9738,2.0088,2.0649,2.0798,2.0788,2.0723,2.0628,2.0567,2.0567,2.0192,1.9898,1.9999,2.0083,2.0192,2.0381,2.0779,2.1087,2.1099,2.1015,2.093,2.0857,2.0761,2.0773,0.0,0.0,0.0,2.1449,2.1876,2.2245,2.2513,2.2697,2.2609,2.227,2.2022,2.1727,2.1413,2.116,2.1023,2.1023,2.1023,2.0868,2.0571,2.0571,2.0431,2.0191,2.0191,2.0253,2.0345,2.0345,2.0345,2.0335,2.0164,1.979,1.9341,1.9172,1.8789,1.8398,1.8398,1.8398,1.8398,1.8398,1.8398,1.8387,1.8301,1.8105,1.785,1.7617,1.7062,1.6476,1.626,1.6017,1.5797,1.5721,1.5759,1.5816,1.5816,1.5816,1.5816,1.5816,1.575,1.5731,1.5807,1.5816,1.5752,1.5576,1.5647,1.5553,1.516,1.5087,1.504,1.4917,1.4898,1.4814,1.4616,1.4606,1.4376,1.3812,1.3794,1.3447,1.2701,1.2556,1.2369,1.2084,1.1894,1.1905,1.2117,1.1996,1.1905,1.187,1.1908,1.1664,2.0817,2.1326,2.1603,2.1753,2.1759,2.1567,2.09,2.0529,2.0306,2.0258,1.9624,1.914,0.0,0.0,1.9197,1.9704,2.003,2.0417,2.0942,2.0821,2.0773,0.0,0.0,0.0,0.0,0.0,0.0,2.2224,0.0,2.2811,2.3065,2.3089,2.2896,2.2439,2.24,2.2195,2.1807,2.1776,2.1757,2.1757,2.1757,2.1562,2.1185,2.1185,2.0849,2.0248,2.0229,2.013,1.9962,1.9943,1.9943,1.9933,1.9922,1.9593,1.9111,1.91,1.8789,1.8398,1.8398,1.8398,1.8398,1.8398,1.8398,1.8355,1.8175,1.8244,1.8285,1.7704,1.7426,1.717,1.6594,1.6325,1.6149,1.5958,1.6072,1.6215,1.6206,1.6206,1.6215,1.6206,1.6053,1.5977,1.6168,1.6196,1.6196,1.6168,1.6015,1.5647,1.5028,1.4927,1.4908,1.4898,1.4898,1.4823,1.4634,1.4616,1.4521,1.4329,1.4311,1.4076,1.3523,1.3176,1.2758,1.2212,1.1934,1.1815,1.1831,1.1831,1.1898,1.2046,1.1909,1.1732,2.1731,2.2318,2.2696,2.2669,2.2524,2.2216,2.1649,2.1077,2.0453,1.9644,1.9118,1.852,0.0,0.0,0.0,1.8122,1.8834,0.0,1.9866,2.0192,0.0,2.0507,0.0,2.07,2.07,2.1002,0.0,0.0,2.232,2.2738,2.2811,2.2993,2.2947,2.2639,2.2333,2.2029,2.1727,2.1425,2.1273,2.1273,2.1273,2.1216,2.1121,2.1121,2.1113,2.1092,2.0786,2.0737,2.0855,2.0556,2.0421,2.0399,2.0207,1.9833,1.9373,1.9183,1.8789,1.8398,1.8398,1.8398,1.8398,1.8398,1.8398,1.8387,1.8334,1.8355,1.837,1.8201,1.776,1.7263,1.7115,1.6635,1.6187,1.6148,1.6272,1.6385,1.6234,1.6319,1.6376,1.6234,1.6158,1.6139,1.6187,1.6196,1.6092,1.5797,1.5702,1.5617,1.5439,1.5245,1.5068,1.4917,1.4898,1.488,1.4832,1.4823,1.4738,1.4531,1.4521,1.4219,1.3533,1.3176,1.2758,1.2212,1.1934,1.1921,1.2174,1.2174,1.2313,1.2597,1.2564,1.2253,2.3293,2.3823,2.4054,2.3604,2.3261,2.2749,2.1641,2.0818,1.9955,1.8865,1.8117,0.0,1.6501,1.6624,0.0,0.0,0.0,0.0,1.9052,1.9515,1.9898,0.0,2.0429,0.0,2.0688,2.1051,2.1341,0.0,2.203,2.2393,2.2514,2.2678,2.269,2.2526,2.2318,2.2133,2.196,2.1735,2.1623,2.1623,2.1623,2.1541,2.136,2.136,2.1328,2.1258,0.0,2.0907,2.0877,2.0646,2.0454,2.027,2.0121,1.9841,1.9467,1.9204,1.8871,1.8556,1.843,1.8398,1.8398,1.8398,1.8398,1.8377,1.8297,1.834,1.8377,1.8297,1.7938,1.752,1.7344,1.6868,1.6373,1.6232,1.6348,1.6442,1.6243,1.6357,1.6442,1.6243,1.6196,1.6196,1.6196,1.6196,1.6121,1.5901,1.5712,1.5598,1.5598,1.529,1.5021,1.4908,1.4898,1.4898,1.4898,1.4898,1.4851,1.4738,1.4729,1.446,1.3877,1.3394,1.2941,1.2567,1.211,1.1987,1.2167,1.2264,1.2394,1.2572,1.2661,1.2382,2.4989,2.5384,2.5348,2.4458,2.3954,2.32,2.1402,2.0217,1.9162,1.7943,0.0,1.6032,1.5705,1.5499,1.5559,1.6056,0.0,1.7421,1.8448,1.8923,1.9431,2.0151,2.0308,2.0429,2.0676,2.1142,2.1456,2.1492,2.1746,2.2018,2.2284,2.2296,2.2296,2.2296,2.2296,2.2296,2.2296,2.2296,2.2296,2.2296,2.2296,2.2109,2.1773,2.1773,2.1597,2.1259,2.1203,2.0947,2.0579,2.0522,2.0259,1.99,1.99,1.9701,1.9424,1.9193,1.8954,1.8702,1.8491,1.8398,1.8398,1.8398,1.8398,1.8366,1.8179,1.8265,1.8355,1.8196,1.8011,1.7808,1.7397,1.6999,1.662,1.6323,1.6395,1.6499,1.6319,1.6423,1.648,1.6281,1.6243,1.6234,1.6206,1.6196,1.6187,1.6158,1.5845,1.5589,1.5551,1.5177,1.4898,1.4898,1.4898,1.4898,1.4898,1.4898,1.4898,1.4898,1.4898,1.4729,1.4358,1.3732,1.3298,1.3042,1.2432,1.2108,1.2086,1.2248,1.2353,1.2361,1.2548,1.236,2.5677,2.5877,2.5751,2.5087,2.4504,2.3643,2.1886,2.0203,0.0,0.0,1.594,1.5101,1.4377,1.4569,1.4943,1.5258,1.6127,1.7071,1.7931,1.8838,1.9547,0.0,0.0,0.0,0.0,0.0,0.0,0.0,2.1746,2.2018,2.2284,2.2296,2.2296,2.2296,2.2296,2.2296,2.2296,2.2296,2.2296,2.2296,2.2296,2.2259,2.2203,2.2203,2.2165,2.2072,2.1735,0.0,2.0966,2.0635,2.0259,1.99,1.99,1.9604,1.9172,1.9129,1.8839,1.8452,1.842,1.8398,1.8398,1.8398,1.8398,1.8387,1.8355,1.8366,1.8387,1.8355,1.8138,1.7808,1.7397,1.6999,1.665,1.6494,1.6594,1.6736,1.6708,1.6727,1.6689,1.6489,1.6452,1.6395,1.6225,1.6196,1.6139,1.5977,1.575,1.5515,1.5292,1.5049,1.4898,1.4898,1.4898,1.4898,1.4898,1.4898,1.4898,1.4898,1.4898,1.4795,1.4559,1.4173,1.3739,1.3251,1.2859,1.2605,1.2507,1.2539,1.2596,1.271,1.2742,1.2578,2.6045,2.6205,2.6058,2.5451,2.4636,2.3461,2.1385,0.0,0.0,0.0,1.4961,1.4268,1.3605,1.3918,0.0,1.4642,1.5584,1.661,1.7554,1.85,0.0,1.9837,2.0248,2.0603,0.0,0.0,0.0,2.1704,2.1958,2.2163,2.2296,2.2296,2.2296,2.2296,2.2296,2.2296,2.2296,2.2296,2.2296,2.2296,2.2296,2.2296,2.2296,2.2296,2.2296,2.2278,2.1866,0.0,2.1071,2.0673,2.0259,1.99,1.99,1.9658,1.9298,1.9161,1.8882,1.8616,1.8616,1.8523,1.8441,1.867,1.8602,1.8398,1.8398,1.8398,1.843,1.8566,1.8389,1.8103,1.784,1.747,1.7108,1.6876,1.6815,1.6831,1.6934,1.6878,1.6736,1.6546,1.6499,1.6433,1.6234,1.6196,1.6168,1.6081,1.5882,1.5712,1.5591,1.5264,1.5012,1.4908,1.4898,1.4898,1.4898,1.4898,1.4898,1.4898,1.4898,1.4814,1.4606,1.4276,1.3911,1.3453,1.3135,1.2843,1.2596,1.2678,1.2702,1.2694,1.2775,1.2626,2.6306,2.644,2.6272,2.5665,2.4546,2.2984,2.0726,1.8718,0.0,0.0,1.4058,1.3532,1.3171,1.3437,1.387,0.0,1.5185,1.6213,1.7336,1.8242,1.9064,0.0,2.0236,0.0,2.1051,2.1401,0.0,2.1867,2.2151,2.2296,2.2296,2.2296,2.2296,2.2296,2.2296,2.2296,2.2296,2.2296,2.2296,2.2296,2.2296,2.2296,2.2296,2.2296,2.2296,2.2278,2.196,0.0,0.0,2.0759,2.0334,1.99,1.99,1.9741,1.9478,1.9258,1.905,1.8864,1.8864,1.8728,1.8613,1.8971,1.8778,1.8409,1.848,1.8491,1.8534,1.8753,1.8674,1.8503,1.8337,1.8055,1.7713,1.7321,1.7077,1.6963,1.7142,1.7048,1.6859,1.6622,1.6565,1.6489,1.6243,1.6196,1.6196,1.6196,1.6034,1.5892,1.5892,1.5536,1.5226,1.5066,1.4955,1.4917,1.4964,1.4964,1.4964,1.4964,1.4964,1.487,1.4672,1.4405,1.4083,1.3671,1.3413,1.3058,1.2637,1.2751,1.2751,1.2645,1.2751,1.2659,2.6527,2.6587,2.6272,2.5665,2.4184,2.2375,2.0386,0.0,0.0,1.4278,1.335,1.2869,1.3063,1.3135,0.0,0.0,0.0,1.6007,1.7312,1.8399,1.9269,1.9837,0.0,0.0,2.1087,2.1571,2.1867,2.1909,2.2151,2.2296,2.2296,2.2296,2.2296,2.2296,2.2296,2.2296,2.2296,2.2296,2.2296,2.2296,2.2296,2.2296,2.2296,2.2296,2.2296,2.2296,2.2259,0.0,0.0,2.1071,2.059,1.99,1.99,1.9741,1.9499,1.9478,1.9298,1.9057,1.9057,1.9064,1.9036,1.9078,1.8778,1.8459,1.8692,1.8774,1.8774,1.8796,1.891,1.8963,1.8646,1.8537,1.8362,1.7772,1.7482,1.736,1.7369,1.736,1.7237,1.6849,1.6774,1.6651,1.6272,1.6196,1.6196,1.6196,1.6034,1.5892,1.5892,1.5702,1.556,1.5541,1.5141,1.4974,1.5153,1.5172,1.5172,1.5172,1.5172,1.5078,1.488,1.4838,1.4528,1.3881,1.3832,1.3481,1.2775,1.2799,1.2799,1.2775,1.2799,1.2783,2.5745,2.6099,2.5987,2.5304,2.3956,2.2194,1.9821,0.0,1.5543,1.3976,1.3157,1.2724,1.2845,1.2991,1.34,0.0,0.0,0.0,1.7518,1.8536,1.937,2.0055,2.0712,0.0,0.0,0.0,2.197,2.2127,2.2236,2.2296,2.2296,2.2296,2.2296,2.2296,2.2296,2.2296,2.2296,2.2296,2.2296,2.2296,2.2296,2.2296,2.2296,2.2296,2.2296,2.2296,2.2035,0.0,0.0,2.0947,2.0541,2.024,1.9995,1.9741,1.9499,1.9499,1.933,1.9111,1.9269,1.9236,1.9143,1.9478,1.9233,1.8849,1.8946,1.8907,1.8828,1.8943,1.9043,1.9082,1.8943,1.883,1.8618,1.8019,1.7815,1.7683,1.7445,1.7407,1.7322,1.7038,1.6982,1.6849,1.6452,1.6376,1.6338,1.6215,1.613,1.6091,1.6091,1.5901,1.5778,1.5778,1.5513,1.5337,1.5422,1.5449,1.5449,1.5449,1.5292,1.5162,1.5087,1.4767,1.4382,1.3908,1.3703,1.335,1.2807,1.2807,1.2807,1.2807,1.2807,1.2807,2.4676,2.5363,2.554,2.4719,2.3461,2.1781,0.0,0.0,1.5318,1.3912,1.3184,1.2828,1.2828,1.2965,1.3368,1.4171,0.0,1.597,1.765,1.8581,1.9406,2.02,0.0,2.1293,0.0,2.1806,2.2103,2.2284,2.2296,2.2296,2.2296,2.2296,2.2296,2.2296,2.2296,2.2296,2.2296,2.2296,2.2296,2.2296,2.2296,2.2296,2.2296,2.2296,2.2296,2.2278,2.1997,0.0,0.0,2.1086,2.0785,2.0654,2.0372,2.0141,1.9979,1.9979,1.9851,1.9694,1.9765,1.9674,1.9561,1.9811,1.9593,1.9226,1.9319,1.9187,1.9036,1.919,1.9287,1.9341,1.9341,1.9162,1.8882,1.846,1.8253,1.8063,1.7655,1.7578,1.7474,1.7161,1.7105,1.6991,1.666,1.6594,1.6582,1.6566,1.64,1.6326,1.6451,1.619,1.5987,1.5987,1.5863,1.575,1.5693,1.5684,1.5684,1.5684,1.5468,1.5328,1.5328,1.4726,1.4271,1.3996,1.3606,1.3202,1.2807,1.2807,1.2807,1.2807,1.2807,1.2807,2.3478,2.4441,2.4869,2.3862,2.2556,2.0999,0.0,0.0,1.4886,1.4059,1.347,1.3094,1.3094,1.3094,1.3356,1.417,1.4751,1.5765,1.7641,1.8581,1.9406,0.0,0.0,2.1492,2.1492,2.1994,2.2296,2.2296,2.2296,0.0,2.2296,2.2296,2.2296,2.2296,2.2296,2.2296,2.2296,2.2296,2.2296,2.2296,2.2296,2.2296,2.2296,2.2296,2.2296,2.2296,2.2296,0.0,0.0,2.1679,2.1454,2.109,2.109,2.109,2.1079,2.1079,2.1079,2.1022,2.0635,2.0492,2.0417,2.0032,1.973,1.9561,1.9806,1.969,1.9488,1.9488,1.9698,1.99,1.99,1.956,1.9201,1.9182,1.889,1.8472,1.8082,1.7987,1.7824,1.7217,1.7105,1.7038,1.684,1.6802,1.6931,1.7325,1.6886,1.6643,1.7049,1.6578,1.6196,1.6196,1.6196,1.6102,1.5911,1.5892,1.5892,1.5892,1.5702,1.5589,1.5589,1.4833,1.4334,1.4207,1.3675,1.3202,1.2807,1.2807,1.2807,1.2807,1.2807,1.2807,2.1066,2.1713,2.1954,2.1358,2.0596,1.9565,1.7919,1.6562,1.5307,1.414,1.3591,1.3211,1.2892,1.2977,1.3356,1.417,1.4751,1.5753,0.0,0.0,0.0,2.02,2.1009,2.1637,0.0,0.0,2.2296,2.2296,2.2296,2.2296,2.2296,2.2296,2.2296,2.2296,2.2296,2.2296,2.2296,2.2296,2.2296,2.2296,2.2296,2.2296,2.2296,2.2296,2.2296,2.2296,2.2296,2.2221,0.0,2.181,2.1623,2.1473,2.1222,2.1109,2.1109,2.1109,2.1109,2.109,2.0947,2.0729,2.0484,2.0353,2.0072,1.9784,1.986,1.9701,1.9531,1.9712,1.969,1.9669,1.9849,1.9787,1.9598,1.9277,1.9088,1.8909,1.851,1.8177,1.7949,1.7748,1.7492,1.7237,1.7048,1.701,1.7,1.6987,1.6714,1.6553,1.6661,1.64,1.6196,1.6196,1.6196,1.6168,1.6102,1.6119,1.6053,1.5901,1.5835,1.574,1.5615,1.5085,1.4614,1.4207,1.3821,1.3344,1.2807,1.2807,1.2807,1.2807,1.2807,1.2864,1.8967,1.9772,2.011,1.9711,1.921,1.8458,1.7076,0.0,1.498,1.4065,1.357,1.32,1.2903,1.2988,1.3356,1.417,0.0,0.0,0.0,0.0,0.0,2.061,0.0,0.0,0.0,2.2296,2.2296,2.2296,2.2296,2.2296,2.2296,2.2296,2.2296,2.2296,2.2296,2.2296,2.2296,2.2296,2.2296,2.2296,2.2296,2.2296,2.2296,2.2296,2.2296,2.2296,2.2296,2.2296,0.0,2.2035,2.1922,2.1904,2.1641,2.1548,2.1548,2.1548,2.1548,2.1541,2.1391,2.106,2.0691,2.056,2.024,1.99,1.99,1.9784,1.9698,1.9849,1.9784,1.9679,1.9868,1.99,1.9825,1.9523,1.9521,1.9449,1.8948,1.8704,1.8524,1.8273,1.7892,1.7626,1.7661,1.7416,1.7274,1.7449,1.7062,1.6772,1.6918,1.6773,1.6619,1.656,1.6533,1.6495,1.6391,1.6267,1.6139,1.6024,1.5939,1.5873,1.5835,1.5297,1.4812,1.4427,1.4001,1.3537,1.3035,1.3035,1.3085,1.321,1.3085,1.3092,0.0,1.8355,1.895,1.8565,1.812,1.7468,1.6341,0.0,0.0,1.3858,1.3432,1.313,1.3172,1.317,1.3441,0.0,0.0,0.0,0.0,1.8641,0.0,0.0,2.1492,0.0,2.2248,2.2296,2.2296,2.2296,2.2296,2.2296,2.2296,2.2296,2.2296,2.2296,2.2296,2.2296,2.2296,2.2296,2.2296,2.2296,2.2296,2.2296,2.2296,2.2296,2.2296,0.0,2.2296,2.2296,0.0,2.2296,2.2296,2.2296,2.2296,2.2296,2.2296,2.2296,2.2296,2.224,2.1866,2.1473,2.106,2.0635,2.024,1.99,1.99,1.99,1.99,1.99,1.99,1.99,1.99,1.99,1.9911,1.9922,2.0067,2.0022,1.9428,1.9477,1.9446,1.8809,1.8359,1.8178,1.8529,1.7969,1.7712,1.8453,1.7746,1.7255,1.76,1.748,1.7293,1.7098,1.7078,1.6963,1.6703,1.64,1.6196,1.6177,1.6024,1.6006,1.6168,1.5463,1.4991,1.4806,1.419,1.3719,1.3402,1.3419,1.3574,1.3856,1.3582,1.3428,1.4534,0.0,1.5478,1.5383,1.5419,1.5391,0.0,0.0,0.0,0.0,0.0,1.3475,1.3935,1.3855,1.4184,0.0,0.0,0.0,1.8001,0.0,0.0,2.1384,2.1492,2.1698,2.2248,2.2296,2.2296,2.2296,2.2296,2.2296,2.2296,2.2296,2.2296,2.2296,2.2296,2.2296,2.2296,2.2296,2.2296,2.2296,2.2296,2.2296,2.2296,2.2296,2.2296,0.0,0.0,0.0,2.2296,2.2296,2.2296,2.2296,2.2296,2.2296,2.2296,2.2296,2.2296,2.2296,2.2184,2.1904,2.1435,2.0729,2.024,1.99,1.99,1.99,1.99,1.99,1.99,1.99,1.99,1.99,1.9935,2.0081,2.0177,2.0204,2.0255,2.0077,1.9812,1.9437,1.9039,1.872,1.8616,1.8325,1.8106,1.815,1.7683,1.7313,1.7255,1.7073,1.6912,1.6882,1.6873,1.6769,1.6568,1.6326,1.613,1.5977,1.6081,1.6073,1.5977,1.5946,1.556,1.4806,1.3966,1.3471,1.3402,1.3668,1.3694,1.3531,1.3694,1.3708,1.3257,1.4027,1.484,1.4994,1.5118,1.5192,1.5163,0.0,0.0,0.0,0.0,0.0,1.3831,1.3913,0.0,0.0,1.632,0.0,0.0,0.0,2.0749,2.142,2.1601,2.1861,0.0,2.2296,2.2296,2.2296,2.2296,2.2296,2.2296,2.2296,2.2296,2.2296,2.2296,2.2296,2.2296,2.2296,2.2296,2.2296,2.2296,2.2296,2.2296,2.2296,2.2296,0.0,0.0,0.0,2.2296,2.2296,2.2296,2.2296,2.2296,2.2296,2.2296,2.2296,2.2296,2.2296,2.2296,2.1922,2.1323,2.0691,2.024,1.99,1.99,1.9968,2.0032,1.9933,2.0062,2.0162,1.9965,2.0062,2.0216,2.021,2.0352,2.0533,2.0593,2.0494,2.0337,2.0104,1.9731,1.9457,1.9506,1.887,1.8406,1.857,1.7904,1.7397,1.7369,1.7359,1.7327,1.7213,1.7135,1.6991,1.6798,1.6426,1.6149,1.6035,1.6139,1.6149,1.6053,1.6139,1.5796,1.4912,1.4247,1.3899,1.3917,1.4091,1.4074,1.3917,1.4091,1.4019,1.2944,1.4173,1.5518,1.5629,1.5741,1.5791,1.5767,0.0,0.0,0.0,0.0,0.0,0.0,0.0,0.0,0.0,0.0,0.0,1.9394,2.0277,2.0937,2.1444,2.1752,0.0,2.2272,2.2296,2.2296,2.2296,2.2296,2.2296,2.2296,2.2296,2.2296,2.2296,2.2296,2.2296,2.2296,2.2296,2.2296,2.2296,2.2296,2.2296,2.2296,2.2296,2.2296,2.2296,0.0,0.0,2.2296,2.2296,2.2296,2.2296,2.2296,2.2296,2.2296,2.2296,2.2296,2.2296,2.2296,2.1773,2.1041,2.0691,2.0299,1.9946,1.9946,2.0121,2.0274,2.0065,2.0291,2.0507,2.0116,2.0302,2.0542,2.0361,2.0619,2.0856,2.0725,2.0811,2.0834,2.0647,2.0311,2.0183,2.0502,1.9509,1.8856,1.9329,1.8465,1.7769,1.7834,1.7981,1.7968,1.7736,1.7493,1.7268,1.7063,1.6563,1.6234,1.6206,1.6196,1.6196,1.6196,1.6143,1.5789,1.5106,1.475,1.4581,1.4581,1.4635,1.4616,1.4534,1.4588,1.439,1.3758,1.4922,1.5623,1.4766,1.5216,1.584,1.56,0.0,0.0,0.0,0.0,0.0,0.0,0.0,0.0,0.0,0.0,1.9334,0.0,0.0,2.116,2.1456,0.0,2.2006,2.2272,2.2296,2.2296,2.2296,2.2296,2.2296,2.2296,2.2296,2.2296,2.2296,2.2296,2.2296,2.2296,2.2296,2.2296,2.2296,2.2296,2.2296,2.2296,2.2296,2.2296,2.2296,0.0,2.2296,2.2296,2.2296,2.2296,2.2296,2.2296,2.2296,2.2296,2.2296,2.2296,2.2296,2.2296,2.1773,2.109,2.1022,2.0621,2.0156,2.0156,2.0457,2.0748,2.0561,2.0539,2.0583,2.0507,2.055,2.0617,2.0759,2.0856,2.0953,2.1145,2.1048,2.0834,2.0647,2.0546,2.0461,2.0287,2.0115,1.9977,1.99,1.9569,1.9155,1.8622,1.8417,1.8174,1.7749,1.736,1.7065,1.6866,1.6611,1.6385,1.6206,1.6196,1.6196,1.6196,1.5877,1.562,1.5514,1.5115,1.4928,1.4928,1.5274,1.5176,1.4685,1.501,1.486,1.3232,1.4238,1.5097,1.515,1.619,1.718,1.7134,0.0,0.0,0.0,0.0,0.0,0.0,0.0,1.6936,0.0,0.0,1.9898,2.0446,2.0978,2.1426,0.0,0.0,2.2163,2.2284,2.2296,2.2296,2.2296,2.2296,2.2296,2.2296,2.2296,2.2296,2.2296,2.2296,2.2296,2.2296,2.2296,2.2296,2.2296,2.2296,2.2296,2.2296,2.2296,2.2296,2.2296,0.0,2.2296,2.2296,2.2296,2.2296,2.2296,2.2296,2.2296,2.2296,2.2296,2.2296,2.2259,2.2053,2.166,2.1227,2.1019,2.0709,2.0423,2.0423,2.064,2.0877,2.08,2.0865,2.0928,2.0669,2.0798,2.0962,2.091,2.1007,2.1156,2.1274,2.121,2.1091,2.1014,2.0993,2.093,2.0822,2.0518,2.0303,2.0314,1.9851,1.9422,1.9264,1.9035,1.868,1.8135,1.7826,1.7453,1.7,1.6774,1.6519,1.6225,1.6196,1.6196,1.6196,1.6019,1.5824,1.5603,1.5416,1.5221,1.4999,1.5507,1.5534,1.508,1.5348,1.5224,1.305,1.384,1.4732,1.5809,0.0,1.8088,0.0,0.0,0.0,0.0,0.0,0.0,0.0,1.7397,0.0,1.9128,1.974,2.0248,2.0724,2.1268,2.1661,2.1885,2.2139,2.2296,2.2296,2.2296,2.2296,2.2296,2.2296,2.2296,2.2296,2.2296,2.2296,2.2296,2.2296,2.2296,2.2296,2.2296,2.2296,2.2296,2.2296,2.2296,2.2296,2.2296,2.2296,2.2296,2.2296,2.2296,2.2296,2.2296,2.2296,2.2296,2.2296,2.2296,2.2296,2.2296,2.224,2.2109,2.181,2.1515,2.1196,2.0853,2.0709,2.0649,2.0615,2.0779,2.0974,2.092,2.1082,2.121,2.0863,2.0983,2.1177,2.1017,2.1156,2.1296,2.1296,2.1253,2.121,2.121,2.121,2.121,2.121,2.0821,2.0599,2.0748,2.0194,1.9801,1.9905,1.965,1.922,1.8534,1.8181,1.7737,1.7085,1.6887,1.667,1.6366,1.6348,1.6319,1.6272,1.6272,1.6101,1.5753,1.579,1.5658,1.5346,1.5867,1.5958,1.5657,1.5679,1.5516,1.431,1.4763,1.4996,1.6302,0.0,0.0,0.0,0.0,0.0,0.0,0.0,0.0,0.0,1.9069,1.9512,1.979,2.0284,2.0749,2.1027,0.0,2.1885,2.1909,2.2139,2.2296,2.2296,2.2296,2.2296,2.2296,2.2296,2.2296,2.2296,2.2296,2.2296,2.2296,2.2296,2.2296,2.2296,2.2296,2.2296,2.2296,2.2296,2.2296,2.2296,2.2296,2.2296,2.2296,2.2296,2.2296,2.2296,2.2296,2.2296,2.2296,2.2296,2.2296,2.2296,2.2296,2.2053,2.1735,2.1698,2.1326,2.0799,2.0585,2.0676,2.0834,2.0669,2.0908,2.1221,2.0974,2.1082,2.1285,2.1253,2.1102,2.0985,2.1221,2.1285,2.1296,2.1296,2.1093,2.0931,2.0931,2.0931,2.0931,2.0931,2.1114,2.1234,2.1255,2.1214,2.101,2.0586,2.02,1.9614,1.8769,1.8104,1.7486,1.6858,1.6812,1.6793,1.6764,1.6764,1.667,1.6489,1.648,1.6367,1.617,1.635,1.6426,1.639,1.6625,1.6619,1.6413,1.6056,1.5776,1.3015,1.3876,1.4643,1.5502,0.0,0.0,0.0,0.0,0.0,0.0,0.0,0.0,0.0,0.0,2.0313,2.0401,2.0712,2.1099,2.1534,2.1776,2.197,2.2127,2.2236,2.2296,2.2296,2.2296,2.2296,2.2296,2.2296,2.2296,2.2296,2.2296,2.2296,2.2296,2.2296,2.2296,2.2296,2.2296,2.2296,2.2296,2.2296,2.2296,2.2296,2.2296,2.2296,2.2296,2.2296,2.2296,2.2296,2.2296,2.2296,2.2296,2.2296,2.2296,2.2259,2.2016,2.1829,2.1646,2.128,2.1096,2.1018,2.081,2.093,2.1093,2.0865,2.0899,2.1028,2.0931,2.0867,2.0886,2.1027,2.1093,2.1177,2.1274,2.1296,2.1296,2.1296,2.1221,2.1156,2.1156,2.1156,2.1156,2.1156,2.1231,2.1296,2.1296,2.1296,2.1182,2.082,2.0431,1.9846,1.8973,1.8056,1.7426,1.7199,1.7171,1.7171,1.7171,1.6953,1.6764,1.6689,1.6679,1.6651,1.6566,1.6642,1.6679,1.6679,1.6887,1.6954,1.6871,1.6595,1.6339,1.2662,1.3547,1.4485,0.0,0.0,0.0,0.0,0.0,0.0,0.0,0.0,0.0,0.0,0.0,0.0,0.0,2.1184,2.1486,2.1861,2.1982,2.2091,2.2272,2.2296,2.2296,2.2296,2.2296,2.2296,2.2296,2.2296,2.2296,2.2296,2.2296,2.2296,2.2296,2.2296,2.2296,2.2296,2.2296,2.2296,2.2296,2.2296,2.2296,2.2296,2.2296,2.2296,2.2296,2.2296,2.2296,2.2296,2.2296,2.2296,2.2296,2.2296,2.2221,2.2072,2.1791,2.1548,2.1252,2.0856,2.0792,2.0846,2.0641,2.0811,2.1027,2.0759,2.0791,2.0888,2.0813,2.0811,2.0822,2.0888,2.1028,2.1199,2.1274,2.1296,2.1296,2.1296,2.1296,2.1296,2.1296,2.1296,2.1296,2.1296,2.1296,2.1296,2.1296,2.1231,2.1113,2.0931,2.0607,2.0042,1.9104,1.8221,1.7635,1.7416,1.7407,1.7407,1.7407,1.7143,1.6954,1.6906,1.6897,1.6868,1.6802,1.6868,1.6897,1.6897,1.7105,1.719,1.719,1.6913,1.6685,1.3751,1.4092,1.4635,0.0,0.0,0.0,0.0,0.0,0.0,0.0,0.0,0.0,0.0,0.0,0.0,2.1462,2.1722,2.1891,2.1909,2.2139,2.2296,2.2308,2.2308,2.2308,2.2296,2.2296,2.2296,2.2296,2.2296,2.2296,2.2296,2.2296,2.2296,2.2296,2.2296,2.2296,2.2296,2.2296,2.2296,2.2296,2.2296,2.2296,2.2296,2.2296,2.2296,2.2296,2.2296,2.2296,2.2296,2.2296,2.2296,2.2296,2.2296,2.2053,2.1698,2.1679,2.1191,2.0503,2.0503,2.0366,2.0177,1.9968,2.0216,2.0561,2.0285,2.0533,2.0856,2.0669,2.0949,2.1242,2.0974,2.091,2.0974,2.1242,2.1296,2.1296,2.1296,2.1296,2.1296,2.1296,2.1296,2.1296,2.1296,2.1296,2.1296,2.1296,2.106,2.0899,2.0879,2.0725,2.0176,1.9113,1.8629,1.8145,1.7464,1.7407,1.7407,1.7388,1.7407,1.7312,1.7114,1.7105,1.701,1.6812,1.701,1.7105,1.7105,1.7303,1.7388,1.7388,1.6987,1.6704,1.2834,1.3803,0.0,0.0,0.0,0.0,0.0,0.0,0.0,0.0,0.0,0.0,0.0,0.0,0.0,0.0,2.2006,2.2248,2.2429,2.2526,2.2647,2.2847,2.2872,2.2799,2.2586,2.2574,2.2502,2.2308,2.2296,2.2296,2.2296,2.2296,2.2296,2.2296,2.2296,2.2296,2.2296,2.2296,2.2296,2.2296,2.2296,2.2296,2.2296,2.2296,2.2296,2.2296,2.2296,2.2296,2.2296,2.2296,2.2296,2.2259,2.1997,2.181,2.1623,2.1048,2.0691,2.0488,2.0342,2.0252,2.0231,2.0337,2.0486,2.0593,2.0498,2.0574,2.0703,2.08,2.0899,2.1039,2.1156,2.1188,2.121,2.1285,2.1296,2.1296,2.1296,2.1296,2.1296,2.1296,2.1296,2.1296,2.1296,2.1296,2.1242,2.1039,2.0953,2.0746,2.032,2.0216,1.9894,1.9074,1.8899,1.8599,1.8077,1.7903,1.7769,1.7624,1.7482,1.7379,1.7312,1.7312,1.7284,1.7227,1.7284,1.7312,1.7312,1.752,1.7615,1.7605,1.7337,1.7099,1.3412,1.457,0.0,0.0,0.0,0.0,0.0,0.0,0.0,0.0,0.0,0.0,0.0,0.0,0.0,2.2443,2.2502,2.2659,2.2847,2.2872,2.292,2.3077,2.3101,2.2993,2.2738,2.2714,2.2586,2.232,2.2296,2.2296,2.2296,2.2446,2.2539,2.2539,2.2669,2.2669,2.2539,2.2539,2.2464,2.2296,2.2296,2.2296,2.2296,2.2296,2.2296,2.2296,2.2296,2.2296,2.2296,2.2296,2.2203,2.2035,2.1791,2.1491,2.1161,2.0673,2.0409,2.0243,2.013,2.0089,2.011,2.027,2.0313,2.0313,2.0313,2.0453,2.0626,2.0746,2.093,2.1113,2.1264,2.1296,2.1296,2.1296,2.1296,2.1296,2.1296,2.1296,2.1296,2.1296,2.1296,2.1296,2.1296,2.121,2.1102,2.0931,2.0748,2.054,2.0282,2.0158,1.9909,1.9438,1.9298,1.8996,1.8397,1.8133,1.7893,1.7596,1.7473,1.7407,1.7407,1.7407,1.7407,1.7407,1.7407,1.7445,1.753,1.7643,1.7649,1.7578,1.7472,1.7134,1.4775,0.0,0.0,1.8775,1.976,0.0,0.0,0.0,0.0,0.0,0.0,0.0,2.4666,2.397,2.3306,2.3123,2.3101,2.3114,2.3118,2.3138,2.315,2.3155,2.3155,2.3046,2.2792,2.2744,2.2642,2.2357,2.2308,2.2315,2.2352,2.2688,2.2912,2.2949,2.3247,2.3247,2.2893,2.2893,2.2688,2.2296,2.2296,2.2296,2.2296,2.2296,2.2296,2.2296,2.2296,2.2296,2.2296,2.2296,2.2072,2.1754,2.1698,2.1229,2.056,2.0503,2.0259,1.99,1.99,1.99,1.99,1.99,1.99,1.9911,1.9933,2.0237,2.0604,2.0626,2.094,2.1296,2.1296,2.1296,2.1296,2.1296,2.1296,2.1296,2.1296,2.1296,2.1296,2.1296,2.1296,2.1296,2.1296,2.1113,2.092,2.0877,2.05,2.0285,2.052,2.0382,2.0214,2.0065,1.9837,1.9374,1.8572,1.8239,1.7874,1.7483,1.7426,1.7407,1.7407,1.7407,1.7407,1.7407,1.7407,1.7501,1.7681,1.7699,1.7589,1.7381,1.7378,1.692,1.3991,1.5116,0.0,0.0,2.0556,2.2263,2.334,2.4278,2.4946,2.5075,2.5008,2.4881,2.4723,2.4284,2.3738,2.3184,2.3101,2.3155,2.3314,2.335,2.3402,2.3627,2.3651,2.3535,2.3289,2.3099,2.2908,2.2623,2.2417,2.2446,2.2744,2.2856,2.3023,2.3284,2.3358,2.3247,2.2893,2.2893,2.2688,2.2296,2.2296,2.2296,2.2296,2.2296,2.2296,2.2296,2.2296,2.2296,2.2296,2.2296,2.224,2.2147,2.181,2.1398,2.0928,2.0616,2.0259,1.99,1.99,1.99,1.99,1.99,1.99,1.9925,2.01,2.0358,2.0637,2.08,2.107,2.1296,2.1296,2.1296,2.1296,2.1296,2.1296,2.1296,2.1296,2.1296,2.1296,2.1296,2.1296,2.1296,2.1296,2.1253,2.1091,2.0714,2.0393,2.0212,2.0285,2.0565,2.0685,2.0478,2.0424,2.0104,1.9403,1.8822,1.8297,1.7898,1.7567,1.7407,1.7407,1.7407,1.7407,1.7407,1.7407,1.7407,1.7454,1.7633,1.7523,1.717,1.7112,1.6822,1.4143,0.0,0.0,1.9741,0.0,2.2872,2.3352,2.4112,2.4795,2.5126,2.5483,2.5614,2.5301,2.5046,2.4673,2.3886,2.3764,2.3734,2.3603,2.3595,2.3692,2.3957,2.3884,2.3752,2.3619,2.3292,2.307,2.2954,2.2723,2.2744,2.3116,2.3321,2.3507,2.3692,2.3865,2.3804,2.3432,2.3247,2.2949,2.2576,2.239,2.2296,2.2296,2.2296,2.2296,2.2296,2.2296,2.2296,2.2296,2.2296,2.2184,2.1997,2.1773,2.1454,2.106,2.0853,2.0522,2.0183,2.0183,2.0051,1.99,1.99,1.99,1.9954,2.0145,2.0296,2.0488,2.0813,2.0996,2.1145,2.1264,2.1296,2.1296,2.1296,2.1296,2.1296,2.1296,2.1296,2.1296,2.1296,2.1296,2.1296,2.1296,2.1199,2.1037,2.0789,2.0436,2.0253,2.0361,2.049,2.0576,2.0604,2.0604,2.0373,1.9829,1.9276,1.8697,1.8182,1.7768,1.7548,1.7548,1.7454,1.7407,1.7407,1.7407,1.7454,1.7529,1.7468,1.7286,1.7043,1.6828,1.65,1.423,0.0,1.8409,2.0917,2.2236,0.0,2.3279,2.3946,2.4656,2.5217,2.5871,2.6214,2.5858,2.5792,2.5514,2.4632,2.4492,2.4332,2.386,2.3824,2.3936,2.4223,2.4077,2.3971,2.402,2.3592,2.3332,2.3396,2.3142,2.3135,2.3475,2.3822,2.4026,2.41,2.4433,2.4414,2.4007,2.3661,2.3302,2.2893,2.2483,2.2296,2.2296,2.2296,2.2296,2.2296,2.2296,2.2296,2.2296,2.2296,2.2091,2.1791,2.1791,2.1559,2.1203,2.1128,2.0853,2.0503,2.0428,2.0183,1.99,1.99,1.99,1.9925,2.011,2.021,2.035,2.0737,2.0899,2.1017,2.1242,2.1296,2.1296,2.1296,2.1296,2.1296,2.1296,2.1296,2.1296,2.1296,2.1296,2.1296,2.1296,2.1071,2.0899,2.0899,2.0544,2.035,2.0572,2.0445,2.0404,2.0617,2.0639,2.0503,2.0143,1.9607,1.9044,1.8456,1.7999,1.7747,1.7709,1.7548,1.7445,1.7407,1.7407,1.7453,1.7536,1.7253,1.7005,1.6799,1.6535,1.6185,1.2787,0.0,1.8654,0.0,2.1792,2.2869,0.0,0.0,2.4698,0.0,2.5792,2.5995,2.5819,2.5792,2.5514,2.4632,2.4492,2.4332,2.386,2.3905,2.4086,2.4417,2.4531,2.4673,2.4905,2.4452,2.415,2.415,2.3649,2.3507,2.3915,2.397,2.4156,2.4507,2.4562,2.4414,2.4007,2.3952,2.3581,2.2893,2.2483,2.2296,2.2296,2.2296,2.2296,2.2296,2.2296,2.2296,2.2296,2.2296,2.2259,2.2221,2.2221,2.196,2.1566,2.124,2.0853,2.0447,2.0108,1.9938,1.99,1.99,1.99,1.9911,1.9925,2.0227,2.0572,2.0606,2.093,2.1253,2.1285,2.1296,2.1296,2.1296,2.1296,2.1296,2.1296,2.1296,2.1296,2.1296,2.1296,2.1296,2.1296,2.1071,2.0899,2.0899,2.0703,2.0572,2.0604,2.0725,2.0823,2.0856,2.0856,2.0763,2.0543,1.9761,1.9193,1.8915,1.8304,1.7878,1.7718,1.7661,1.7586,1.7388,1.7407,1.7245,1.6919,1.7044,1.6734,1.6052,1.6295,1.6185,1.3708,1.5884,1.8046,0.0,2.1582,2.2527,2.3547,2.4067,2.4512,2.5152,2.539,2.5592,2.587,2.5759,2.5531,2.5265,2.4891,2.4553,2.4323,2.4138,2.4202,2.4773,2.4757,2.4863,2.528,2.471,2.4393,2.4623,2.4076,2.3915,2.4304,2.4341,2.4414,2.4599,2.4599,2.4525,2.4341,2.4119,2.3637,2.2893,2.2483,2.2296,2.2296,2.2296,2.2296,2.2296,2.2296,2.2296,2.2296,2.2296,2.2296,2.2296,2.2296,2.2184,2.1997,2.1566,2.1173,2.0778,2.0372,2.0089,1.99,1.99,1.99,1.9933,2.0035,2.0218,2.0425,2.0684,2.093,2.1124,2.1264,2.1296,2.1296,2.1296,2.1296,2.1296,2.1296,2.1296,2.1296,2.1296,2.1296,2.1296,2.1296,2.121,2.1114,2.1114,2.093,2.0768,2.0768,2.0845,2.0899,2.0899,2.1028,2.1023,2.079,2.0116,1.9584,1.9344,1.8626,1.8172,1.8098,1.7945,1.7765,1.7577,1.7234,1.6978,1.6806,1.6552,1.6272,1.6002,1.594,1.5901,0.0,0.0,1.6807,1.9355,2.0766,2.1855,0.0,0.0,2.4142,0.0,2.4882,2.5056,2.5663,2.5611,2.5517,2.5564,2.5114,2.47,2.4583,2.4299,2.4342,2.4974,2.4958,2.5062,2.546,2.4959,2.4694,2.4934,2.4449,2.4285,2.4581,2.4599,2.4599,2.4599,2.4599,2.4599,2.4599,2.4022,2.3391,2.2682,2.2349,2.2199,2.2199,2.2272,2.2296,2.2296,2.2296,2.2296,2.2296,2.2296,2.2296,2.2296,2.2296,2.2296,2.224,2.1847,2.1454,2.1041,2.0635,2.024,1.99,1.99,1.99,1.9933,2.0089,2.021,2.0371,2.0716,2.0899,2.1039,2.1253,2.1296,2.1296,2.1296,2.1296,2.1296,2.1296,2.1296,2.1296,2.1296,2.1296,2.1296,2.1296,2.1296,2.1296,2.1296,2.1145,2.0996,2.0996,2.0996,2.0996,2.0996,2.1188,2.116,2.0857,2.0311,1.9856,1.9534,1.886,1.8449,1.8392,1.821,1.7963,1.7709,1.7154,1.6803,1.6653,1.6294,1.6047,1.5875,1.5676,1.5703,0.0,1.3233,0.0,1.695,1.8906,2.0659,0.0,0.0,2.3523,2.4128,2.4249,2.4436,2.5042,2.5331,2.5384,2.5008,2.4912,2.4726,2.429,2.4309,2.4504,2.4867,2.5238,2.5468,2.5495,2.5468,2.5341,2.5098,2.4773,2.4581,2.4599,2.4599,2.4599,2.4599,2.4599,2.4599,2.4599,2.3569,2.2753,2.2147,2.2001,2.1921,2.1933,2.2187,2.2296,2.2296,2.2296,2.2296,2.2296,2.2296,2.2296,2.2296,2.2296,2.2296,2.224,2.1847,2.1454,2.1041,2.0635,2.024,1.99,1.99,1.99,1.9911,1.9922,2.0227,2.0593,2.0615,2.0949,2.1285,2.1296,2.1296,2.1296,2.1296,2.1296,2.1296,2.1296,2.1296,2.1296,2.1296,2.1296,2.1296,2.1296,2.1296,2.1296,2.1296,2.1285,2.1274,2.1274,2.1274,2.1274,2.1274,2.1285,2.1114,2.0658,2.0252,1.9795,1.9338,1.892,1.861,1.8402,1.8383,1.8164,1.7718,1.7292,1.6794,1.6223,1.6581,1.6225,1.526,1.5621,1.5792,0.0,0.0,0.0,1.5282,1.7159,1.8885,2.0226,2.1533,2.2632,2.3237,2.35,2.375,2.4187,2.4636,2.5002,2.5241,2.4888,2.4637,2.4751,2.4565,2.4557,2.4978,2.5162,2.5304,2.5472,2.5344,2.5197,2.5109,2.4778,2.4599,2.4599,2.4599,2.4599,2.4599,2.4599,2.4395,2.3954,2.314,2.2533,2.2097,2.1959,2.1909,2.1891,2.2006,2.2139,2.2284,2.2115,2.2042,2.2042,2.2042,2.1946,2.1794,2.1982,2.2042,2.2011,2.177,2.1454,2.1041,2.0635,2.024,1.99,1.99,1.99,1.99,1.99,2.0216,2.0604,2.0604,2.0949,2.1296,2.1296,2.1296,2.1296,2.1296,2.1296,2.1296,2.1296,2.1296,2.1296,2.1296,2.1296,2.1296,2.1296,2.1296,2.1296,2.1296,2.1296,2.1296,2.1296,2.1296,2.1296,2.1296,2.1296,2.1114,2.0627,2.0231,1.9805,1.9337,1.8918,1.8665,1.86,1.86,1.8448,1.8154,1.8016,1.7487,1.6586,1.6727,1.6451,1.579,1.606,1.6081,1.1065,0.0,0.0,0.0,1.5641,1.6976,1.9116,2.0309,2.1245,2.2251,2.2739,2.3122,2.3541,2.4022,2.4484,2.4978,2.4721,2.458,2.4893,2.4594,2.4475,2.4879,2.485,2.4903,2.5178,2.4957,2.4802,2.4802,2.4578,0.0,2.4471,2.4546,2.4559,2.4471,2.4249,2.3814,2.3148,2.2579,2.2065,2.1629,2.1624,2.168,2.1758,2.1873,2.2054,2.2284,2.2115,2.1994,2.1909,2.1909,2.1734,2.1516,2.1704,2.1825,2.1897,2.1806,2.1571,2.124,2.0834,2.0428,2.007,1.9938,1.99,1.99,1.99,2.0162,2.0477,2.0583,2.0865,2.1188,2.1274,2.1296,2.1296,2.1296,2.1296,2.1296,2.1296,2.1296,2.1296,2.1296,2.1296,2.1296,2.1296,2.1296,2.1296,2.1296,2.1296,2.1296,2.1296,2.1296,2.1296,2.1296,2.1154,2.0871,2.0445,2.0008,1.9622,1.9316,1.8918,1.8755,1.8898,1.8775,1.8619,1.8402,1.8392,1.7997,1.72,1.7064,1.6775,1.6347,1.6535,1.648,0.0,0.0,0.0,0.0,1.4326,1.5055,1.8757,1.9197,1.9318,2.1127,2.1927,2.2495,2.3136,2.3527,2.3839,2.4115,2.4391,2.4572,2.4572,2.4351,2.4271,2.4546,2.4351,2.4284,2.4546,2.4351,2.4209,2.4209,2.4209,2.4209,2.4209,2.4444,2.4457,2.4195,2.3543,2.2863,2.2214,2.1863,2.1357,2.07,2.0966,2.1232,2.1492,2.1776,2.203,2.2272,2.2272,2.2127,2.1885,2.1867,2.174,2.148,2.148,2.1649,2.1897,2.1909,2.1819,2.1623,2.124,2.0834,2.0428,2.0032,1.99,1.99,1.99,2.0046,2.0274,2.0539,2.0757,2.0974,2.1231,2.1316,2.1316,2.1296,2.1296,2.1296,2.1296,2.1296,2.1296,2.1296,2.1296,2.1296,2.1296,2.1296,2.1296,2.1296,2.1296,2.1296,2.1296,2.1296,2.1296,2.1296,2.0871,2.0445,2.0028,1.9581,1.9316,1.9296,1.8939,1.8898,1.9276,1.8918,1.8619,1.8402,1.8392,1.8277,1.8029,1.7615,1.7219,1.6841,1.7026,1.6967,1.086,0.0,0.0,0.0,0.0,0.0,1.4854,1.5913,1.7182,1.8986,1.9626,2.0319,2.1793,2.2458,2.2886,2.3197,2.3692,2.4026,2.4026,2.3959,2.3933,2.3995,2.3959,2.3946,2.3995,2.4128,2.4209,0.0,2.4377,2.4404,2.4209,2.4075,2.3986,2.3906,2.3258,2.2691,2.2197,2.1627,2.112,2.07,2.0966,2.1135,2.122,2.1498,2.1649,2.171,2.171,2.1571,2.1341,2.1534,2.1335,2.0942,2.1135,2.1359,2.1625,2.1837,2.1634,2.1259,2.1146,2.0646,2.0051,1.9938,1.99,1.99,1.99,2.0173,2.0498,2.0583,2.0876,2.121,2.1285,2.1518,2.166,2.1377,2.1296,2.1296,2.1296,2.1296,2.1296,2.1296,2.1296,2.1296,2.1296,2.1296,2.1296,2.1296,2.1296,2.1296,2.1296,2.1296,2.1296,2.1296,2.0871,2.0445,2.0028,1.9886,1.9662,1.9316,1.9194,1.9174,1.9296,1.8918,1.8665,1.8629,1.8477,1.8439,1.8503,1.8242,1.7887,1.7456,1.735,1.7106,0.0,0.0,0.0,0.0,0.0,0.0,1.4113,1.4825,1.578,1.7582,1.8357,1.9132,2.0431,2.1232,2.179,2.2101,2.2572,2.3094,2.3705,2.3679,2.3652,2.3772,2.3576,2.3522,2.3777,2.3705,2.3772,2.4008,2.4044,2.4057,2.4022,2.3879,2.3679,2.3386,2.2732,2.2175,2.1792,2.1259,2.0891,2.07,2.0857,2.099,2.1099,2.1268,2.1384,2.1492,2.1492,2.1353,2.1111,2.1268,2.1087,2.0724,2.0869,2.1172,2.1516,2.1692,2.1687,2.1548,2.1222,2.0778,2.0345,2.0013,1.99,1.9922,2.0011,2.0353,2.0769,2.0965,2.1424,2.1801,2.1599,2.172,2.1801,2.1397,2.1296,2.1296,2.1296,2.1296,2.1296,2.1296,2.1296,2.1296,2.1296,2.1296,2.1296,2.1296,2.1296,2.1296,2.1296,2.1296,2.1296,2.1296,2.0729,2.0323,2.0252,1.9927,1.9662,1.9601,1.9418,1.9296,1.9296,1.8918,1.8694,1.8694,1.8571,1.8591,1.8694,1.8496,1.8299,1.8109,1.7617,1.7261,0.0,0.0,0.0,0.0,0.0,0.0,1.4994,1.4914,1.491,1.6523,1.7474,1.8224,1.892,1.9749,2.0403,2.0668,2.1098,2.192,2.3402,2.334,2.3273,2.3558,2.3134,2.3027,2.3585,2.3188,2.3134,2.3692,2.3474,2.3429,2.3732,2.367,2.3364,2.2754,2.209,2.1553,2.119,2.0873,2.07,2.07,2.07,2.0821,2.1051,2.1087,2.1208,2.1408,2.1444,2.1299,2.1051,2.1051,2.093,2.0749,2.0749,2.1057,2.1541,2.1541,2.1836,2.2128,2.1409,2.1146,2.0966,2.0213,1.9995,2.0057,2.0189,2.0572,2.1039,2.148,2.2102,2.2536,2.1999,2.19,2.181,2.1365,2.1274,2.1296,2.1296,2.1296,2.1296,2.1296,2.1296,2.1296,2.1296,2.1296,2.1296,2.1296,2.1296,2.1296,2.1296,2.1296,2.1296,2.1296,2.0556,2.0211,2.0567,1.9886,1.9601,1.9988,1.9601,1.9357,1.9296,1.8918,1.8694,1.8694,1.8694,1.8694,1.8694,1.8525,1.8505,1.8592,1.7835,1.7404,0.0,0.0,0.0,0.0,0.0,0.0,1.331,1.3601,1.4279,1.4638,1.4852,1.5349,1.6658,1.7447,1.797,1.8237,1.9319,2.067,2.2141,2.2285,2.2288,2.2342,2.2248,2.2315,2.2628,2.2809,2.3037,2.3363,2.3349,2.3336,2.3389,2.2889,2.2523,2.2402,2.1681,2.1276,2.119,2.0873,2.07,2.07,2.07,2.0724,2.0785,2.1002,2.1015,2.0869,2.1087,2.1027,2.0773,2.0773,2.0869,2.1015,2.1015,2.1353,2.1818,2.1818,2.1827,2.1791,2.1641,2.1372,2.1034,2.0541,2.0597,2.0808,2.0521,2.0848,2.1336,2.1547,2.2239,2.274,2.1946,2.1896,2.1885,2.1157,2.1136,2.1296,2.1296,2.1296,2.1296,2.1296,2.1296,2.1296,2.1296,2.1296,2.1296,2.1296,2.1296,2.1296,2.1296,2.1296,2.1296,2.1296,2.081,2.0506,2.0587,2.0445,2.0262,2.0008,1.9906,1.9683,1.9316,1.8918,1.8694,1.8694,1.8694,1.8694,1.8694,1.8656,1.8463,1.8133,1.7969,1.7519,0.0,0.0,0.0,1.5855,0.0,0.0,0.0,1.4068,1.4306,1.5053,1.4721,1.471,1.6056,1.655,1.6805,1.6926,1.8197,1.9292,1.9748,2.0802,2.155,2.155,2.17,2.1847,2.1994,2.2275,2.2569,2.2829,2.3269,2.3333,2.2836,2.2636,2.2298,2.176,2.138,2.119,2.119,2.1029,2.096,2.096,2.096,2.0856,2.07,2.0845,2.0833,2.0712,2.0845,2.0894,2.0894,2.0761,2.0942,2.1293,2.1148,2.1353,2.1728,2.1861,2.1949,2.196,2.1773,2.1566,2.1323,2.0928,2.0928,2.1094,2.0981,2.1395,2.1974,2.2334,2.2745,2.2965,2.2584,2.2309,2.1969,2.1269,2.1193,2.1296,2.1296,2.1296,2.1296,2.1296,2.1296,2.1296,2.1296,2.1296,2.1296,2.1296,2.1296,2.1296,2.1296,2.1296,2.1296,2.1296,2.0871,2.0688,2.0932,2.0729,2.0424,2.0028,2.0008,1.9703,1.9041,1.8816,1.8694,1.8694,1.8694,1.8694,1.8694,1.8694,1.8469,1.798,1.7551,1.712,0.0,0.0,0.0,0.0,0.0,1.6449,0.0,0.0,0.0,1.5695,1.5097,1.4723,1.5708,1.5817,1.579,1.5869,1.702,1.7742,1.7247,1.9012,2.0388,2.0479,2.0898,2.121,2.1264,2.1446,2.175,2.2218,2.2768,2.2835,2.2262,2.2402,2.2088,2.1237,2.1089,2.1071,2.119,2.1071,2.1089,2.119,2.1133,2.096,2.07,2.07,2.07,2.07,2.07,2.0821,2.1002,2.0797,2.0966,2.1323,2.122,2.1341,2.1601,2.1885,2.2115,2.224,2.1922,2.181,2.1754,2.1353,2.1222,2.1256,2.1509,2.1989,2.2554,2.2971,2.3084,2.3031,2.2961,2.2467,2.1874,2.14,2.1248,2.1242,2.1285,2.1296,2.1296,2.1296,2.1296,2.1296,2.1296,2.1296,2.1296,2.1296,2.1296,2.1296,2.1296,2.1296,2.1296,2.1296,2.0952,2.0891,2.1276,2.0952,2.0567,2.013,2.0049,1.9642,1.8857,1.8735,1.8694,1.8694,1.8694,1.8694,1.8694,1.8612,1.8326,1.7867,1.7252,1.6854,0.0,0.0,0.0,0.0,1.8637,0.0,0.0,0.0,1.5735,1.4573,0.0,1.4186,0.0,0.0,0.0,0.0,1.5148,1.5725,1.5658,1.6792,1.7822,1.8303,1.9119,1.9749,1.9973,2.0027,2.051,2.1609,2.0953,2.0928,2.188,2.1589,2.1331,2.119,2.0676,2.0647,2.119,2.0676,2.0676,2.119,2.0908,2.0735,2.07,2.07,2.07,2.07,2.07,2.0724,2.0749,2.0712,2.0736,2.0845,2.1275,2.1613,2.1897,2.2163,2.2272,2.2296,2.224,2.2221,2.2165,2.1754,2.1623,2.1709,2.207,2.2413,2.2636,2.246,2.2627,2.265,2.1896,2.1484,2.1218,2.1212,2.1066,2.1007,2.1253,2.1296,2.1296,2.1296,2.1296,2.1296,2.1296,2.1296,2.1296,2.1296,2.1296,2.1296,2.1296,2.1296,2.1296,2.1296,2.1255,2.1235,2.1296,2.1255,2.1013,2.0567,2.0191,1.9764,1.9255,1.8898,1.8694,1.8694,1.8694,1.8694,1.8694,1.8276,1.7867,1.7466,1.7723,1.7428,0.0,0.0,0.0,0.0,0.0,0.0,0.0,0.0,1.575,0.0,0.0,0.0,0.0,0.0,0.0,0.0,1.483,1.5164,1.4447,1.5391,1.6432,1.7168,0.0,0.0,1.8999,1.9199,1.9691,2.0708,2.0222,2.0213,2.1049,2.0868,2.0721,2.0693,2.0442,2.0588,2.119,2.0953,2.0953,2.119,2.1064,2.0891,2.07,2.07,2.07,2.07,2.07,2.0785,2.0918,2.0761,2.0797,2.0966,2.1347,2.1565,2.171,2.2139,2.2296,2.2296,2.2296,2.2296,2.2259,2.2091,2.2053,2.2072,2.224,2.2381,2.2435,2.234,2.2394,2.2435,2.2051,2.1627,2.1307,2.1504,2.1328,2.1165,2.1282,2.1296,2.1212,2.0962,2.1108,2.1253,2.1082,2.1199,2.1253,2.1082,2.121,2.1242,2.1102,2.121,2.1296,2.1296,2.1296,2.1296,2.1296,2.1296,2.1094,2.0627,2.0211,1.9784,1.9316,1.9133,1.8939,1.8694,1.8694,1.8694,1.8694,1.851,1.8174,1.7744,1.7682,1.7457,2.0996,0.0,0.0,0.0,0.0,0.0,0.0,0.0,0.0,0.0,0.0,0.0,0.0,0.0,0.0,0.0,0.0,1.5017,0.0,1.4485,1.5282,1.5912,0.0,0.0,0.0,1.809,1.8516,1.9651,1.9122,1.918,2.0189,2.0111,2.0091,2.0192,2.0115,2.0369,2.0967,2.0894,2.0931,2.1079,2.1079,2.0943,2.07,2.07,2.07,2.07,2.07,2.0809,2.0978,2.0785,2.0809,2.1027,2.1377,2.1492,2.1565,2.2103,2.2296,2.2296,2.2296,2.2296,2.2296,2.2296,2.2296,2.2296,2.2296,2.2296,2.2296,2.2296,2.2296,2.232,2.2381,2.2002,2.1651,2.1856,2.164,2.1364,2.1303,2.1296,2.1202,2.0868,2.1066,2.1242,2.1039,2.1177,2.1242,2.1028,2.1177,2.1231,2.1028,2.1188,2.1296,2.1296,2.1296,2.1296,2.1296,2.1296,2.1094,2.0627,2.0211,1.9784,1.9316,1.9194,1.9,1.8714,1.8694,1.8694,1.8694,1.8694,1.853,1.8174,1.7896,1.7691,0.0,0.0,0.0,1.9757,0.0,0.0,0.0,0.0,1.7207,0.0,0.0,0.0,0.0,0.0,0.0,0.0,0.0,0.0,0.0,0.0,1.4146,1.4172,0.0,0.0,0.0,1.6433,1.6648,0.0,1.7156,1.7287,1.9504,1.9329,1.9382,1.9898,1.9672,1.9825,2.041,2.0089,2.0239,2.0806,2.0752,2.07,2.07,2.07,2.07,2.07,2.07,2.07,2.0712,2.07,2.0712,2.0773,2.1287,2.1492,2.1565,2.2103,2.2296,2.2296,2.2296,2.2296,2.2296,2.2296,2.2296,2.2296,2.2296,2.2296,2.2296,2.2296,2.2296,2.2357,2.2611,2.2379,2.21,2.2163,2.1882,2.1532,2.1343,2.1296,2.1296,2.1285,2.1296,2.1296,2.1285,2.1296,2.1296,2.1285,2.1296,2.1296,2.1285,2.1296,2.1296,2.1296,2.1296,2.1296,2.1296,2.1296,2.1094,2.0627,2.0211,1.9784,1.9316,1.8939,1.8714,1.8694,1.8694,1.8694,1.8694,1.8694,1.8694,1.8673,1.8653,1.8408,0.0,0.0,2.2636,2.0685,0.0,0.0,0.0,0.0,0.0,0.0,0.0,0.0,0.0,0.0,0.0,0.0,0.0,0.0,0.0,0.0,1.331,1.348,0.0,0.0,0.0,0.0,0.0,0.0,1.6625,0.0,1.8701,1.8833,1.8999,1.937,1.9438,1.9685,2.0064,2.0129,2.0279,2.0466,2.0631,2.07,2.07,2.07,2.07,2.07,2.07,2.07,2.07,2.07,2.0809,2.1002,2.1347,2.1601,2.1813,2.2163,2.2296,2.2296,2.2296,2.2296,2.2296,2.2296,2.2296,2.2296,2.2296,2.2296,2.2296,2.2296,2.2296,2.2357,2.2623,2.241,2.2119,2.2175,2.1882,2.1532,2.1343,2.1296,2.1233,2.102,2.1148,2.1242,2.108,2.1188,2.1242,2.106,2.1188,2.1242,2.105,2.1199,2.1296,2.1296,2.1296,2.1296,2.1296,2.1296,2.1235,2.1073,2.0932,2.0536,1.9784,1.9622,1.9285,1.8714,1.8694,1.8694,1.8694,1.8694,1.8694,1.8694,1.8694,1.8612,2.2932,2.3057,0.0,2.147,2.0746,0.0,1.7658,0.0,0.0,0.0,0.0,0.0,0.0,0.0,0.0,0.0,0.0,0.0,0.0,1.3086,0.0,0.0,0.0,0.0,0.0,0.0,0.0,0.0,0.0,0.0,0.0,1.8146,1.8477,1.8944,1.9225,1.9443,1.962,1.9873,2.0055,2.0163,2.0417,2.0616,2.07,2.07,2.07,2.07,2.07,2.07,2.07,2.07,2.0809,2.099,2.1347,2.1601,2.1794,2.2163,2.2296,2.2296,2.2296,2.2296,2.2296,2.2296,2.2296,2.2296,2.2296,2.2296,2.2296,2.2296,2.2296,2.2381,2.2751,2.2656,2.2461,2.2538,2.2356,2.2062,2.1607,2.1518,2.1414,2.104,2.1148,2.1242,2.106,2.1188,2.1242,2.106,2.1199,2.1242,2.106,2.1199,2.1296,2.1296,2.1296,2.1296,2.1296,2.1296,2.1235,2.1053,2.1053,2.0729,2.0028,1.9845,1.9479,1.8918,1.8775,1.8732,1.8807,1.8807,1.8807,1.8807,1.8807,1.876]}]]